Wetterdaten: Montag, 16.09.2019
Datum Zeit Temp. A. Pool Temp. Temp. 5cm Feuchte A. Luftdruck Regen Wind Richtung Richtung Sonnenschein ET UV Solar Taupunkt Windchill Windben Empfang
16.09.2019 00:00 16,4 C 16,1 C 15,6 C 91 % 1020,0 hPa 0,0 l/m 7,7 km/h (2 Bft) S-SW 205 0 min 0,000 mm 0,0 UV-I 0 W/m 14,9 C 15,7 C 12,9 km/h (3 Bft) 95,74 %
16.09.2019 00:02 16,4 C 16,1 C 15,6 C 90 % 1020,0 hPa 0,0 l/m 7,2 km/h (2 Bft) S-SW 193 0 min 0,000 mm 0,0 UV-I 0 W/m 14,8 C 16,0 C 9,7 km/h (2 Bft) 97,83 %
16.09.2019 00:04 16,5 C 16,1 C 15,6 C 90 % 1020,0 hPa 0,0 l/m 6,0 km/h (2 Bft) S-SW 202 0 min 0,000 mm 0,0 UV-I 0 W/m 14,9 C 16,5 C 9,7 km/h (2 Bft) 97,87 %
16.09.2019 00:06 16,5 C 16,1 C 15,6 C 90 % 1020,0 hPa 0,0 l/m 7,6 km/h (2 Bft) S-SW 209 0 min 0,000 mm 0,0 UV-I 0 W/m 14,9 C 15,9 C 11,3 km/h (2 Bft) 95,74 %
16.09.2019 00:08 16,5 C 16,1 C 15,6 C 90 % 1020,0 hPa 0,0 l/m 6,5 km/h (2 Bft) S-SW 206 0 min 0,000 mm 0,0 UV-I 0 W/m 14,9 C 16,5 C 9,7 km/h (2 Bft) 97,87 %
16.09.2019 00:10 16,4 C 16,1 C 15,6 C 90 % 1020,0 hPa 0,0 l/m 7,0 km/h (2 Bft) SW 215 0 min 0,000 mm 0,0 UV-I 0 W/m 14,8 C 16,1 C 9,7 km/h (2 Bft) 95,12 %
16.09.2019 00:12 16,4 C 16,1 C 15,6 C 90 % 1020,0 hPa 0,0 l/m 7,1 km/h (2 Bft) S-SW 208 0 min 0,000 mm 0,0 UV-I 0 W/m 14,8 C 16,0 C 9,7 km/h (2 Bft) 98,00 %
16.09.2019 00:14 16,4 C 16,1 C 15,6 C 90 % 1020,0 hPa 0,0 l/m 7,4 km/h (2 Bft) S-SW 202 0 min 0,000 mm 0,0 UV-I 0 W/m 14,8 C 15,9 C 9,7 km/h (2 Bft) 97,87 %
16.09.2019 00:16 16,4 C 16,1 C 15,6 C 90 % 1020,1 hPa 0,0 l/m 6,7 km/h (2 Bft) S-SW 209 0 min 0,000 mm 0,0 UV-I 0 W/m 14,8 C 16,3 C 9,7 km/h (2 Bft) 97,87 %
16.09.2019 00:18 16,3 C 16,1 C 15,6 C 90 % 1020,1 hPa 0,0 l/m 8,0 km/h (2 Bft) S-SW 201 0 min 0,000 mm 0,0 UV-I 0 W/m 14,7 C 15,5 C 12,9 km/h (3 Bft) 97,87 %
16.09.2019 00:20 16,3 C 16,1 C 15,6 C 90 % 1020,1 hPa 0,0 l/m 7,4 km/h (2 Bft) S-SW 209 0 min 0,000 mm 0,0 UV-I 0 W/m 14,7 C 15,8 C 12,9 km/h (3 Bft) 95,74 %
16.09.2019 00:22 16,3 C 16,1 C 15,6 C 90 % 1020,1 hPa 0,0 l/m 8,4 km/h (2 Bft) SW 214 0 min 0,000 mm 0,0 UV-I 0 W/m 14,7 C 15,3 C 11,3 km/h (2 Bft) 95,83 %
16.09.2019 00:24 16,3 C 16,1 C 15,6 C 90 % 1020,0 hPa 0,0 l/m 7,2 km/h (2 Bft) S 189 0 min 0,000 mm 0,0 UV-I 0 W/m 14,7 C 15,9 C 12,9 km/h (3 Bft) 97,87 %
16.09.2019 00:26 16,3 C 16,1 C 15,6 C 90 % 1020,0 hPa 0,0 l/m 7,9 km/h (2 Bft) S-SW 209 0 min 0,000 mm 0,0 UV-I 0 W/m 14,7 C 15,5 C 9,7 km/h (2 Bft) 94,74 %
16.09.2019 00:28 16,3 C 16,1 C 15,6 C 90 % 1020,0 hPa 0,0 l/m 7,1 km/h (2 Bft) S-SW 206 0 min 0,000 mm 0,0 UV-I 0 W/m 14,7 C 15,9 C 9,7 km/h (2 Bft) 96,23 %
16.09.2019 00:30 16,3 C 16,1 C 15,6 C 90 % 1020,0 hPa 0,0 l/m 8,0 km/h (2 Bft) SW 225 0 min 0,000 mm 0,0 UV-I 0 W/m 14,7 C 15,5 C 12,9 km/h (3 Bft) 91,49 %
16.09.2019 00:32 16,3 C 16,1 C 15,6 C 90 % 1020,0 hPa 0,0 l/m 7,6 km/h (2 Bft) S-SW 203 0 min 0,000 mm 0,0 UV-I 0 W/m 14,7 C 15,7 C 11,3 km/h (2 Bft) 95,74 %
16.09.2019 00:34 16,3 C 16,1 C 15,6 C 90 % 1020,0 hPa 0,0 l/m 8,0 km/h (2 Bft) S-SW 208 0 min 0,000 mm 0,0 UV-I 0 W/m 14,7 C 15,5 C 11,3 km/h (2 Bft) 97,87 %
16.09.2019 00:36 16,3 C 16,1 C 15,6 C 90 % 1020,0 hPa 0,0 l/m 7,2 km/h (2 Bft) S-SW 205 0 min 0,000 mm 0,0 UV-I 0 W/m 14,7 C 15,9 C 9,7 km/h (2 Bft) 95,74 %
16.09.2019 00:38 16,3 C 16,1 C 15,6 C 90 % 1020,0 hPa 0,0 l/m 7,6 km/h (2 Bft) S-SW 197 0 min 0,000 mm 0,0 UV-I 0 W/m 14,7 C 15,7 C 11,3 km/h (2 Bft) 96,00 %
16.09.2019 00:40 16,2 C 16,1 C 15,6 C 90 % 1020,0 hPa 0,0 l/m 6,5 km/h (2 Bft) S-SW 202 0 min 0,000 mm 0,0 UV-I 0 W/m 14,6 C 16,2 C 8,0 km/h (2 Bft) 94,29 %
16.09.2019 00:42 16,2 C 16,1 C 15,6 C 90 % 1020,1 hPa 0,0 l/m 6,0 km/h (2 Bft) S-SW 194 0 min 0,000 mm 0,0 UV-I 0 W/m 14,6 C 16,2 C 9,7 km/h (2 Bft) 97,87 %
16.09.2019 00:44 16,2 C 16,1 C 15,6 C 90 % 1020,0 hPa 0,0 l/m 6,5 km/h (2 Bft) S-SW 202 0 min 0,000 mm 0,0 UV-I 0 W/m 14,6 C 16,2 C 9,7 km/h (2 Bft) 97,92 %
16.09.2019 00:46 16,2 C 16,1 C 15,6 C 90 % 1020,0 hPa 0,0 l/m 6,4 km/h (2 Bft) S-SW 201 0 min 0,000 mm 0,0 UV-I 0 W/m 14,6 C 16,2 C 9,7 km/h (2 Bft) 100,00 %
16.09.2019 00:48 16,1 C 16,1 C 15,0 C 90 % 1020,0 hPa 0,0 l/m 6,3 km/h (2 Bft) S-SW 211 0 min 0,000 mm 0,0 UV-I 0 W/m 14,5 C 16,1 C 9,7 km/h (2 Bft) 96,00 %
16.09.2019 00:50 16,1 C 16,1 C 15,0 C 90 % 1020,0 hPa 0,0 l/m 4,9 km/h (1 Bft) SW 217 0 min 0,000 mm 0,0 UV-I 0 W/m 14,5 C 16,1 C 8,0 km/h (2 Bft) 100,00 %
16.09.2019 00:52 16,1 C 16,1 C 15,0 C 90 % 1020,0 hPa 0,0 l/m 4,8 km/h (1 Bft) SW 225 0 min 0,000 mm 0,0 UV-I 0 W/m 14,5 C 16,1 C 6,4 km/h (2 Bft) 97,87 %
16.09.2019 00:54 16,1 C 16,1 C 14,4 C 90 % 1020,0 hPa 0,0 l/m 4,3 km/h (1 Bft) SW 220 0 min 0,000 mm 0,0 UV-I 0 W/m 14,5 C 16,1 C 6,4 km/h (2 Bft) 100,00 %
16.09.2019 00:56 16,0 C 16,1 C 14,4 C 90 % 1020,0 hPa 0,0 l/m 2,7 km/h (1 Bft) SW 220 0 min 0,000 mm 0,0 UV-I 0 W/m 14,4 C 16,0 C 4,8 km/h (1 Bft) 100,00 %
16.09.2019 00:58 15,9 C 16,1 C 14,4 C 91 % 1020,0 hPa 0,0 l/m 1,5 km/h (1 Bft) SW 220 0 min 0,000 mm 0,0 UV-I 0 W/m 14,4 C 15,9 C 3,2 km/h (1 Bft) 100,00 %
16.09.2019 01:00 15,8 C 16,1 C 13,9 C 90 % 1020,0 hPa 0,0 l/m 0,9 km/h (0 Bft) SW 220 0 min 0,000 mm 0,0 UV-I 0 W/m 14,2 C 15,8 C 3,2 km/h (1 Bft) 97,87 %
16.09.2019 01:02 15,8 C 16,1 C 13,9 C 91 % 1020,0 hPa 0,0 l/m 3,1 km/h (1 Bft) SW 219 0 min 0,000 mm 0,0 UV-I 0 W/m 14,3 C 15,8 C 4,8 km/h (1 Bft) 100,00 %
16.09.2019 01:04 15,7 C 16,1 C 13,3 C 91 % 1020,0 hPa 0,0 l/m 2,9 km/h (1 Bft) SW 219 0 min 0,000 mm 0,0 UV-I 0 W/m 14,2 C 15,7 C 4,8 km/h (1 Bft) 95,74 %
16.09.2019 01:06 15,7 C 16,1 C 13,3 C 91 % 1020,0 hPa 0,0 l/m 2,9 km/h (1 Bft) SW 220 0 min 0,000 mm 0,0 UV-I 0 W/m 14,2 C 15,7 C 4,8 km/h (1 Bft) 97,87 %
16.09.2019 01:08 15,6 C 16,1 C 13,3 C 91 % 1019,9 hPa 0,0 l/m 2,5 km/h (1 Bft) SW 220 0 min 0,000 mm 0,0 UV-I 0 W/m 14,1 C 15,6 C 4,8 km/h (1 Bft) 98,00 %
16.09.2019 01:10 15,6 C 16,1 C 13,3 C 91 % 1019,9 hPa 0,0 l/m 2,6 km/h (1 Bft) SW 220 0 min 0,000 mm 0,0 UV-I 0 W/m 14,1 C 15,6 C 3,2 km/h (1 Bft) 97,87 %
16.09.2019 01:12 15,4 C 16,1 C 12,8 C 91 % 1020,0 hPa 0,0 l/m 1,9 km/h (1 Bft) SW 220 0 min 0,000 mm 0,0 UV-I 0 W/m 13,9 C 15,4 C 3,2 km/h (1 Bft) 97,87 %
16.09.2019 01:14 15,4 C 16,1 C 12,8 C 92 % 1020,0 hPa 0,0 l/m 0,9 km/h (0 Bft) SW 220 0 min 0,000 mm 0,0 UV-I 0 W/m 14,1 C 15,4 C 1,6 km/h (1 Bft) 97,87 %
16.09.2019 01:16 15,3 C 16,1 C 12,8 C 92 % 1019,9 hPa 0,0 l/m 0,2 km/h (0 Bft) SW 220 0 min 0,000 mm 0,0 UV-I 0 W/m 14,0 C 15,3 C 1,6 km/h (1 Bft) 96,00 %
16.09.2019 01:18 15,3 C 16,1 C 12,8 C 92 % 1019,9 hPa 0,0 l/m 1,0 km/h (0 Bft) SW 220 0 min 0,000 mm 0,0 UV-I 0 W/m 14,0 C 15,3 C 3,2 km/h (1 Bft) 95,74 %
16.09.2019 01:20 15,3 C 16,1 C 12,8 C 92 % 1019,9 hPa 0,0 l/m 2,4 km/h (1 Bft) SW 220 0 min 0,000 mm 0,0 UV-I 0 W/m 14,0 C 15,3 C 3,2 km/h (1 Bft) 95,12 %
16.09.2019 01:22 15,2 C 16,1 C 12,2 C 92 % 1019,9 hPa 0,0 l/m 2,7 km/h (1 Bft) SW 220 0 min 0,000 mm 0,0 UV-I 0 W/m 13,9 C 15,2 C 4,8 km/h (1 Bft) 95,74 %
16.09.2019 01:24 15,1 C 16,1 C 12,2 C 92 % 1019,8 hPa 0,0 l/m 1,4 km/h (1 Bft) SW 220 0 min 0,000 mm 0,0 UV-I 0 W/m 13,8 C 15,1 C 3,2 km/h (1 Bft) 93,62 %
16.09.2019 01:26 15,1 C 16,1 C 12,2 C 92 % 1019,8 hPa 0,0 l/m 1,8 km/h (1 Bft) SW 220 0 min 0,000 mm 0,0 UV-I 0 W/m 13,8 C 15,1 C 3,2 km/h (1 Bft) 95,74 %
16.09.2019 01:28 15,1 C 16,1 C 12,2 C 93 % 1019,8 hPa 0,0 l/m 1,8 km/h (1 Bft) SW 220 0 min 0,000 mm 0,0 UV-I 0 W/m 14,0 C 15,1 C 3,2 km/h (1 Bft) 97,87 %
16.09.2019 01:30 15,1 C 16,1 C 12,2 C 93 % 1019,7 hPa 0,0 l/m 1,8 km/h (1 Bft) SW 220 0 min 0,000 mm 0,0 UV-I 0 W/m 14,0 C 15,1 C 3,2 km/h (1 Bft) 95,74 %
16.09.2019 01:32 14,9 C 16,1 C 12,2 C 92 % 1019,7 hPa 0,0 l/m 2,0 km/h (1 Bft) SW 220 0 min 0,000 mm 0,0 UV-I 0 W/m 13,6 C 14,9 C 3,2 km/h (1 Bft) 98,00 %
16.09.2019 01:34 15,0 C 16,1 C 12,2 C 93 % 1019,7 hPa 0,0 l/m 2,2 km/h (1 Bft) SW 220 0 min 0,000 mm 0,0 UV-I 0 W/m 13,9 C 15,0 C 3,2 km/h (1 Bft) 97,92 %
16.09.2019 01:36 15,1 C 16,1 C 12,2 C 93 % 1019,7 hPa 0,0 l/m 0,4 km/h (0 Bft) SW 220 0 min 0,000 mm 0,0 UV-I 0 W/m 14,0 C 15,1 C 1,6 km/h (1 Bft) 97,87 %
16.09.2019 01:38 15,1 C 16,1 C 12,2 C 93 % 1019,7 hPa 0,0 l/m 1,6 km/h (1 Bft) SW 220 0 min 0,000 mm 0,0 UV-I 0 W/m 14,0 C 15,1 C 3,2 km/h (1 Bft) 97,87 %
16.09.2019 01:40 15,0 C 16,1 C 12,2 C 92 % 1019,6 hPa 0,0 l/m 2,9 km/h (1 Bft) SW 220 0 min 0,000 mm 0,0 UV-I 0 W/m 13,7 C 15,0 C 4,8 km/h (1 Bft) 97,87 %
16.09.2019 01:42 14,8 C 16,1 C 12,8 C 92 % 1019,6 hPa 0,0 l/m 2,5 km/h (1 Bft) SW 220 0 min 0,000 mm 0,0 UV-I 0 W/m 13,5 C 14,8 C 3,2 km/h (1 Bft) 95,74 %
16.09.2019 01:44 14,8 C 16,1 C 13,3 C 92 % 1019,6 hPa 0,0 l/m 3,8 km/h (1 Bft) S-SW 212 0 min 0,000 mm 0,0 UV-I 0 W/m 13,5 C 14,8 C 6,4 km/h (2 Bft) 95,74 %
16.09.2019 01:46 14,8 C 16,1 C 13,3 C 93 % 1019,6 hPa 0,0 l/m 3,2 km/h (1 Bft) S-SW 212 0 min 0,000 mm 0,0 UV-I 0 W/m 13,7 C 14,8 C 4,8 km/h (1 Bft) 94,29 %
16.09.2019 01:48 14,7 C 16,1 C 13,3 C 92 % 1019,6 hPa 0,0 l/m 3,5 km/h (1 Bft) S-SW 212 0 min 0,000 mm 0,0 UV-I 0 W/m 13,4 C 14,7 C 4,8 km/h (1 Bft) 96,00 %
16.09.2019 01:50 14,6 C 16,1 C 13,3 C 92 % 1019,6 hPa 0,0 l/m 4,8 km/h (1 Bft) S-SW 212 0 min 0,000 mm 0,0 UV-I 0 W/m 13,3 C 14,6 C 6,4 km/h (2 Bft) 93,62 %
16.09.2019 01:52 14,5 C 16,1 C 12,8 C 92 % 1019,5 hPa 0,0 l/m 3,6 km/h (1 Bft) S-SW 212 0 min 0,000 mm 0,0 UV-I 0 W/m 13,2 C 14,5 C 4,8 km/h (1 Bft) 95,74 %
16.09.2019 01:54 14,5 C 16,1 C 12,8 C 93 % 1019,5 hPa 0,0 l/m 2,3 km/h (1 Bft) S-SW 212 0 min 0,000 mm 0,0 UV-I 0 W/m 13,4 C 14,5 C 3,2 km/h (1 Bft) 95,74 %
16.09.2019 01:56 14,5 C 16,1 C 13,3 C 93 % 1019,5 hPa 0,0 l/m 3,1 km/h (1 Bft) S-SW 211 0 min 0,000 mm 0,0 UV-I 0 W/m 13,4 C 14,5 C 4,8 km/h (1 Bft) 97,87 %
16.09.2019 01:58 14,5 C 16,1 C 12,8 C 93 % 1019,5 hPa 0,0 l/m 5,1 km/h (1 Bft) S-SW 211 0 min 0,000 mm 0,0 UV-I 0 W/m 13,4 C 14,5 C 6,4 km/h (2 Bft) 95,74 %
16.09.2019 02:00 14,6 C 16,1 C 13,3 C 93 % 1019,5 hPa 0,0 l/m 3,9 km/h (1 Bft) S-SW 211 0 min 0,000 mm 0,0 UV-I 0 W/m 13,5 C 14,6 C 6,4 km/h (2 Bft) 95,74 %
16.09.2019 02:02 14,6 C 16,1 C 13,3 C 93 % 1019,4 hPa 0,0 l/m 3,3 km/h (1 Bft) S-SW 211 0 min 0,000 mm 0,0 UV-I 0 W/m 13,5 C 14,6 C 4,8 km/h (1 Bft) 93,62 %
16.09.2019 02:04 14,7 C 16,1 C 13,3 C 93 % 1019,4 hPa 0,0 l/m 4,6 km/h (1 Bft) S-SW 211 0 min 0,000 mm 0,0 UV-I 0 W/m 13,6 C 14,7 C 6,4 km/h (2 Bft) 93,62 %
16.09.2019 02:06 14,6 C 16,1 C 13,3 C 93 % 1019,4 hPa 0,0 l/m 4,3 km/h (1 Bft) S-SW 211 0 min 0,000 mm 0,0 UV-I 0 W/m 13,5 C 14,6 C 6,4 km/h (2 Bft) 94,00 %
16.09.2019 02:08 14,6 C 16,1 C 13,3 C 93 % 1019,3 hPa 0,0 l/m 3,6 km/h (1 Bft) S-SW 211 0 min 0,000 mm 0,0 UV-I 0 W/m 13,5 C 14,6 C 4,8 km/h (1 Bft) 96,00 %
16.09.2019 02:10 14,6 C 16,1 C 13,3 C 93 % 1019,3 hPa 0,0 l/m 3,6 km/h (1 Bft) S-SW 211 0 min 0,000 mm 0,0 UV-I 0 W/m 13,5 C 14,6 C 4,8 km/h (1 Bft) 93,62 %
16.09.2019 02:12 14,5 C 16,1 C 12,8 C 93 % 1019,4 hPa 0,0 l/m 4,7 km/h (1 Bft) S-SW 211 0 min 0,000 mm 0,0 UV-I 0 W/m 13,4 C 14,5 C 6,4 km/h (2 Bft) 91,49 %
16.09.2019 02:14 14,6 C 16,1 C 12,8 C 93 % 1019,4 hPa 0,0 l/m 3,6 km/h (1 Bft) S-SW 211 0 min 0,000 mm 0,0 UV-I 0 W/m 13,5 C 14,6 C 4,8 km/h (1 Bft) 97,22 %
16.09.2019 02:16 14,6 C 16,1 C 13,3 C 93 % 1019,3 hPa 0,0 l/m 3,6 km/h (1 Bft) S-SW 211 0 min 0,000 mm 0,0 UV-I 0 W/m 13,5 C 14,6 C 4,8 km/h (1 Bft) 98,00 %
16.09.2019 02:18 14,6 C 16,1 C 13,3 C 93 % 1019,3 hPa 0,0 l/m 3,7 km/h (1 Bft) S-SW 211 0 min 0,000 mm 0,0 UV-I 0 W/m 13,5 C 14,6 C 4,8 km/h (1 Bft) 97,87 %
16.09.2019 02:20 14,6 C 16,1 C 13,3 C 93 % 1019,3 hPa 0,0 l/m 3,4 km/h (1 Bft) S-SW 211 0 min 0,000 mm 0,0 UV-I 0 W/m 13,5 C 14,6 C 4,8 km/h (1 Bft) 95,74 %
16.09.2019 02:22 14,6 C 16,1 C 13,3 C 93 % 1019,3 hPa 0,0 l/m 3,5 km/h (1 Bft) S-SW 211 0 min 0,000 mm 0,0 UV-I 0 W/m 13,5 C 14,6 C 4,8 km/h (1 Bft) 96,23 %
16.09.2019 02:24 14,6 C 16,1 C 13,3 C 93 % 1019,3 hPa 0,0 l/m 3,2 km/h (1 Bft) S-SW 211 0 min 0,000 mm 0,0 UV-I 0 W/m 13,5 C 14,6 C 4,8 km/h (1 Bft) 97,37 %
16.09.2019 02:26 14,6 C 16,1 C 13,3 C 93 % 1019,2 hPa 0,0 l/m 3,6 km/h (1 Bft) S-SW 211 0 min 0,000 mm 0,0 UV-I 0 W/m 13,5 C 14,6 C 4,8 km/h (1 Bft) 95,74 %
16.09.2019 02:28 14,7 C 16,1 C 12,8 C 93 % 1019,3 hPa 0,0 l/m 2,9 km/h (1 Bft) S-SW 211 0 min 0,000 mm 0,0 UV-I 0 W/m 13,6 C 14,7 C 4,8 km/h (1 Bft) 97,87 %
16.09.2019 02:30 14,7 C 16,1 C 12,8 C 93 % 1019,2 hPa 0,0 l/m 3,5 km/h (1 Bft) S-SW 211 0 min 0,000 mm 0,0 UV-I 0 W/m 13,6 C 14,7 C 4,8 km/h (1 Bft) 95,74 %
16.09.2019 02:32 14,8 C 16,1 C 12,8 C 93 % 1019,3 hPa 0,0 l/m 3,2 km/h (1 Bft) S-SW 211 0 min 0,000 mm 0,0 UV-I 0 W/m 13,7 C 14,8 C 4,8 km/h (1 Bft) 97,87 %
16.09.2019 02:34 14,8 C 16,1 C 12,2 C 93 % 1019,2 hPa 0,0 l/m 3,7 km/h (1 Bft) SW 221 0 min 0,000 mm 0,0 UV-I 0 W/m 13,7 C 14,8 C 4,8 km/h (1 Bft) 97,92 %
16.09.2019 02:36 14,8 C 16,1 C 12,8 C 92 % 1019,2 hPa 0,0 l/m 3,4 km/h (1 Bft) SW 221 0 min 0,000 mm 0,0 UV-I 0 W/m 13,5 C 14,8 C 4,8 km/h (1 Bft) 97,87 %
16.09.2019 02:38 14,9 C 16,1 C 12,8 C 92 % 1019,2 hPa 0,0 l/m 3,4 km/h (1 Bft) SW 221 0 min 0,000 mm 0,0 UV-I 0 W/m 13,6 C 14,9 C 6,4 km/h (2 Bft) 98,00 %
16.09.2019 02:40 14,9 C 16,1 C 12,8 C 92 % 1019,2 hPa 0,0 l/m 2,7 km/h (1 Bft) SW 221 0 min 0,000 mm 0,0 UV-I 0 W/m 13,6 C 14,9 C 4,8 km/h (1 Bft) 100,00 %
16.09.2019 02:42 14,9 C 16,1 C 12,2 C 92 % 1019,2 hPa 0,0 l/m 2,3 km/h (1 Bft) SW 221 0 min 0,000 mm 0,0 UV-I 0 W/m 13,6 C 14,9 C 3,2 km/h (1 Bft) 97,44 %
16.09.2019 02:44 14,9 C 16,1 C 12,2 C 92 % 1019,2 hPa 0,0 l/m 1,3 km/h (1 Bft) SW 221 0 min 0,000 mm 0,0 UV-I 0 W/m 13,6 C 14,9 C 3,2 km/h (1 Bft) 97,87 %
16.09.2019 02:46 14,9 C 16,1 C 12,2 C 92 % 1019,2 hPa 0,0 l/m 1,4 km/h (1 Bft) SW 221 0 min 0,000 mm 0,0 UV-I 0 W/m 13,6 C 14,9 C 3,2 km/h (1 Bft) 100,00 %
16.09.2019 02:48 14,8 C 16,1 C 12,2 C 92 % 1019,2 hPa 0,0 l/m 1,7 km/h (1 Bft) SW 221 0 min 0,000 mm 0,0 UV-I 0 W/m 13,5 C 14,8 C 3,2 km/h (1 Bft) 100,00 %
16.09.2019 02:50 14,8 C 16,1 C 12,2 C 92 % 1019,2 hPa 0,0 l/m 2,0 km/h (1 Bft) SW 221 0 min 0,000 mm 0,0 UV-I 0 W/m 13,5 C 14,8 C 3,2 km/h (1 Bft) 97,87 %
16.09.2019 02:52 14,7 C 16,1 C 11,7 C 92 % 1019,2 hPa 0,0 l/m 0,5 km/h (0 Bft) SW 221 0 min 0,000 mm 0,0 UV-I 0 W/m 13,4 C 14,7 C 1,6 km/h (1 Bft) 100,00 %
16.09.2019 02:54 14,7 C 16,1 C 11,7 C 92 % 1019,2 hPa 0,0 l/m 0,8 km/h (0 Bft) SW 221 0 min 0,000 mm 0,0 UV-I 0 W/m 13,4 C 14,7 C 1,6 km/h (1 Bft) 100,00 %
16.09.2019 02:56 14,5 C 16,1 C 11,7 C 92 % 1019,2 hPa 0,0 l/m 1,2 km/h (1 Bft) SW 221 0 min 0,000 mm 0,0 UV-I 0 W/m 13,2 C 14,5 C 1,6 km/h (1 Bft) 95,74 %
16.09.2019 02:58 14,4 C 16,1 C 11,7 C 93 % 1019,2 hPa 0,0 l/m 1,6 km/h (1 Bft) SW 221 0 min 0,000 mm 0,0 UV-I 0 W/m 13,3 C 14,4 C 3,2 km/h (1 Bft) 100,00 %
16.09.2019 03:00 14,3 C 16,1 C 11,7 C 93 % 1019,2 hPa 0,0 l/m 1,9 km/h (1 Bft) SW 221 0 min 0,000 mm 0,0 UV-I 0 W/m 13,2 C 14,3 C 3,2 km/h (1 Bft) 97,87 %
16.09.2019 03:02 14,3 C 16,1 C 11,7 C 93 % 1019,2 hPa 0,0 l/m 1,0 km/h (0 Bft) SW 221 0 min 0,000 mm 0,0 UV-I 0 W/m 13,2 C 14,3 C 3,2 km/h (1 Bft) 95,74 %
16.09.2019 03:04 14,2 C 16,1 C 11,7 C 92 % 1019,2 hPa 0,0 l/m 0,0 km/h (0 Bft) SW 221 0 min 0,000 mm 0,0 UV-I 0 W/m 12,9 C 14,2 C 0,0 km/h (0 Bft) 97,87 %
16.09.2019 03:06 14,2 C 16,1 C 11,7 C 93 % 1019,2 hPa 0,0 l/m 0,1 km/h (0 Bft) SW 221 0 min 0,000 mm 0,0 UV-I 0 W/m 13,1 C 14,2 C 1,6 km/h (1 Bft) 95,74 %
16.09.2019 03:08 14,2 C 16,1 C 11,7 C 93 % 1019,2 hPa 0,0 l/m 0,0 km/h (0 Bft) SW 221 0 min 0,000 mm 0,0 UV-I 0 W/m 13,1 C 14,2 C 0,0 km/h (0 Bft) 96,23 %
16.09.2019 03:10 14,1 C 16,1 C 11,7 C 93 % 1019,2 hPa 0,0 l/m 0,1 km/h (0 Bft) SW 221 0 min 0,000 mm 0,0 UV-I 0 W/m 13,0 C 14,1 C 1,6 km/h (1 Bft) 97,87 %
16.09.2019 03:12 14,0 C 16,1 C 12,2 C 93 % 1019,3 hPa 0,0 l/m 2,4 km/h (1 Bft) SW 221 0 min 0,000 mm 0,0 UV-I 0 W/m 12,9 C 14,0 C 3,2 km/h (1 Bft) 95,74 %
16.09.2019 03:14 13,8 C 16,1 C 12,8 C 93 % 1019,3 hPa 0,0 l/m 2,4 km/h (1 Bft) SW 221 0 min 0,000 mm 0,0 UV-I 0 W/m 12,7 C 13,8 C 3,2 km/h (1 Bft) 95,74 %
16.09.2019 03:16 13,6 C 16,1 C 12,2 C 93 % 1019,3 hPa 0,0 l/m 1,8 km/h (1 Bft) SW 221 0 min 0,000 mm 0,0 UV-I 0 W/m 12,5 C 13,6 C 3,2 km/h (1 Bft) 97,37 %
16.09.2019 03:18 13,6 C 16,1 C 12,2 C 94 % 1019,3 hPa 0,0 l/m 1,6 km/h (1 Bft) SW 221 0 min 0,000 mm 0,0 UV-I 0 W/m 12,7 C 13,6 C 3,2 km/h (1 Bft) 97,87 %
16.09.2019 03:20 13,6 C 16,1 C 12,2 C 94 % 1019,3 hPa 0,0 l/m 0,8 km/h (0 Bft) SW 221 0 min 0,000 mm 0,0 UV-I 0 W/m 12,7 C 13,6 C 1,6 km/h (1 Bft) 97,87 %
16.09.2019 03:22 13,6 C 16,1 C 12,2 C 94 % 1019,2 hPa 0,0 l/m 0,6 km/h (0 Bft) SW 221 0 min 0,000 mm 0,0 UV-I 0 W/m 12,7 C 13,6 C 1,6 km/h (1 Bft) 96,00 %
16.09.2019 03:24 13,7 C 16,1 C 12,2 C 94 % 1019,3 hPa 0,0 l/m 0,4 km/h (0 Bft) SW 221 0 min 0,000 mm 0,0 UV-I 0 W/m 12,8 C 13,7 C 1,6 km/h (1 Bft) 95,74 %
16.09.2019 03:26 13,7 C 16,1 C 12,2 C 94 % 1019,2 hPa 0,0 l/m 0,4 km/h (0 Bft) SW 221 0 min 0,000 mm 0,0 UV-I 0 W/m 12,8 C 13,7 C 1,6 km/h (1 Bft) 97,92 %
16.09.2019 03:28 13,7 C 16,1 C 12,2 C 94 % 1019,2 hPa 0,0 l/m 1,6 km/h (1 Bft) SW 221 0 min 0,000 mm 0,0 UV-I 0 W/m 12,8 C 13,7 C 3,2 km/h (1 Bft) 91,84 %
16.09.2019 03:30 13,7 C 16,1 C 11,7 C 94 % 1019,2 hPa 0,0 l/m 2,0 km/h (1 Bft) SW 221 0 min 0,000 mm 0,0 UV-I 0 W/m 12,8 C 13,7 C 3,2 km/h (1 Bft) 97,92 %
16.09.2019 03:32 13,7 C 16,1 C 11,7 C 94 % 1019,1 hPa 0,0 l/m 1,9 km/h (1 Bft) SW 221 0 min 0,000 mm 0,0 UV-I 0 W/m 12,8 C 13,7 C 3,2 km/h (1 Bft) 100,00 %
16.09.2019 03:34 13,6 C 16,1 C 12,2 C 94 % 1019,1 hPa 0,0 l/m 2,1 km/h (1 Bft) SW 221 0 min 0,000 mm 0,0 UV-I 0 W/m 12,7 C 13,6 C 3,2 km/h (1 Bft) 100,00 %
16.09.2019 03:36 13,5 C 16,1 C 12,2 C 94 % 1019,2 hPa 0,0 l/m 2,4 km/h (1 Bft) SW 221 0 min 0,000 mm 0,0 UV-I 0 W/m 12,6 C 13,5 C 3,2 km/h (1 Bft) 98,00 %
16.09.2019 03:38 13,4 C 16,1 C 12,2 C 94 % 1019,1 hPa 0,0 l/m 2,2 km/h (1 Bft) SW 221 0 min 0,000 mm 0,0 UV-I 0 W/m 12,5 C 13,4 C 3,2 km/h (1 Bft) 100,00 %
16.09.2019 03:40 13,4 C 16,1 C 12,2 C 94 % 1019,1 hPa 0,0 l/m 2,4 km/h (1 Bft) SW 221 0 min 0,000 mm 0,0 UV-I 0 W/m 12,5 C 13,4 C 3,2 km/h (1 Bft) 100,00 %
16.09.2019 03:42 13,4 C 16,1 C 12,2 C 94 % 1019,1 hPa 0,0 l/m 2,6 km/h (1 Bft) SW 221 0 min 0,000 mm 0,0 UV-I 0 W/m 12,5 C 13,4 C 3,2 km/h (1 Bft) 100,00 %
16.09.2019 03:44 13,4 C 16,1 C 12,8 C 94 % 1019,1 hPa 0,0 l/m 2,6 km/h (1 Bft) SW 221 0 min 0,000 mm 0,0 UV-I 0 W/m 12,5 C 13,4 C 3,2 km/h (1 Bft) 100,00 %
16.09.2019 03:46 13,4 C 16,1 C 12,2 C 94 % 1019,0 hPa 0,0 l/m 2,0 km/h (1 Bft) SW 221 0 min 0,000 mm 0,0 UV-I 0 W/m 12,5 C 13,4 C 3,2 km/h (1 Bft) 100,00 %
16.09.2019 03:48 13,4 C 16,1 C 11,7 C 94 % 1019,1 hPa 0,0 l/m 1,8 km/h (1 Bft) SW 221 0 min 0,000 mm 0,0 UV-I 0 W/m 12,5 C 13,4 C 3,2 km/h (1 Bft) 100,00 %
16.09.2019 03:50 13,4 C 16,1 C 11,7 C 94 % 1019,1 hPa 0,0 l/m 1,9 km/h (1 Bft) SW 221 0 min 0,000 mm 0,0 UV-I 0 W/m 12,5 C 13,4 C 3,2 km/h (1 Bft) 100,00 %
16.09.2019 03:52 13,4 C 16,1 C 11,7 C 95 % 1019,0 hPa 0,0 l/m 2,1 km/h (1 Bft) SW 221 0 min 0,000 mm 0,0 UV-I 0 W/m 12,6 C 13,4 C 3,2 km/h (1 Bft) 100,00 %
16.09.2019 03:54 13,6 C 16,1 C 11,7 C 95 % 1019,1 hPa 0,0 l/m 1,2 km/h (1 Bft) SW 221 0 min 0,000 mm 0,0 UV-I 0 W/m 12,8 C 13,6 C 3,2 km/h (1 Bft) 100,00 %
16.09.2019 03:56 13,6 C 16,1 C 11,7 C 95 % 1019,1 hPa 0,0 l/m 0,7 km/h (0 Bft) SW 221 0 min 0,000 mm 0,0 UV-I 0 W/m 12,8 C 13,6 C 1,6 km/h (1 Bft) 100,00 %
16.09.2019 03:58 13,6 C 16,1 C 11,7 C 95 % 1019,1 hPa 0,0 l/m 1,9 km/h (1 Bft) SW 221 0 min 0,000 mm 0,0 UV-I 0 W/m 12,8 C 13,6 C 3,2 km/h (1 Bft) 100,00 %
16.09.2019 04:00 13,2 C 16,1 C 11,7 C 93 % 1019,2 hPa 0,0 l/m 2,6 km/h (1 Bft) SW 221 0 min 0,000 mm 0,0 UV-I 0 W/m 12,1 C 13,2 C 3,2 km/h (1 Bft) 100,00 %
16.09.2019 04:02 12,8 C 16,1 C 11,7 C 93 % 1019,3 hPa 0,0 l/m 3,2 km/h (1 Bft) SW 222 0 min 0,000 mm 0,0 UV-I 0 W/m 11,7 C 12,8 C 3,2 km/h (1 Bft) 96,67 %
16.09.2019 04:04 12,6 C 16,1 C 11,7 C 94 % 1019,3 hPa 0,0 l/m 3,0 km/h (1 Bft) SW 222 0 min 0,000 mm 0,0 UV-I 0 W/m 11,7 C 12,6 C 3,2 km/h (1 Bft) 100,00 %
16.09.2019 04:06 12,7 C 16,1 C 11,7 C 94 % 1019,2 hPa 0,0 l/m 1,5 km/h (1 Bft) SW 222 0 min 0,000 mm 0,0 UV-I 0 W/m 11,8 C 12,7 C 3,2 km/h (1 Bft) 100,00 %
16.09.2019 04:08 12,8 C 16,1 C 11,7 C 95 % 1019,2 hPa 0,0 l/m 0,5 km/h (0 Bft) SW 222 0 min 0,000 mm 0,0 UV-I 0 W/m 12,0 C 12,8 C 1,6 km/h (1 Bft) 97,87 %
16.09.2019 04:10 13,0 C 16,1 C 12,2 C 95 % 1019,1 hPa 0,0 l/m 1,4 km/h (1 Bft) SW 222 0 min 0,000 mm 0,0 UV-I 0 W/m 12,2 C 13,0 C 3,2 km/h (1 Bft) 95,74 %
16.09.2019 04:12 13,1 C 16,1 C 12,2 C 95 % 1019,1 hPa 0,0 l/m 2,7 km/h (1 Bft) SW 222 0 min 0,000 mm 0,0 UV-I 0 W/m 12,3 C 13,1 C 3,2 km/h (1 Bft) 93,62 %
16.09.2019 04:14 13,1 C 16,1 C 12,8 C 95 % 1019,0 hPa 0,0 l/m 2,9 km/h (1 Bft) SW 222 0 min 0,000 mm 0,0 UV-I 0 W/m 12,3 C 13,1 C 3,2 km/h (1 Bft) 98,00 %
16.09.2019 04:16 13,2 C 16,1 C 12,2 C 95 % 1019,0 hPa 0,0 l/m 2,0 km/h (1 Bft) SW 222 0 min 0,000 mm 0,0 UV-I 0 W/m 12,4 C 13,2 C 3,2 km/h (1 Bft) 97,87 %
16.09.2019 04:18 13,2 C 16,1 C 12,2 C 95 % 1019,0 hPa 0,0 l/m 3,1 km/h (1 Bft) SW 222 0 min 0,000 mm 0,0 UV-I 0 W/m 12,4 C 13,2 C 4,8 km/h (1 Bft) 93,62 %
16.09.2019 04:20 13,2 C 16,1 C 12,2 C 95 % 1019,0 hPa 0,0 l/m 2,9 km/h (1 Bft) SW 222 0 min 0,000 mm 0,0 UV-I 0 W/m 12,4 C 13,2 C 4,8 km/h (1 Bft) 97,87 %
16.09.2019 04:22 13,3 C 16,1 C 11,7 C 95 % 1019,0 hPa 0,0 l/m 1,3 km/h (1 Bft) SW 222 0 min 0,000 mm 0,0 UV-I 0 W/m 12,5 C 13,3 C 3,2 km/h (1 Bft) 97,37 %
16.09.2019 04:24 13,3 C 16,1 C 11,7 C 95 % 1019,0 hPa 0,0 l/m 0,8 km/h (0 Bft) SW 222 0 min 0,000 mm 0,0 UV-I 0 W/m 12,5 C 13,3 C 1,6 km/h (1 Bft) 95,74 %
16.09.2019 04:26 13,3 C 16,1 C 12,2 C 95 % 1019,0 hPa 0,0 l/m 1,3 km/h (1 Bft) SW 222 0 min 0,000 mm 0,0 UV-I 0 W/m 12,5 C 13,3 C 3,2 km/h (1 Bft) 95,74 %
16.09.2019 04:28 13,3 C 16,1 C 12,2 C 95 % 1018,9 hPa 0,0 l/m 2,6 km/h (1 Bft) SW 222 0 min 0,000 mm 0,0 UV-I 0 W/m 12,5 C 13,3 C 4,8 km/h (1 Bft) 95,74 %
16.09.2019 04:30 13,2 C 16,1 C 12,2 C 95 % 1018,9 hPa 0,0 l/m 4,7 km/h (1 Bft) SW 221 0 min 0,000 mm 0,0 UV-I 0 W/m 12,4 C 13,2 C 6,4 km/h (2 Bft) 93,62 %
16.09.2019 04:32 13,1 C 16,1 C 12,8 C 95 % 1019,0 hPa 0,0 l/m 2,8 km/h (1 Bft) SW 221 0 min 0,000 mm 0,0 UV-I 0 W/m 12,3 C 13,1 C 3,2 km/h (1 Bft) 94,00 %
16.09.2019 04:34 13,0 C 16,1 C 12,8 C 95 % 1018,9 hPa 0,0 l/m 4,2 km/h (1 Bft) SW 219 0 min 0,000 mm 0,0 UV-I 0 W/m 12,2 C 13,0 C 4,8 km/h (1 Bft) 93,88 %
16.09.2019 04:36 13,0 C 16,1 C 12,8 C 95 % 1018,9 hPa 0,0 l/m 3,5 km/h (1 Bft) SW 219 0 min 0,000 mm 0,0 UV-I 0 W/m 12,2 C 13,0 C 4,8 km/h (1 Bft) 89,36 %
16.09.2019 04:38 13,0 C 16,1 C 12,8 C 95 % 1018,9 hPa 0,0 l/m 3,8 km/h (1 Bft) SW 219 0 min 0,000 mm 0,0 UV-I 0 W/m 12,2 C 13,0 C 6,4 km/h (2 Bft) 93,62 %
16.09.2019 04:40 13,1 C 16,1 C 12,8 C 95 % 1018,9 hPa 0,0 l/m 3,9 km/h (1 Bft) SW 219 0 min 0,000 mm 0,0 UV-I 0 W/m 12,3 C 13,1 C 4,8 km/h (1 Bft) 89,36 %
16.09.2019 04:42 13,1 C 16,1 C 12,8 C 95 % 1018,9 hPa 0,0 l/m 2,6 km/h (1 Bft) SW 219 0 min 0,000 mm 0,0 UV-I 0 W/m 12,3 C 13,1 C 4,8 km/h (1 Bft) 93,75 %
16.09.2019 04:44 13,1 C 16,1 C 12,8 C 95 % 1018,9 hPa 0,0 l/m 1,9 km/h (1 Bft) SW 219 0 min 0,000 mm 0,0 UV-I 0 W/m 12,3 C 13,1 C 3,2 km/h (1 Bft) 95,92 %
16.09.2019 04:46 13,2 C 16,1 C 12,8 C 95 % 1018,9 hPa 0,0 l/m 4,0 km/h (1 Bft) SW 219 0 min 0,000 mm 0,0 UV-I 0 W/m 12,4 C 13,2 C 4,8 km/h (1 Bft) 95,74 %
16.09.2019 04:48 13,2 C 16,1 C 12,8 C 95 % 1018,8 hPa 0,0 l/m 1,2 km/h (1 Bft) SW 219 0 min 0,000 mm 0,0 UV-I 0 W/m 12,4 C 13,2 C 3,2 km/h (1 Bft) 95,12 %
16.09.2019 04:50 13,2 C 16,1 C 12,2 C 95 % 1018,8 hPa 0,0 l/m 3,0 km/h (1 Bft) SW 219 0 min 0,000 mm 0,0 UV-I 0 W/m 12,4 C 13,2 C 6,4 km/h (2 Bft) 93,62 %
16.09.2019 04:52 13,2 C 16,1 C 12,8 C 95 % 1018,8 hPa 0,0 l/m 4,0 km/h (1 Bft) S-SW 209 0 min 0,000 mm 0,0 UV-I 0 W/m 12,4 C 13,2 C 6,4 km/h (2 Bft) 93,62 %
16.09.2019 04:54 13,3 C 16,1 C 12,8 C 95 % 1018,8 hPa 0,0 l/m 3,5 km/h (1 Bft) S-SW 208 0 min 0,000 mm 0,0 UV-I 0 W/m 12,5 C 13,3 C 4,8 km/h (1 Bft) 97,87 %
16.09.2019 04:56 13,3 C 16,1 C 12,2 C 95 % 1018,8 hPa 0,0 l/m 3,6 km/h (1 Bft) S-SW 210 0 min 0,000 mm 0,0 UV-I 0 W/m 12,5 C 13,3 C 4,8 km/h (1 Bft) 97,87 %
16.09.2019 04:58 13,3 C 16,1 C 12,2 C 95 % 1018,8 hPa 0,0 l/m 4,7 km/h (1 Bft) S-SW 202 0 min 0,000 mm 0,0 UV-I 0 W/m 12,5 C 13,3 C 6,4 km/h (2 Bft) 92,00 %
16.09.2019 05:00 13,4 C 16,1 C 12,8 C 95 % 1018,7 hPa 0,0 l/m 5,2 km/h (1 Bft) S-SW 209 0 min 0,000 mm 0,0 UV-I 0 W/m 12,6 C 13,4 C 8,0 km/h (2 Bft) 97,96 %
16.09.2019 05:02 13,6 C 16,1 C 12,8 C 95 % 1018,7 hPa 0,0 l/m 5,1 km/h (1 Bft) S 183 0 min 0,000 mm 0,0 UV-I 0 W/m 12,8 C 13,6 C 8,0 km/h (2 Bft) 97,87 %
16.09.2019 05:04 13,6 C 16,1 C 12,8 C 95 % 1018,7 hPa 0,0 l/m 4,6 km/h (1 Bft) S 178 0 min 0,000 mm 0,0 UV-I 0 W/m 12,8 C 13,6 C 8,0 km/h (2 Bft) 97,87 %
16.09.2019 05:06 13,7 C 16,1 C 12,8 C 95 % 1018,6 hPa 0,0 l/m 4,7 km/h (1 Bft) S-SW 209 0 min 0,000 mm 0,0 UV-I 0 W/m 12,9 C 13,7 C 8,0 km/h (2 Bft) 97,87 %
16.09.2019 05:08 13,7 C 16,1 C 12,8 C 95 % 1018,6 hPa 0,0 l/m 4,0 km/h (1 Bft) S-SW 204 0 min 0,000 mm 0,0 UV-I 0 W/m 12,9 C 13,7 C 6,4 km/h (2 Bft) 93,62 %
16.09.2019 05:10 13,8 C 16,1 C 12,8 C 95 % 1018,6 hPa 0,0 l/m 4,5 km/h (1 Bft) S-SW 200 0 min 0,000 mm 0,0 UV-I 0 W/m 13,0 C 13,8 C 6,4 km/h (2 Bft) 97,87 %
16.09.2019 05:12 13,9 C 16,1 C 12,8 C 95 % 1018,6 hPa 0,0 l/m 4,2 km/h (1 Bft) S-SW 200 0 min 0,000 mm 0,0 UV-I 0 W/m 13,1 C 13,9 C 4,8 km/h (1 Bft) 93,62 %
16.09.2019 05:14 14,0 C 16,1 C 13,3 C 95 % 1018,6 hPa 0,0 l/m 5,2 km/h (1 Bft) S-SW 209 0 min 0,000 mm 0,0 UV-I 0 W/m 13,2 C 14,0 C 6,4 km/h (2 Bft) 97,87 %
16.09.2019 05:16 14,0 C 16,1 C 13,3 C 95 % 1018,6 hPa 0,0 l/m 4,7 km/h (1 Bft) S-SW 192 0 min 0,000 mm 0,0 UV-I 0 W/m 13,2 C 14,0 C 8,0 km/h (2 Bft) 97,22 %
16.09.2019 05:18 13,9 C 16,1 C 13,3 C 95 % 1018,7 hPa 0,0 l/m 3,2 km/h (1 Bft) S-SW 192 0 min 0,000 mm 0,0 UV-I 0 W/m 13,1 C 13,9 C 4,8 km/h (1 Bft) 97,87 %
16.09.2019 05:20 13,9 C 16,1 C 12,8 C 95 % 1018,6 hPa 0,0 l/m 3,4 km/h (1 Bft) S-SW 192 0 min 0,000 mm 0,0 UV-I 0 W/m 13,1 C 13,9 C 4,8 km/h (1 Bft) 94,34 %
16.09.2019 05:22 13,9 C 16,1 C 12,8 C 95 % 1018,7 hPa 0,0 l/m 4,1 km/h (1 Bft) S-SW 202 0 min 0,000 mm 0,0 UV-I 0 W/m 13,1 C 13,9 C 6,4 km/h (2 Bft) 97,87 %
16.09.2019 05:24 14,0 C 16,1 C 12,2 C 95 % 1018,7 hPa 0,0 l/m 2,1 km/h (1 Bft) S-SW 202 0 min 0,000 mm 0,0 UV-I 0 W/m 13,2 C 14,0 C 4,8 km/h (1 Bft) 93,62 %
16.09.2019 05:26 14,1 C 16,1 C 12,8 C 95 % 1018,7 hPa 0,0 l/m 2,8 km/h (1 Bft) S-SW 202 0 min 0,000 mm 0,0 UV-I 0 W/m 13,3 C 14,1 C 4,8 km/h (1 Bft) 97,87 %
16.09.2019 05:28 14,1 C 16,1 C 12,8 C 95 % 1018,7 hPa 0,0 l/m 2,9 km/h (1 Bft) N-NW 331 0 min 0,000 mm 0,0 UV-I 0 W/m 13,3 C 14,1 C 4,8 km/h (1 Bft) 97,87 %
16.09.2019 05:30 13,6 C 16,1 C 12,2 C 94 % 1018,7 hPa 0,0 l/m 3,7 km/h (1 Bft) N-NW 331 0 min 0,000 mm 0,0 UV-I 0 W/m 12,7 C 13,6 C 4,8 km/h (1 Bft) 97,87 %
16.09.2019 05:32 13,2 C 16,1 C 12,2 C 93 % 1018,7 hPa 0,0 l/m 1,6 km/h (1 Bft) N-NW 331 0 min 0,000 mm 0,0 UV-I 0 W/m 12,1 C 13,2 C 3,2 km/h (1 Bft) 98,00 %
16.09.2019 05:34 13,1 C 16,1 C 12,2 C 94 % 1018,7 hPa 0,0 l/m 3,0 km/h (1 Bft) N-NW 329 0 min 0,000 mm 0,0 UV-I 0 W/m 12,2 C 13,1 C 4,8 km/h (1 Bft) 97,87 %
16.09.2019 05:36 13,3 C 16,1 C 12,2 C 95 % 1018,7 hPa 0,0 l/m 3,0 km/h (1 Bft) N-NW 329 0 min 0,000 mm 0,0 UV-I 0 W/m 12,5 C 13,3 C 4,8 km/h (1 Bft) 100,00 %
16.09.2019 05:38 13,4 C 16,1 C 12,2 C 95 % 1018,6 hPa 0,0 l/m 3,1 km/h (1 Bft) N-NW 329 0 min 0,000 mm 0,0 UV-I 0 W/m 12,6 C 13,4 C 4,8 km/h (1 Bft) 97,37 %
16.09.2019 05:40 13,4 C 16,1 C 12,2 C 95 % 1018,6 hPa 0,0 l/m 3,9 km/h (1 Bft) W 261 0 min 0,000 mm 0,0 UV-I 0 W/m 12,6 C 13,4 C 4,8 km/h (1 Bft) 100,00 %
16.09.2019 05:42 13,4 C 16,1 C 12,2 C 95 % 1018,6 hPa 0,0 l/m 3,4 km/h (1 Bft) SW 226 0 min 0,000 mm 0,0 UV-I 0 W/m 12,6 C 13,4 C 4,8 km/h (1 Bft) 100,00 %
16.09.2019 05:44 13,3 C 16,1 C 12,2 C 95 % 1018,6 hPa 0,0 l/m 2,8 km/h (1 Bft) SW 226 0 min 0,000 mm 0,0 UV-I 0 W/m 12,5 C 13,3 C 4,8 km/h (1 Bft) 100,00 %
16.09.2019 05:46 13,3 C 16,1 C 12,2 C 95 % 1018,7 hPa 0,0 l/m 2,0 km/h (1 Bft) SW 227 0 min 0,000 mm 0,0 UV-I 0 W/m 12,5 C 13,3 C 3,2 km/h (1 Bft) 100,00 %
16.09.2019 05:48 13,4 C 16,1 C 12,2 C 95 % 1018,7 hPa 0,0 l/m 2,9 km/h (1 Bft) W 261 0 min 0,000 mm 0,0 UV-I 0 W/m 12,6 C 13,4 C 4,8 km/h (1 Bft) 100,00 %
16.09.2019 05:50 13,4 C 16,1 C 12,8 C 95 % 1018,7 hPa 0,0 l/m 2,5 km/h (1 Bft) W 261 0 min 0,000 mm 0,0 UV-I 0 W/m 12,6 C 13,4 C 3,2 km/h (1 Bft) 100,00 %
16.09.2019 05:52 13,2 C 16,1 C 12,2 C 95 % 1018,7 hPa 0,0 l/m 1,3 km/h (1 Bft) W 261 0 min 0,000 mm 0,0 UV-I 0 W/m 12,4 C 13,2 C 3,2 km/h (1 Bft) 97,87 %
16.09.2019 05:54 13,1 C 16,1 C 12,2 C 95 % 1018,6 hPa 0,0 l/m 1,5 km/h (1 Bft) W 262 0 min 0,000 mm 0,0 UV-I 0 W/m 12,3 C 13,1 C 3,2 km/h (1 Bft) 94,00 %
16.09.2019 05:56 13,1 C 16,1 C 12,2 C 95 % 1018,6 hPa 0,0 l/m 3,6 km/h (1 Bft) N-NW 340 0 min 0,000 mm 0,0 UV-I 0 W/m 12,3 C 13,1 C 4,8 km/h (1 Bft) 97,87 %
16.09.2019 05:58 13,0 C 16,1 C 12,2 C 95 % 1018,6 hPa 0,0 l/m 2,6 km/h (1 Bft) N-NW 340 0 min 0,000 mm 0,0 UV-I 0 W/m 12,2 C 13,0 C 3,2 km/h (1 Bft) 97,92 %
16.09.2019 06:00 13,0 C 16,1 C 12,2 C 95 % 1018,6 hPa 0,0 l/m 2,0 km/h (1 Bft) N-NW 340 0 min 0,000 mm 0,0 UV-I 0 W/m 12,2 C 13,0 C 3,2 km/h (1 Bft) 97,87 %
16.09.2019 06:02 13,1 C 16,1 C 12,2 C 96 % 1018,6 hPa 0,0 l/m 2,3 km/h (1 Bft) N-NW 340 0 min 0,000 mm 0,0 UV-I 0 W/m 12,5 C 13,1 C 3,2 km/h (1 Bft) 95,74 %
16.09.2019 06:04 13,2 C 16,1 C 12,2 C 96 % 1018,6 hPa 0,0 l/m 0,5 km/h (0 Bft) N-NW 340 0 min 0,000 mm 0,0 UV-I 0 W/m 12,6 C 13,2 C 1,6 km/h (1 Bft) 97,87 %
16.09.2019 06:06 13,3 C 16,1 C 12,2 C 96 % 1018,6 hPa 0,0 l/m 0,9 km/h (0 Bft) N-NW 340 0 min 0,000 mm 0,0 UV-I 0 W/m 12,7 C 13,3 C 3,2 km/h (1 Bft) 95,74 %
16.09.2019 06:08 13,4 C 16,1 C 12,2 C 96 % 1018,6 hPa 0,0 l/m 0,7 km/h (0 Bft) N-NW 340 0 min 0,000 mm 0,0 UV-I 0 W/m 12,8 C 13,4 C 1,6 km/h (1 Bft) 97,14 %
16.09.2019 06:10 13,4 C 16,1 C 12,8 C 96 % 1018,6 hPa 0,0 l/m 0,0 km/h (0 Bft) N-NW 340 0 min 0,000 mm 0,0 UV-I 0 W/m 12,8 C 13,4 C 1,6 km/h (1 Bft) 97,87 %
16.09.2019 06:12 13,3 C 16,1 C 12,8 C 96 % 1018,7 hPa 0,0 l/m 0,4 km/h (0 Bft) N-NW 340 0 min 0,000 mm 0,0 UV-I 0 W/m 12,7 C 13,3 C 1,6 km/h (1 Bft) 97,87 %
16.09.2019 06:14 13,4 C 16,1 C 12,8 C 96 % 1018,7 hPa 0,0 l/m 0,3 km/h (0 Bft) N-NW 340 0 min 0,000 mm 0,0 UV-I 0 W/m 12,8 C 13,4 C 1,6 km/h (1 Bft) 97,87 %
16.09.2019 06:16 13,4 C 16,1 C 13,3 C 96 % 1018,7 hPa 0,0 l/m 0,8 km/h (0 Bft) N-NW 340 0 min 0,000 mm 0,0 UV-I 0 W/m 12,8 C 13,4 C 1,6 km/h (1 Bft) 95,74 %
16.09.2019 06:18 13,5 C 16,1 C 13,3 C 96 % 1018,7 hPa 0,0 l/m 0,9 km/h (0 Bft) N-NW 340 0 min 0,000 mm 0,0 UV-I 0 W/m 12,9 C 13,5 C 1,6 km/h (1 Bft) 95,74 %
16.09.2019 06:20 13,6 C 16,1 C 13,3 C 96 % 1018,7 hPa 0,0 l/m 1,6 km/h (1 Bft) N-NW 340 0 min 0,000 mm 0,0 UV-I 0 W/m 13,0 C 13,6 C 3,2 km/h (1 Bft) 97,87 %
16.09.2019 06:22 13,5 C 16,1 C 13,3 C 96 % 1018,6 hPa 0,0 l/m 1,8 km/h (1 Bft) N-NW 340 0 min 0,000 mm 0,0 UV-I 0 W/m 12,9 C 13,5 C 3,2 km/h (1 Bft) 97,87 %
16.09.2019 06:24 13,6 C 16,1 C 13,3 C 96 % 1018,7 hPa 0,0 l/m 1,1 km/h (1 Bft) N-NW 340 0 min 0,000 mm 0,0 UV-I 0 W/m 13,0 C 13,6 C 1,6 km/h (1 Bft) 96,00 %
16.09.2019 06:26 13,5 C 16,1 C 13,3 C 96 % 1018,6 hPa 0,0 l/m 1,5 km/h (1 Bft) N-NW 340 0 min 0,000 mm 0,0 UV-I 0 W/m 12,9 C 13,5 C 1,6 km/h (1 Bft) 95,74 %
16.09.2019 06:28 13,5 C 16,1 C 12,8 C 96 % 1018,7 hPa 0,0 l/m 0,8 km/h (0 Bft) N-NW 340 0 min 0,000 mm 0,0 UV-I 0 W/m 12,9 C 13,5 C 1,6 km/h (1 Bft) 96,00 %
16.09.2019 06:30 13,4 C 16,1 C 12,8 C 96 % 1018,7 hPa 0,0 l/m 0,0 km/h (0 Bft) N-NW 340 0 min 0,000 mm 0,0 UV-I 0 W/m 12,8 C 13,4 C 0,0 km/h (0 Bft) 97,87 %
16.09.2019 06:32 13,5 C 16,1 C 12,2 C 96 % 1018,7 hPa 0,0 l/m 1,2 km/h (1 Bft) N-NW 340 0 min 0,000 mm 0,0 UV-I 2 W/m 12,9 C 13,5 C 3,2 km/h (1 Bft) 97,87 %
16.09.2019 06:34 13,4 C 16,1 C 12,8 C 96 % 1018,7 hPa 0,0 l/m 1,6 km/h (1 Bft) N-NW 340 0 min 0,000 mm 0,0 UV-I 5 W/m 12,8 C 13,4 C 3,2 km/h (1 Bft) 97,87 %
16.09.2019 06:36 13,3 C 16,1 C 12,2 C 96 % 1018,7 hPa 0,0 l/m 0,1 km/h (0 Bft) N-NW 340 0 min 0,000 mm 0,0 UV-I 5 W/m 12,7 C 13,3 C 1,6 km/h (1 Bft) 97,92 %
16.09.2019 06:38 13,3 C 16,1 C 12,2 C 96 % 1018,7 hPa 0,0 l/m 1,4 km/h (1 Bft) N-NW 340 0 min 0,000 mm 0,0 UV-I 5 W/m 12,7 C 13,3 C 3,2 km/h (1 Bft) 97,87 %
16.09.2019 06:40 13,2 C 16,1 C 12,2 C 95 % 1018,7 hPa 0,0 l/m 2,9 km/h (1 Bft) N-NW 340 0 min 0,000 mm 0,0 UV-I 7 W/m 12,4 C 13,2 C 4,8 km/h (1 Bft) 95,74 %
16.09.2019 06:42 13,1 C 16,1 C 12,2 C 95 % 1018,7 hPa 0,0 l/m 2,3 km/h (1 Bft) N-NW 340 0 min 0,000 mm 0,0 UV-I 7 W/m 12,3 C 13,1 C 3,2 km/h (1 Bft) 97,37 %
16.09.2019 06:44 13,1 C 16,1 C 12,8 C 96 % 1018,7 hPa 0,0 l/m 1,2 km/h (1 Bft) N-NW 340 0 min 0,000 mm 0,0 UV-I 7 W/m 12,5 C 13,1 C 3,2 km/h (1 Bft) 93,62 %
16.09.2019 06:46 13,2 C 16,1 C 12,8 C 96 % 1018,8 hPa 0,0 l/m 0,7 km/h (0 Bft) N-NW 340 0 min 0,000 mm 0,0 UV-I 8 W/m 12,6 C 13,2 C 1,6 km/h (1 Bft) 93,62 %
16.09.2019 06:48 13,3 C 16,1 C 13,3 C 96 % 1018,8 hPa 0,0 l/m 0,1 km/h (0 Bft) N-NW 340 0 min 0,000 mm 0,0 UV-I 9 W/m 12,7 C 13,3 C 1,6 km/h (1 Bft) 95,74 %
16.09.2019 06:50 13,4 C 16,1 C 13,9 C 96 % 1018,8 hPa 0,0 l/m 2,4 km/h (1 Bft) N-NW 340 0 min 0,000 mm 0,0 UV-I 9 W/m 12,8 C 13,4 C 3,2 km/h (1 Bft) 97,87 %
16.09.2019 06:52 13,4 C 16,1 C 13,9 C 96 % 1018,7 hPa 0,0 l/m 2,6 km/h (1 Bft) N-NW 340 0 min 0,000 mm 0,0 UV-I 9 W/m 12,8 C 13,4 C 3,2 km/h (1 Bft) 97,87 %
16.09.2019 06:54 13,5 C 16,1 C 13,9 C 96 % 1018,8 hPa 0,0 l/m 2,4 km/h (1 Bft) N-NW 340 0 min 0,000 mm 0,0 UV-I 9 W/m 12,9 C 13,5 C 3,2 km/h (1 Bft) 100,00 %
16.09.2019 06:56 13,6 C 16,1 C 13,9 C 96 % 1018,7 hPa 0,0 l/m 1,3 km/h (1 Bft) N-NW 340 0 min 0,000 mm 0,0 UV-I 11 W/m 13,0 C 13,6 C 1,6 km/h (1 Bft) 97,87 %
16.09.2019 06:58 13,7 C 16,1 C 13,9 C 96 % 1018,7 hPa 0,0 l/m 0,4 km/h (0 Bft) S-SO 165 0 min 0,000 mm 0,0 UV-I 11 W/m 13,1 C 13,7 C 1,6 km/h (1 Bft) 97,87 %
16.09.2019 07:00 13,7 C 16,1 C 13,9 C 96 % 1018,7 hPa 0,0 l/m 2,5 km/h (1 Bft) S 169 0 min 0,000 mm 0,0 UV-I 12 W/m 13,1 C 13,7 C 6,4 km/h (2 Bft) 100,00 %
16.09.2019 07:02 13,8 C 16,1 C 13,9 C 96 % 1018,6 hPa 0,0 l/m 3,5 km/h (1 Bft) S 169 0 min 0,000 mm 0,0 UV-I 14 W/m 13,2 C 13,8 C 6,4 km/h (2 Bft) 93,62 %
16.09.2019 07:04 13,7 C 16,1 C 13,9 C 96 % 1018,7 hPa 0,0 l/m 1,6 km/h (1 Bft) S 169 0 min 0,000 mm 0,0 UV-I 19 W/m 13,1 C 13,7 C 3,2 km/h (1 Bft) 100,00 %
16.09.2019 07:06 13,7 C 16,1 C 13,9 C 96 % 1018,7 hPa 0,0 l/m 4,0 km/h (1 Bft) S 171 0 min 0,000 mm 0,0 UV-I 21 W/m 13,1 C 13,7 C 6,4 km/h (2 Bft) 97,87 %
16.09.2019 07:08 13,8 C 16,1 C 13,9 C 96 % 1018,6 hPa 0,0 l/m 4,1 km/h (1 Bft) S 174 0 min 0,000 mm 0,0 UV-I 20 W/m 13,2 C 13,8 C 6,4 km/h (2 Bft) 100,00 %
16.09.2019 07:10 13,9 C 16,1 C 13,9 C 96 % 1018,6 hPa 0,0 l/m 4,1 km/h (1 Bft) S 174 0 min 0,000 mm 0,0 UV-I 19 W/m 13,3 C 13,9 C 8,0 km/h (2 Bft) 97,87 %
16.09.2019 07:12 13,9 C 16,1 C 13,9 C 96 % 1018,6 hPa 0,0 l/m 4,6 km/h (1 Bft) S 174 0 min 0,000 mm 0,0 UV-I 21 W/m 13,3 C 13,9 C 8,0 km/h (2 Bft) 97,87 %
16.09.2019 07:14 14,1 C 16,1 C 14,4 C 96 % 1018,6 hPa 0,0 l/m 5,9 km/h (2 Bft) S 175 0 min 0,000 mm 0,0 UV-I 25 W/m 13,5 C 14,1 C 9,7 km/h (2 Bft) 100,00 %
16.09.2019 07:16 14,2 C 16,1 C 14,4 C 96 % 1018,6 hPa 0,0 l/m 2,6 km/h (1 Bft) S 175 0 min 0,000 mm 0,0 UV-I 29 W/m 13,6 C 14,2 C 3,2 km/h (1 Bft) 93,62 %
16.09.2019 07:18 14,2 C 16,1 C 13,9 C 96 % 1018,6 hPa 0,0 l/m 3,2 km/h (1 Bft) S 175 0 min 0,000 mm 0,0 UV-I 36 W/m 13,6 C 14,2 C 4,8 km/h (1 Bft) 97,87 %
16.09.2019 07:20 14,2 C 16,1 C 13,9 C 96 % 1018,6 hPa 0,0 l/m 1,5 km/h (1 Bft) S 175 0 min 0,000 mm 0,0 UV-I 37 W/m 13,6 C 14,2 C 3,2 km/h (1 Bft) 95,74 %
16.09.2019 07:22 14,3 C 16,1 C 13,9 C 96 % 1018,6 hPa 0,0 l/m 1,4 km/h (1 Bft) S 175 0 min 0,000 mm 0,0 UV-I 35 W/m 13,7 C 14,3 C 3,2 km/h (1 Bft) 95,74 %
16.09.2019 07:24 14,3 C 16,1 C 13,9 C 96 % 1018,6 hPa 0,0 l/m 3,0 km/h (1 Bft) S 175 0 min 0,000 mm 0,0 UV-I 40 W/m 13,7 C 14,3 C 4,8 km/h (1 Bft) 97,87 %
16.09.2019 07:26 14,3 C 16,1 C 13,9 C 96 % 1018,6 hPa 0,0 l/m 3,7 km/h (1 Bft) S-SW 195 0 min 0,000 mm 0,0 UV-I 47 W/m 13,7 C 14,3 C 4,8 km/h (1 Bft) 97,87 %
16.09.2019 07:28 14,2 C 16,1 C 13,9 C 96 % 1018,6 hPa 0,0 l/m 4,3 km/h (1 Bft) S-SW 196 2 min 0,000 mm 0,0 UV-I 75 W/m 13,6 C 14,2 C 4,8 km/h (1 Bft) 97,87 %
16.09.2019 07:30 14,2 C 16,1 C 13,9 C 96 % 1018,6 hPa 0,0 l/m 4,2 km/h (1 Bft) S-SW 196 2 min 0,000 mm 0,0 UV-I 73 W/m 13,6 C 14,2 C 6,4 km/h (2 Bft) 95,74 %
16.09.2019 07:32 14,2 C 16,1 C 13,9 C 95 % 1018,6 hPa 0,0 l/m 4,6 km/h (1 Bft) S 188 2 min 0,000 mm 0,0 UV-I 83 W/m 13,4 C 14,2 C 6,4 km/h (2 Bft) 97,87 %
16.09.2019 07:34 14,2 C 16,1 C 13,9 C 96 % 1018,6 hPa 0,0 l/m 5,3 km/h (1 Bft) S-SW 193 2 min 0,000 mm 0,0 UV-I 80 W/m 13,6 C 14,2 C 8,0 km/h (2 Bft) 97,37 %
16.09.2019 07:36 14,2 C 16,1 C 14,4 C 96 % 1018,5 hPa 0,0 l/m 5,4 km/h (1 Bft) S 185 2 min 0,000 mm 0,0 UV-I 81 W/m 13,6 C 14,2 C 8,0 km/h (2 Bft) 95,74 %
16.09.2019 07:38 14,3 C 16,1 C 14,4 C 96 % 1018,6 hPa 0,0 l/m 5,2 km/h (1 Bft) S 171 2 min 0,000 mm 0,0 UV-I 97 W/m 13,7 C 14,3 C 8,0 km/h (2 Bft) 93,62 %
16.09.2019 07:40 14,4 C 16,1 C 14,4 C 96 % 1018,5 hPa 0,0 l/m 5,0 km/h (1 Bft) S-SW 194 2 min 0,000 mm 0,0 UV-I 101 W/m 13,8 C 14,4 C 8,0 km/h (2 Bft) 95,74 %
16.09.2019 07:42 14,4 C 16,1 C 14,4 C 96 % 1018,4 hPa 0,0 l/m 4,0 km/h (1 Bft) S 185 2 min 0,000 mm 0,0 UV-I 108 W/m 13,8 C 14,4 C 6,4 km/h (2 Bft) 100,00 %
16.09.2019 07:44 14,6 C 16,1 C 14,4 C 96 % 1018,5 hPa 0,0 l/m 2,5 km/h (1 Bft) S 185 2 min 0,000 mm 0,0 UV-I 114 W/m 14,0 C 14,6 C 4,8 km/h (1 Bft) 100,00 %
16.09.2019 07:46 14,7 C 16,1 C 14,4 C 96 % 1018,5 hPa 0,0 l/m 3,9 km/h (1 Bft) S-SW 210 2 min 0,000 mm 0,0 UV-I 114 W/m 14,1 C 14,7 C 4,8 km/h (1 Bft) 100,00 %
16.09.2019 07:48 14,7 C 16,1 C 14,4 C 96 % 1018,5 hPa 0,0 l/m 4,7 km/h (1 Bft) S-SW 212 2 min 0,000 mm 0,0 UV-I 115 W/m 14,1 C 14,7 C 8,0 km/h (2 Bft) 98,00 %
16.09.2019 07:50 14,7 C 16,1 C 14,4 C 96 % 1018,5 hPa 0,0 l/m 3,2 km/h (1 Bft) S 186 2 min 0,000 mm 0,0 UV-I 116 W/m 14,1 C 14,7 C 4,8 km/h (1 Bft) 100,00 %
16.09.2019 07:52 14,8 C 16,1 C 14,4 C 96 % 1018,5 hPa 0,0 l/m 4,6 km/h (1 Bft) S-SW 192 2 min 0,000 mm 0,0 UV-I 113 W/m 14,2 C 14,8 C 8,0 km/h (2 Bft) 100,00 %
16.09.2019 07:54 14,9 C 16,1 C 14,4 C 96 % 1018,5 hPa 0,0 l/m 3,7 km/h (1 Bft) S-SW 192 2 min 0,000 mm 0,0 UV-I 134 W/m 14,3 C 14,9 C 6,4 km/h (2 Bft) 100,00 %
16.09.2019 07:56 15,0 C 16,1 C 15,0 C 95 % 1018,5 hPa 0,0 l/m 2,7 km/h (1 Bft) S-SW 196 2 min 0,000 mm 0,0 UV-I 136 W/m 14,2 C 15,0 C 4,8 km/h (1 Bft) 100,00 %
16.09.2019 07:58 15,1 C 16,1 C 15,0 C 96 % 1018,5 hPa 0,0 l/m 2,7 km/h (1 Bft) S-SW 196 2 min 0,000 mm 0,0 UV-I 144 W/m 14,5 C 15,1 C 4,8 km/h (1 Bft) 100,00 %
16.09.2019 08:00 15,1 C 16,1 C 15,0 C 95 % 1018,5 hPa 0,0 l/m 3,6 km/h (1 Bft) S-SW 200 2 min 0,051 mm 0,0 UV-I 148 W/m 14,3 C 15,1 C 4,8 km/h (1 Bft) 100,00 %
16.09.2019 08:02 15,2 C 16,1 C 15,0 C 95 % 1018,6 hPa 0,0 l/m 3,3 km/h (1 Bft) S-SW 201 2 min 0,000 mm 0,0 UV-I 153 W/m 14,4 C 15,2 C 6,4 km/h (2 Bft) 100,00 %
16.09.2019 08:04 15,2 C 16,1 C 15,0 C 95 % 1018,5 hPa 0,0 l/m 1,7 km/h (1 Bft) S-SW 206 2 min 0,000 mm 0,0 UV-I 159 W/m 14,4 C 15,2 C 3,2 km/h (1 Bft) 100,00 %
16.09.2019 08:06 15,2 C 16,1 C 15,0 C 94 % 1018,6 hPa 0,0 l/m 1,2 km/h (1 Bft) S-SW 206 2 min 0,000 mm 0,0 UV-I 165 W/m 14,2 C 15,2 C 3,2 km/h (1 Bft) 100,00 %
16.09.2019 08:08 15,3 C 16,1 C 15,0 C 95 % 1018,6 hPa 0,0 l/m 0,0 km/h (0 Bft) S-SW 206 2 min 0,000 mm 0,0 UV-I 175 W/m 14,5 C 15,3 C 0,0 km/h (0 Bft) 100,00 %
16.09.2019 08:10 15,3 C 16,1 C 15,0 C 95 % 1018,7 hPa 0,0 l/m 2,8 km/h (1 Bft) S-SW 206 2 min 0,000 mm 0,0 UV-I 176 W/m 14,5 C 15,3 C 4,8 km/h (1 Bft) 95,74 %
16.09.2019 08:12 15,4 C 16,1 C 15,0 C 94 % 1018,7 hPa 0,0 l/m 3,8 km/h (1 Bft) SW 220 2 min 0,000 mm 0,0 UV-I 173 W/m 14,4 C 15,4 C 6,4 km/h (2 Bft) 95,74 %
16.09.2019 08:14 15,4 C 16,1 C 15,0 C 94 % 1018,7 hPa 0,0 l/m 3,6 km/h (1 Bft) SW 220 0 min 0,000 mm 0,0 UV-I 79 W/m 14,4 C 15,4 C 4,8 km/h (1 Bft) 95,74 %
16.09.2019 08:16 15,4 C 16,1 C 15,0 C 94 % 1018,7 hPa 0,0 l/m 2,8 km/h (1 Bft) SW 220 0 min 0,000 mm 0,0 UV-I 97 W/m 14,4 C 15,4 C 3,2 km/h (1 Bft) 97,87 %
16.09.2019 08:18 15,4 C 16,1 C 15,6 C 94 % 1018,7 hPa 0,0 l/m 4,5 km/h (1 Bft) SW 220 2 min 0,000 mm 0,0 UV-I 182 W/m 14,4 C 15,4 C 6,4 km/h (2 Bft) 97,56 %
16.09.2019 08:20 15,6 C 16,1 C 15,6 C 94 % 1018,7 hPa 0,0 l/m 3,0 km/h (1 Bft) SW 220 2 min 0,000 mm 0,0 UV-I 213 W/m 14,6 C 15,6 C 4,8 km/h (1 Bft) 95,74 %
16.09.2019 08:22 15,7 C 16,1 C 16,1 C 94 % 1018,6 hPa 0,0 l/m 3,7 km/h (1 Bft) S-SW 201 2 min 0,000 mm 0,0 UV-I 216 W/m 14,7 C 15,7 C 6,4 km/h (2 Bft) 95,74 %
16.09.2019 08:24 15,8 C 16,1 C 16,1 C 94 % 1018,6 hPa 0,0 l/m 6,1 km/h (2 Bft) SW 217 2 min 0,000 mm 0,0 UV-I 209 W/m 14,8 C 15,8 C 8,0 km/h (2 Bft) 96,00 %
16.09.2019 08:26 15,9 C 16,1 C 16,7 C 94 % 1018,5 hPa 0,0 l/m 4,8 km/h (1 Bft) SW 220 2 min 0,000 mm 0,4 UV-I 216 W/m 14,9 C 15,9 C 6,4 km/h (2 Bft) 93,62 %
16.09.2019 08:28 16,1 C 16,1 C 16,7 C 94 % 1018,6 hPa 0,0 l/m 3,2 km/h (1 Bft) SW 219 2 min 0,000 mm 0,5 UV-I 206 W/m 15,1 C 16,1 C 6,4 km/h (2 Bft) 95,83 %
16.09.2019 08:30 16,2 C 16,1 C 16,7 C 93 % 1018,6 hPa 0,0 l/m 3,0 km/h (1 Bft) SW 221 2 min 0,000 mm 0,5 UV-I 240 W/m 15,1 C 16,2 C 4,8 km/h (1 Bft) 95,74 %
16.09.2019 08:32 16,2 C 16,1 C 16,7 C 93 % 1018,6 hPa 0,0 l/m 4,8 km/h (1 Bft) S-SW 207 2 min 0,000 mm 0,5 UV-I 174 W/m 15,1 C 16,2 C 8,0 km/h (2 Bft) 94,00 %
16.09.2019 08:34 16,2 C 16,1 C 16,7 C 93 % 1018,6 hPa 0,0 l/m 6,2 km/h (2 Bft) S-SW 207 0 min 0,000 mm 0,5 UV-I 140 W/m 15,1 C 16,2 C 8,0 km/h (2 Bft) 93,62 %
16.09.2019 08:35 16,2 C 16,1 C 16,7 C 93 % 1018,7 hPa 0,0 l/m 4,8 km/h (1 Bft) SW 225 0 min 0,000 mm 0,5 UV-I 135 W/m 15,1 C 16,2 C 8,0 km/h (2 Bft) 96,49 %
16.09.2019 08:38 16,3 C 16,1 C 17,2 C 93 % 1018,7 hPa 0,0 l/m 2,9 km/h (1 Bft) S-SW 209 3 min 0,000 mm 0,5 UV-I 174 W/m 15,2 C 16,3 C 4,8 km/h (1 Bft) 95,56 %
16.09.2019 08:40 16,3 C 16,1 C 17,2 C 93 % 1018,7 hPa 0,0 l/m 3,9 km/h (1 Bft) S-SW 209 2 min 0,000 mm 0,6 UV-I 252 W/m 15,2 C 16,3 C 4,8 km/h (1 Bft) 94,00 %
16.09.2019 08:42 16,4 C 16,1 C 17,2 C 92 % 1018,8 hPa 0,0 l/m 3,4 km/h (1 Bft) SW 231 0 min 0,000 mm 0,6 UV-I 152 W/m 15,1 C 16,4 C 6,4 km/h (2 Bft) 89,36 %
16.09.2019 08:44 16,4 C 16,1 C 17,2 C 92 % 1018,7 hPa 0,0 l/m 3,9 km/h (1 Bft) SW 233 0 min 0,000 mm 0,6 UV-I 117 W/m 15,1 C 16,4 C 4,8 km/h (1 Bft) 91,49 %
16.09.2019 08:46 16,4 C 16,1 C 17,2 C 92 % 1018,8 hPa 0,0 l/m 3,9 km/h (1 Bft) SW 233 0 min 0,000 mm 0,7 UV-I 122 W/m 15,1 C 16,4 C 4,8 km/h (1 Bft) 91,49 %
16.09.2019 08:48 16,4 C 16,1 C 17,2 C 92 % 1018,8 hPa 0,0 l/m 3,7 km/h (1 Bft) SW 233 0 min 0,000 mm 0,7 UV-I 151 W/m 15,1 C 16,4 C 4,8 km/h (1 Bft) 93,62 %
16.09.2019 08:50 16,6 C 16,1 C 17,2 C 92 % 1018,8 hPa 0,0 l/m 3,9 km/h (1 Bft) SW 234 2 min 0,000 mm 0,7 UV-I 307 W/m 15,3 C 16,6 C 6,4 km/h (2 Bft) 93,62 %
16.09.2019 08:52 16,7 C 16,1 C 17,8 C 92 % 1018,9 hPa 0,0 l/m 2,7 km/h (1 Bft) SW 234 2 min 0,000 mm 0,8 UV-I 326 W/m 15,4 C 16,7 C 4,8 km/h (1 Bft) 92,11 %
16.09.2019 08:54 17,0 C 16,1 C 17,8 C 92 % 1018,9 hPa 0,0 l/m 1,8 km/h (1 Bft) SW 234 2 min 0,000 mm 0,8 UV-I 258 W/m 15,7 C 17,0 C 3,2 km/h (1 Bft) 95,74 %
16.09.2019 08:56 17,1 C 16,1 C 17,8 C 91 % 1018,9 hPa 0,0 l/m 2,5 km/h (1 Bft) SW 234 0 min 0,000 mm 0,7 UV-I 130 W/m 15,6 C 17,1 C 4,8 km/h (1 Bft) 94,00 %
16.09.2019 08:58 17,1 C 16,1 C 17,8 C 91 % 1018,9 hPa 0,0 l/m 1,7 km/h (1 Bft) SW 234 0 min 0,000 mm 0,8 UV-I 123 W/m 15,6 C 17,1 C 3,2 km/h (1 Bft) 93,62 %
16.09.2019 09:00 17,2 C 16,1 C 17,8 C 91 % 1018,9 hPa 0,0 l/m 0,8 km/h (0 Bft) SW 234 0 min 0,101 mm 0,8 UV-I 180 W/m 15,7 C 17,2 C 3,2 km/h (1 Bft) 93,62 %
16.09.2019 09:02 17,3 C 16,1 C 17,8 C 91 % 1018,9 hPa 0,0 l/m 0,3 km/h (0 Bft) SW 234 2 min 0,000 mm 0,9 UV-I 266 W/m 15,8 C 17,3 C 1,6 km/h (1 Bft) 95,74 %
16.09.2019 09:04 17,3 C 16,1 C 17,8 C 91 % 1019,0 hPa 0,0 l/m 0,3 km/h (0 Bft) SW 234 2 min 0,000 mm 0,9 UV-I 329 W/m 15,8 C 17,3 C 1,6 km/h (1 Bft) 95,74 %
16.09.2019 09:06 17,5 C 16,1 C 18,3 C 90 % 1018,9 hPa 0,0 l/m 1,1 km/h (1 Bft) SW 234 2 min 0,000 mm 1,0 UV-I 340 W/m 15,8 C 17,5 C 3,2 km/h (1 Bft) 100,00 %
16.09.2019 09:08 17,6 C 16,1 C 18,3 C 89 % 1019,0 hPa 0,0 l/m 2,4 km/h (1 Bft) SW 234 2 min 0,000 mm 1,0 UV-I 351 W/m 15,8 C 17,6 C 3,2 km/h (1 Bft) 98,00 %
16.09.2019 09:10 17,7 C 16,1 C 18,3 C 89 % 1018,9 hPa 0,0 l/m 2,3 km/h (1 Bft) SW 234 2 min 0,000 mm 1,1 UV-I 363 W/m 15,9 C 17,7 C 3,2 km/h (1 Bft) 100,00 %
16.09.2019 09:12 17,8 C 16,1 C 18,3 C 89 % 1018,9 hPa 0,0 l/m 1,5 km/h (1 Bft) SW 234 2 min 0,000 mm 1,1 UV-I 369 W/m 16,0 C 17,8 C 3,2 km/h (1 Bft) 100,00 %
16.09.2019 09:14 17,8 C 16,1 C 18,9 C 89 % 1018,9 hPa 0,0 l/m 1,6 km/h (1 Bft) SW 234 2 min 0,000 mm 1,1 UV-I 383 W/m 16,0 C 17,8 C 6,4 km/h (2 Bft) 100,00 %
16.09.2019 09:16 18,1 C 16,1 C 18,9 C 88 % 1018,9 hPa 0,0 l/m 4,8 km/h (1 Bft) S-SW 198 2 min 0,000 mm 1,2 UV-I 396 W/m 16,1 C 18,1 C 6,4 km/h (2 Bft) 97,87 %
16.09.2019 09:18 18,2 C 16,1 C 18,9 C 88 % 1018,9 hPa 0,0 l/m 3,2 km/h (1 Bft) S-SW 198 2 min 0,000 mm 1,2 UV-I 419 W/m 16,2 C 18,2 C 4,8 km/h (1 Bft) 100,00 %
16.09.2019 09:20 18,3 C 16,1 C 19,4 C 87 % 1018,9 hPa 0,0 l/m 2,2 km/h (1 Bft) S-SW 200 2 min 0,000 mm 1,2 UV-I 418 W/m 16,1 C 18,3 C 4,8 km/h (1 Bft) 100,00 %
16.09.2019 09:22 18,3 C 16,1 C 19,4 C 87 % 1018,9 hPa 0,0 l/m 4,3 km/h (1 Bft) W-SW 246 2 min 0,000 mm 1,3 UV-I 409 W/m 16,1 C 18,3 C 6,4 km/h (2 Bft) 100,00 %
16.09.2019 09:24 18,5 C 16,1 C 19,4 C 87 % 1018,9 hPa 0,0 l/m 4,2 km/h (1 Bft) W-SW 252 2 min 0,000 mm 1,3 UV-I 401 W/m 16,3 C 18,5 C 6,4 km/h (2 Bft) 100,00 %
16.09.2019 09:26 18,7 C 16,1 C 18,9 C 86 % 1018,9 hPa 0,0 l/m 3,4 km/h (1 Bft) W-SW 245 2 min 0,000 mm 1,3 UV-I 396 W/m 16,3 C 18,7 C 6,4 km/h (2 Bft) 98,00 %
16.09.2019 09:28 18,8 C 16,1 C 18,9 C 86 % 1018,9 hPa 0,0 l/m 3,2 km/h (1 Bft) S-SW 207 2 min 0,000 mm 1,3 UV-I 404 W/m 16,4 C 18,8 C 4,8 km/h (1 Bft) 100,00 %
16.09.2019 09:30 18,9 C 16,1 C 19,4 C 85 % 1018,9 hPa 0,0 l/m 4,5 km/h (1 Bft) W-SW 248 2 min 0,000 mm 1,4 UV-I 409 W/m 16,3 C 18,9 C 11,3 km/h (2 Bft) 100,00 %
16.09.2019 09:32 18,9 C 16,1 C 19,4 C 84 % 1019,0 hPa 0,0 l/m 3,8 km/h (1 Bft) W-SW 249 2 min 0,000 mm 1,4 UV-I 413 W/m 16,1 C 18,9 C 8,0 km/h (2 Bft) 97,87 %
16.09.2019 09:34 18,9 C 16,1 C 19,4 C 85 % 1019,0 hPa 0,0 l/m 1,5 km/h (1 Bft) W-SW 249 2 min 0,000 mm 1,4 UV-I 413 W/m 16,3 C 18,9 C 3,2 km/h (1 Bft) 97,87 %
16.09.2019 09:36 19,0 C 16,1 C 19,4 C 84 % 1018,9 hPa 0,0 l/m 2,2 km/h (1 Bft) W-SW 248 2 min 0,000 mm 1,5 UV-I 419 W/m 16,2 C 19,0 C 4,8 km/h (1 Bft) 100,00 %
16.09.2019 09:38 19,2 C 16,1 C 19,4 C 85 % 1018,9 hPa 0,0 l/m 1,9 km/h (1 Bft) W-SW 249 2 min 0,000 mm 1,5 UV-I 421 W/m 16,6 C 19,2 C 3,2 km/h (1 Bft) 97,87 %
16.09.2019 09:40 19,2 C 16,1 C 19,4 C 84 % 1018,9 hPa 0,0 l/m 3,0 km/h (1 Bft) W 259 2 min 0,000 mm 1,5 UV-I 416 W/m 16,4 C 19,2 C 4,8 km/h (1 Bft) 100,00 %
16.09.2019 09:42 19,3 C 16,1 C 19,4 C 83 % 1018,9 hPa 0,0 l/m 3,7 km/h (1 Bft) W-NW 284 2 min 0,000 mm 1,6 UV-I 431 W/m 16,3 C 19,3 C 6,4 km/h (2 Bft) 100,00 %
16.09.2019 09:44 19,4 C 16,1 C 19,4 C 83 % 1018,9 hPa 0,0 l/m 2,9 km/h (1 Bft) W-NW 296 2 min 0,000 mm 1,6 UV-I 438 W/m 16,4 C 19,4 C 4,8 km/h (1 Bft) 100,00 %
16.09.2019 09:46 19,5 C 16,1 C 19,4 C 82 % 1019,0 hPa 0,0 l/m 4,7 km/h (1 Bft) W-NW 282 2 min 0,000 mm 1,6 UV-I 437 W/m 16,3 C 19,5 C 6,4 km/h (2 Bft) 100,00 %
16.09.2019 09:48 19,5 C 16,1 C 19,4 C 82 % 1019,0 hPa 0,0 l/m 3,5 km/h (1 Bft) N 349 2 min 0,000 mm 1,7 UV-I 441 W/m 16,3 C 19,5 C 6,4 km/h (2 Bft) 98,00 %
16.09.2019 09:50 19,7 C 16,1 C 19,4 C 83 % 1019,0 hPa 0,0 l/m 2,6 km/h (1 Bft) N 355 2 min 0,000 mm 1,7 UV-I 447 W/m 16,7 C 19,7 C 4,8 km/h (1 Bft) 100,00 %
16.09.2019 09:52 19,7 C 16,1 C 20,0 C 83 % 1019,0 hPa 0,0 l/m 3,3 km/h (1 Bft) W-NW 297 2 min 0,000 mm 1,7 UV-I 452 W/m 16,7 C 19,7 C 6,4 km/h (2 Bft) 100,00 %
16.09.2019 09:54 19,7 C 16,1 C 20,0 C 82 % 1019,0 hPa 0,0 l/m 2,0 km/h (1 Bft) W-NW 297 2 min 0,000 mm 1,8 UV-I 460 W/m 16,5 C 19,7 C 3,2 km/h (1 Bft) 100,00 %
16.09.2019 09:56 19,7 C 16,1 C 20,6 C 83 % 1019,1 hPa 0,0 l/m 3,0 km/h (1 Bft) N-NW 328 2 min 0,000 mm 1,8 UV-I 468 W/m 16,7 C 19,7 C 4,8 km/h (1 Bft) 100,00 %
16.09.2019 09:58 19,9 C 16,1 C 21,1 C 82 % 1019,1 hPa 0,0 l/m 4,9 km/h (1 Bft) N-NW 344 2 min 0,000 mm 1,9 UV-I 468 W/m 16,7 C 19,9 C 8,0 km/h (2 Bft) 100,00 %
16.09.2019 10:00 19,9 C 16,1 C 21,1 C 81 % 1019,1 hPa 0,0 l/m 4,1 km/h (1 Bft) N 350 2 min 0,229 mm 1,9 UV-I 473 W/m 16,5 C 19,9 C 4,8 km/h (1 Bft) 100,00 %
16.09.2019 10:02 20,1 C 16,1 C 21,1 C 81 % 1019,1 hPa 0,0 l/m 4,7 km/h (1 Bft) N-NW 346 2 min 0,000 mm 1,9 UV-I 473 W/m 16,7 C 20,1 C 8,0 km/h (2 Bft) 100,00 %
16.09.2019 10:04 20,1 C 16,1 C 21,1 C 80 % 1019,1 hPa 0,0 l/m 4,4 km/h (1 Bft) N 355 2 min 0,000 mm 2,0 UV-I 480 W/m 16,5 C 20,1 C 8,0 km/h (2 Bft) 100,00 %
16.09.2019 10:06 20,1 C 16,1 C 22,2 C 80 % 1019,0 hPa 0,0 l/m 2,7 km/h (1 Bft) W 265 2 min 0,000 mm 2,0 UV-I 485 W/m 16,5 C 20,1 C 9,7 km/h (2 Bft) 93,62 %
16.09.2019 10:08 20,0 C 16,1 C 22,2 C 79 % 1019,0 hPa 0,0 l/m 3,3 km/h (1 Bft) N-NW 329 2 min 0,000 mm 2,0 UV-I 483 W/m 16,2 C 20,0 C 8,0 km/h (2 Bft) 95,74 %
16.09.2019 10:10 19,9 C 16,1 C 23,3 C 81 % 1019,0 hPa 0,0 l/m 4,2 km/h (1 Bft) N 355 2 min 0,000 mm 2,1 UV-I 483 W/m 16,5 C 19,9 C 6,4 km/h (2 Bft) 95,74 %
16.09.2019 10:12 19,9 C 16,1 C 24,4 C 79 % 1019,1 hPa 0,0 l/m 4,6 km/h (1 Bft) N-NO 22 2 min 0,000 mm 2,1 UV-I 492 W/m 16,1 C 19,9 C 8,0 km/h (2 Bft) 95,74 %
16.09.2019 10:14 19,9 C 16,1 C 25,0 C 80 % 1019,0 hPa 0,0 l/m 5,2 km/h (1 Bft) NW 312 2 min 0,000 mm 2,1 UV-I 496 W/m 16,3 C 19,9 C 8,0 km/h (2 Bft) 95,74 %
16.09.2019 10:16 19,9 C 16,1 C 25,0 C 78 % 1019,0 hPa 0,0 l/m 6,4 km/h (2 Bft) W-SW 252 2 min 0,000 mm 2,2 UV-I 497 W/m 15,9 C 19,9 C 11,3 km/h (2 Bft) 95,74 %
16.09.2019 10:18 19,9 C 16,1 C 25,6 C 78 % 1019,0 hPa 0,0 l/m 6,1 km/h (2 Bft) W-SW 252 2 min 0,000 mm 2,2 UV-I 506 W/m 15,9 C 19,9 C 9,7 km/h (2 Bft) 96,00 %
16.09.2019 10:20 20,0 C 16,1 C 26,7 C 77 % 1018,9 hPa 0,0 l/m 3,8 km/h (1 Bft) NW 311 2 min 0,000 mm 2,2 UV-I 512 W/m 15,8 C 20,0 C 6,4 km/h (2 Bft) 95,74 %
16.09.2019 10:22 20,1 C 16,1 C 27,8 C 78 % 1019,0 hPa 0,0 l/m 3,3 km/h (1 Bft) N-NW 332 2 min 0,000 mm 2,3 UV-I 514 W/m 16,1 C 20,1 C 6,4 km/h (2 Bft) 95,74 %
16.09.2019 10:24 20,3 C 16,1 C 28,3 C 78 % 1018,9 hPa 0,0 l/m 3,2 km/h (1 Bft) N-NO 24 2 min 0,000 mm 2,3 UV-I 515 W/m 16,3 C 20,3 C 6,4 km/h (2 Bft) 93,75 %
16.09.2019 10:26 20,4 C 16,1 C 29,4 C 78 % 1018,9 hPa 0,0 l/m 3,2 km/h (1 Bft) N-NO 12 2 min 0,000 mm 2,3 UV-I 516 W/m 16,4 C 20,4 C 6,4 km/h (2 Bft) 95,74 %
16.09.2019 10:28 20,5 C 16,1 C 29,4 C 77 % 1018,9 hPa 0,0 l/m 4,9 km/h (1 Bft) N 10 2 min 0,000 mm 2,4 UV-I 375 W/m 16,3 C 20,5 C 8,0 km/h (2 Bft) 93,62 %
16.09.2019 10:30 20,5 C 16,1 C 30,6 C 77 % 1018,8 hPa 0,0 l/m 3,2 km/h (1 Bft) W-SW 244 2 min 0,000 mm 2,4 UV-I 488 W/m 16,3 C 20,5 C 6,4 km/h (2 Bft) 95,74 %
16.09.2019 10:32 20,6 C 16,1 C 31,1 C 76 % 1018,8 hPa 0,0 l/m 5,9 km/h (2 Bft) W-SW 248 2 min 0,000 mm 2,5 UV-I 500 W/m 16,2 C 20,6 C 11,3 km/h (2 Bft) 97,87 %
16.09.2019 10:34 20,5 C 16,1 C 31,1 C 75 % 1018,8 hPa 0,0 l/m 4,7 km/h (1 Bft) SW 236 2 min 0,000 mm 2,5 UV-I 494 W/m 15,9 C 20,5 C 8,0 km/h (2 Bft) 95,74 %
16.09.2019 10:36 20,6 C 16,1 C 32,2 C 75 % 1018,9 hPa 0,0 l/m 3,9 km/h (1 Bft) NW 320 2 min 0,000 mm 2,5 UV-I 515 W/m 16,0 C 20,6 C 6,4 km/h (2 Bft) 97,87 %
16.09.2019 10:38 20,6 C 16,1 C 32,2 C 75 % 1018,9 hPa 0,0 l/m 3,7 km/h (1 Bft) W 269 2 min 0,000 mm 2,6 UV-I 544 W/m 16,0 C 20,6 C 6,4 km/h (2 Bft) 97,87 %
16.09.2019 10:40 20,6 C 16,1 C 31,7 C 74 % 1018,9 hPa 0,0 l/m 5,8 km/h (2 Bft) W-NW 288 2 min 0,000 mm 2,6 UV-I 546 W/m 15,8 C 20,6 C 8,0 km/h (2 Bft) 97,87 %
16.09.2019 10:42 20,6 C 16,1 C 32,2 C 75 % 1018,8 hPa 0,0 l/m 5,0 km/h (1 Bft) W-SW 249 2 min 0,000 mm 2,7 UV-I 553 W/m 16,0 C 20,6 C 8,0 km/h (2 Bft) 97,87 %
16.09.2019 10:44 20,6 C 16,1 C 32,2 C 75 % 1018,8 hPa 0,0 l/m 3,5 km/h (1 Bft) W 281 2 min 0,000 mm 2,7 UV-I 556 W/m 16,0 C 20,6 C 6,4 km/h (2 Bft) 100,00 %
16.09.2019 10:46 20,7 C 16,1 C 32,2 C 77 % 1018,8 hPa 0,0 l/m 1,9 km/h (1 Bft) N 349 2 min 0,000 mm 2,4 UV-I 558 W/m 16,5 C 20,7 C 4,8 km/h (1 Bft) 100,00 %
16.09.2019 10:48 20,9 C 16,1 C 32,8 C 74 % 1018,7 hPa 0,0 l/m 1,1 km/h (1 Bft) N 360 2 min 0,000 mm 2,8 UV-I 560 W/m 16,1 C 20,9 C 4,8 km/h (1 Bft) 97,37 %
16.09.2019 10:50 21,2 C 16,1 C 33,9 C 76 % 1018,7 hPa 0,0 l/m 3,4 km/h (1 Bft) W-SW 250 2 min 0,000 mm 2,8 UV-I 505 W/m 16,8 C 21,2 C 6,4 km/h (2 Bft) 97,87 %
16.09.2019 10:52 21,3 C 16,1 C 33,3 C 74 % 1018,7 hPa 0,0 l/m 6,6 km/h (2 Bft) W 275 2 min 0,000 mm 2,8 UV-I 502 W/m 16,5 C 21,2 C 11,3 km/h (2 Bft) 100,00 %
16.09.2019 10:54 21,3 C 16,1 C 33,3 C 74 % 1018,6 hPa 0,0 l/m 4,7 km/h (1 Bft) W-SW 244 2 min 0,000 mm 2,9 UV-I 571 W/m 16,5 C 21,3 C 8,0 km/h (2 Bft) 100,00 %
16.09.2019 10:56 21,3 C 16,1 C 32,8 C 73 % 1018,6 hPa 0,0 l/m 5,4 km/h (1 Bft) W-SW 257 2 min 0,000 mm 2,9 UV-I 582 W/m 16,3 C 21,3 C 8,0 km/h (2 Bft) 100,00 %
16.09.2019 10:58 21,4 C 16,1 C 32,8 C 72 % 1018,6 hPa 0,0 l/m 4,9 km/h (1 Bft) W 269 2 min 0,000 mm 2,9 UV-I 572 W/m 16,1 C 21,4 C 11,3 km/h (2 Bft) 100,00 %
16.09.2019 11:00 21,3 C 16,1 C 32,8 C 72 % 1018,6 hPa 0,0 l/m 6,7 km/h (2 Bft) W 281 2 min 0,305 mm 3,0 UV-I 580 W/m 16,0 C 21,2 C 11,3 km/h (2 Bft) 100,00 %
16.09.2019 11:02 21,3 C 16,1 C 32,2 C 71 % 1018,6 hPa 0,0 l/m 10,0 km/h (2 Bft) W-SW 257 2 min 0,000 mm 3,0 UV-I 587 W/m 15,8 C 20,1 C 12,9 km/h (3 Bft) 100,00 %
16.09.2019 11:04 21,2 C 16,1 C 32,8 C 70 % 1018,5 hPa 0,0 l/m 3,1 km/h (1 Bft) W 281 2 min 0,000 mm 3,1 UV-I 598 W/m 15,5 C 21,2 C 4,8 km/h (1 Bft) 100,00 %
16.09.2019 11:06 21,4 C 16,1 C 33,9 C 71 % 1018,5 hPa 0,0 l/m 2,6 km/h (1 Bft) W-NW 282 2 min 0,000 mm 3,1 UV-I 604 W/m 15,9 C 21,4 C 4,8 km/h (1 Bft) 100,00 %
16.09.2019 11:08 21,6 C 16,1 C 33,9 C 72 % 1018,6 hPa 0,0 l/m 3,4 km/h (1 Bft) SW 222 2 min 0,000 mm 3,1 UV-I 606 W/m 16,3 C 21,6 C 6,4 km/h (2 Bft) 100,00 %
16.09.2019 11:10 21,7 C 16,1 C 33,9 C 72 % 1018,6 hPa 0,0 l/m 3,8 km/h (1 Bft) SW 223 2 min 0,000 mm 3,1 UV-I 613 W/m 16,4 C 21,7 C 6,4 km/h (2 Bft) 100,00 %
16.09.2019 11:12 21,8 C 16,1 C 33,9 C 70 % 1018,6 hPa 0,0 l/m 6,4 km/h (2 Bft) W-SW 240 2 min 0,000 mm 3,2 UV-I 618 W/m 16,1 C 21,8 C 14,5 km/h (3 Bft) 100,00 %
16.09.2019 11:14 21,9 C 16,1 C 33,9 C 69 % 1018,6 hPa 0,0 l/m 6,5 km/h (2 Bft) W-SW 256 2 min 0,000 mm 3,3 UV-I 622 W/m 15,9 C 21,9 C 9,7 km/h (2 Bft) 100,00 %
16.09.2019 11:16 22,0 C 16,1 C 33,9 C 69 % 1018,5 hPa 0,0 l/m 4,5 km/h (1 Bft) W-NW 296 2 min 0,000 mm 3,3 UV-I 605 W/m 16,0 C 22,0 C 6,4 km/h (2 Bft) 100,00 %
16.09.2019 11:18 22,0 C 16,1 C 33,9 C 69 % 1018,6 hPa 0,0 l/m 4,1 km/h (1 Bft) NW 306 2 min 0,000 mm 3,2 UV-I 594 W/m 16,0 C 22,0 C 6,4 km/h (2 Bft) 100,00 %
16.09.2019 11:20 21,9 C 16,1 C 33,9 C 69 % 1018,6 hPa 0,0 l/m 3,2 km/h (1 Bft) W-SW 243 2 min 0,000 mm 3,3 UV-I 592 W/m 15,9 C 21,9 C 8,0 km/h (2 Bft) 97,87 %
16.09.2019 11:22 21,9 C 16,1 C 33,9 C 68 % 1018,6 hPa 0,0 l/m 6,1 km/h (2 Bft) SW 228 2 min 0,000 mm 3,3 UV-I 610 W/m 15,7 C 21,9 C 12,9 km/h (3 Bft) 100,00 %
16.09.2019 11:24 22,0 C 16,1 C 34,4 C 69 % 1018,6 hPa 0,0 l/m 4,9 km/h (1 Bft) W-SW 254 2 min 0,000 mm 3,4 UV-I 623 W/m 16,0 C 22,0 C 8,0 km/h (2 Bft) 93,62 %
16.09.2019 11:26 22,0 C 16,1 C 34,4 C 69 % 1018,5 hPa 0,0 l/m 4,4 km/h (1 Bft) W-NW 285 2 min 0,000 mm 3,5 UV-I 642 W/m 16,0 C 22,0 C 6,4 km/h (2 Bft) 98,00 %
16.09.2019 11:28 22,1 C 16,1 C 34,4 C 69 % 1018,6 hPa 0,0 l/m 3,9 km/h (1 Bft) W-NW 288 2 min 0,000 mm 3,5 UV-I 627 W/m 16,1 C 22,1 C 8,0 km/h (2 Bft) 97,87 %
16.09.2019 11:30 22,2 C 16,1 C 34,4 C 69 % 1018,6 hPa 0,0 l/m 7,1 km/h (2 Bft) W 264 2 min 0,000 mm 3,5 UV-I 647 W/m 16,2 C 22,0 C 11,3 km/h (2 Bft) 100,00 %
16.09.2019 11:32 22,2 C 16,1 C 33,9 C 69 % 1018,6 hPa 0,0 l/m 9,7 km/h (2 Bft) W-SW 242 2 min 0,000 mm 3,5 UV-I 652 W/m 16,2 C 21,2 C 14,5 km/h (3 Bft) 97,92 %
16.09.2019 11:34 22,1 C 16,1 C 35,0 C 68 % 1018,5 hPa 0,0 l/m 3,8 km/h (1 Bft) W-SW 242 2 min 0,000 mm 3,6 UV-I 658 W/m 15,9 C 22,1 C 6,4 km/h (2 Bft) 100,00 %
16.09.2019 11:36 22,3 C 16,1 C 35,6 C 70 % 1018,5 hPa 0,0 l/m 5,9 km/h (2 Bft) W-NW 293 2 min 0,000 mm 3,6 UV-I 659 W/m 16,6 C 22,3 C 9,7 km/h (2 Bft) 97,87 %
16.09.2019 11:38 22,6 C 16,1 C 35,0 C 68 % 1018,5 hPa 0,0 l/m 10,6 km/h (2 Bft) W-SW 248 2 min 0,000 mm 3,6 UV-I 658 W/m 16,4 C 21,4 C 17,7 km/h (3 Bft) 100,00 %
16.09.2019 11:40 22,7 C 16,1 C 35,0 C 67 % 1018,4 hPa 0,0 l/m 4,6 km/h (1 Bft) W 273 2 min 0,000 mm 3,7 UV-I 670 W/m 16,2 C 22,7 C 14,5 km/h (3 Bft) 96,00 %
16.09.2019 11:42 22,8 C 16,1 C 35,0 C 67 % 1018,4 hPa 0,0 l/m 7,1 km/h (2 Bft) W-SW 252 2 min 0,000 mm 3,6 UV-I 643 W/m 16,3 C 22,6 C 14,5 km/h (3 Bft) 97,87 %
16.09.2019 11:44 22,9 C 16,1 C 35,0 C 67 % 1018,4 hPa 0,0 l/m 3,6 km/h (1 Bft) W-SW 250 2 min 0,000 mm 3,5 UV-I 578 W/m 16,4 C 22,9 C 6,4 km/h (2 Bft) 95,74 %
16.09.2019 11:46 22,9 C 16,1 C 35,0 C 66 % 1018,4 hPa 0,0 l/m 5,1 km/h (1 Bft) W-SW 242 2 min 0,000 mm 3,6 UV-I 606 W/m 16,2 C 22,9 C 9,7 km/h (2 Bft) 93,62 %
16.09.2019 11:48 22,9 C 16,1 C 34,4 C 66 % 1018,3 hPa 0,0 l/m 5,2 km/h (1 Bft) NW 325 2 min 0,000 mm 3,7 UV-I 652 W/m 16,2 C 22,9 C 8,0 km/h (2 Bft) 95,74 %
16.09.2019 11:50 22,9 C 16,1 C 35,0 C 65 % 1018,3 hPa 0,0 l/m 3,7 km/h (1 Bft) W-SW 250 2 min 0,000 mm 3,7 UV-I 633 W/m 16,0 C 22,9 C 11,3 km/h (2 Bft) 97,87 %
16.09.2019 11:52 23,1 C 16,1 C 35,0 C 66 % 1018,3 hPa 0,0 l/m 4,1 km/h (1 Bft) W 265 2 min 0,000 mm 3,7 UV-I 647 W/m 16,4 C 23,1 C 9,7 km/h (2 Bft) 97,87 %
16.09.2019 11:54 23,2 C 16,1 C 35,0 C 65 % 1018,3 hPa 0,0 l/m 5,8 km/h (2 Bft) SW 231 2 min 0,000 mm 3,8 UV-I 675 W/m 16,2 C 23,2 C 11,3 km/h (2 Bft) 95,74 %
16.09.2019 11:56 23,2 C 16,1 C 34,4 C 67 % 1018,2 hPa 0,0 l/m 4,4 km/h (1 Bft) NW 305 2 min 0,000 mm 3,6 UV-I 628 W/m 16,7 C 23,2 C 8,0 km/h (2 Bft) 97,87 %
16.09.2019 11:58 23,3 C 16,1 C 34,4 C 66 % 1018,2 hPa 0,0 l/m 7,4 km/h (2 Bft) NW 324 2 min 0,000 mm 3,7 UV-I 605 W/m 16,6 C 23,0 C 12,9 km/h (3 Bft) 97,87 %
16.09.2019 12:00 23,3 C 16,1 C 35,0 C 63 % 1018,2 hPa 0,0 l/m 4,7 km/h (1 Bft) W-SW 252 2 min 0,406 mm 3,8 UV-I 649 W/m 15,9 C 23,3 C 8,0 km/h (2 Bft) 95,74 %
16.09.2019 12:02 23,3 C 16,1 C 35,0 C 64 % 1018,2 hPa 0,0 l/m 2,5 km/h (1 Bft) W-SW 257 2 min 0,000 mm 3,8 UV-I 663 W/m 16,1 C 23,3 C 4,8 km/h (1 Bft) 97,87 %
16.09.2019 12:04 23,4 C 16,1 C 34,4 C 65 % 1018,2 hPa 0,0 l/m 4,6 km/h (1 Bft) W 259 2 min 0,000 mm 3,5 UV-I 591 W/m 16,4 C 23,4 C 11,3 km/h (2 Bft) 95,74 %
16.09.2019 12:06 23,3 C 16,1 C 32,8 C 65 % 1018,2 hPa 0,0 l/m 5,7 km/h (1 Bft) W-SW 258 2 min 0,000 mm 3,4 UV-I 562 W/m 16,3 C 23,3 C 11,3 km/h (2 Bft) 94,87 %
16.09.2019 12:09 23,1 C 16,1 C 33,9 C 62 % 1018,1 hPa 0,0 l/m 5,4 km/h (1 Bft) N 351 3 min 0,000 mm 3,7 UV-I 587 W/m 15,4 C 23,1 C 11,3 km/h (2 Bft) 97,26 %
16.09.2019 12:10 23,1 C 16,1 C 33,9 C 64 % 1018,1 hPa 0,0 l/m 4,4 km/h (1 Bft) O-NO 57 1 min 0,000 mm 3,5 UV-I 539 W/m 15,9 C 23,1 C 8,0 km/h (2 Bft) 95,83 %
16.09.2019 12:12 23,1 C 16,1 C 32,8 C 62 % 1018,0 hPa 0,0 l/m 6,1 km/h (2 Bft) NW 311 2 min 0,000 mm 3,3 UV-I 500 W/m 15,4 C 23,1 C 12,9 km/h (3 Bft) 97,87 %
16.09.2019 12:14 23,1 C 16,1 C 32,2 C 63 % 1018,0 hPa 0,0 l/m 6,4 km/h (2 Bft) N-NW 338 2 min 0,000 mm 3,6 UV-I 502 W/m 15,7 C 23,1 C 12,9 km/h (3 Bft) 97,87 %
16.09.2019 12:16 23,2 C 16,1 C 32,8 C 64 % 1018,0 hPa 0,0 l/m 6,3 km/h (2 Bft) W 270 2 min 0,000 mm 3,6 UV-I 478 W/m 16,0 C 23,2 C 14,5 km/h (3 Bft) 97,87 %
16.09.2019 12:18 23,3 C 16,1 C 31,7 C 62 % 1018,0 hPa 0,0 l/m 6,5 km/h (2 Bft) W 277 2 min 0,000 mm 3,1 UV-I 406 W/m 15,6 C 23,3 C 12,9 km/h (3 Bft) 97,87 %
16.09.2019 12:20 23,3 C 16,1 C 31,7 C 62 % 1018,0 hPa 0,0 l/m 7,4 km/h (2 Bft) W-SW 246 2 min 0,000 mm 3,4 UV-I 394 W/m 15,6 C 23,0 C 11,3 km/h (2 Bft) 97,87 %
16.09.2019 12:22 23,3 C 16,1 C 31,1 C 61 % 1017,9 hPa 0,0 l/m 6,7 km/h (2 Bft) W-SW 238 2 min 0,000 mm 3,2 UV-I 456 W/m 15,3 C 23,2 C 11,3 km/h (2 Bft) 95,74 %
16.09.2019 12:24 23,3 C 16,1 C 31,7 C 61 % 1017,9 hPa 0,0 l/m 7,5 km/h (2 Bft) W-SW 241 0 min 0,000 mm 3,7 UV-I 332 W/m 15,3 C 23,0 C 12,9 km/h (3 Bft) 95,74 %
16.09.2019 12:26 23,3 C 16,1 C 33,3 C 61 % 1017,9 hPa 0,0 l/m 3,9 km/h (1 Bft) NW 313 2 min 0,000 mm 4,0 UV-I 533 W/m 15,3 C 23,3 C 6,4 km/h (2 Bft) 95,74 %
16.09.2019 12:28 23,5 C 16,1 C 35,0 C 62 % 1017,9 hPa 0,0 l/m 3,0 km/h (1 Bft) W-SW 257 2 min 0,000 mm 4,1 UV-I 705 W/m 15,8 C 23,5 C 6,4 km/h (2 Bft) 93,62 %
16.09.2019 12:30 23,7 C 16,1 C 35,0 C 61 % 1017,9 hPa 0,0 l/m 8,1 km/h (2 Bft) W-NW 303 2 min 0,000 mm 4,1 UV-I 711 W/m 15,7 C 23,2 C 16,1 km/h (3 Bft) 97,44 %
16.09.2019 12:32 23,8 C 16,1 C 35,0 C 61 % 1017,9 hPa 0,0 l/m 6,2 km/h (2 Bft) W 264 2 min 0,000 mm 3,9 UV-I 629 W/m 15,8 C 23,8 C 12,9 km/h (3 Bft) 93,62 %
16.09.2019 12:34 23,9 C 16,1 C 35,0 C 59 % 1017,8 hPa 0,0 l/m 5,1 km/h (1 Bft) W-SW 255 2 min 0,000 mm 4,1 UV-I 678 W/m 15,4 C 23,9 C 8,0 km/h (2 Bft) 96,00 %
16.09.2019 12:36 24,1 C 16,1 C 35,6 C 59 % 1017,8 hPa 0,0 l/m 3,2 km/h (1 Bft) W 259 2 min 0,000 mm 4,0 UV-I 675 W/m 15,6 C 24,1 C 9,7 km/h (2 Bft) 95,74 %
16.09.2019 12:38 24,2 C 16,1 C 35,6 C 58 % 1017,8 hPa 0,0 l/m 3,2 km/h (1 Bft) W 262 2 min 0,000 mm 4,0 UV-I 645 W/m 15,4 C 24,2 C 6,4 km/h (2 Bft) 97,87 %
16.09.2019 12:40 24,2 C 16,1 C 36,1 C 59 % 1017,7 hPa 0,0 l/m 2,8 km/h (1 Bft) NW 324 2 min 0,000 mm 3,7 UV-I 652 W/m 15,7 C 24,2 C 6,4 km/h (2 Bft) 98,00 %
16.09.2019 12:42 24,2 C 16,1 C 35,6 C 58 % 1017,6 hPa 0,0 l/m 3,5 km/h (1 Bft) W 273 2 min 0,000 mm 3,4 UV-I 672 W/m 15,4 C 24,2 C 6,4 km/h (2 Bft) 97,87 %
16.09.2019 12:44 24,1 C 16,1 C 35,0 C 58 % 1017,7 hPa 0,0 l/m 7,8 km/h (2 Bft) NW 315 2 min 0,000 mm 3,7 UV-I 548 W/m 15,3 C 23,7 C 14,5 km/h (3 Bft) 97,87 %
16.09.2019 12:46 24,1 C 16,1 C 34,4 C 58 % 1017,7 hPa 0,0 l/m 9,3 km/h (2 Bft) W 261 2 min 0,000 mm 3,8 UV-I 584 W/m 15,3 C 23,3 C 14,5 km/h (3 Bft) 93,62 %
16.09.2019 12:48 24,1 C 16,1 C 35,0 C 59 % 1017,7 hPa 0,0 l/m 5,9 km/h (2 Bft) W 265 2 min 0,000 mm 4,1 UV-I 696 W/m 15,6 C 24,1 C 9,7 km/h (2 Bft) 97,87 %
16.09.2019 12:50 24,2 C 16,1 C 35,0 C 58 % 1017,6 hPa 0,0 l/m 5,1 km/h (1 Bft) W 270 2 min 0,000 mm 4,0 UV-I 667 W/m 15,4 C 24,2 C 9,7 km/h (2 Bft) 95,74 %
16.09.2019 12:52 24,2 C 16,1 C 35,6 C 57 % 1017,5 hPa 0,0 l/m 3,3 km/h (1 Bft) W 263 2 min 0,000 mm 3,8 UV-I 686 W/m 15,1 C 24,2 C 9,7 km/h (2 Bft) 97,87 %
16.09.2019 12:54 24,2 C 16,1 C 36,1 C 57 % 1017,5 hPa 0,0 l/m 4,0 km/h (1 Bft) W-NW 286 2 min 0,000 mm 4,1 UV-I 682 W/m 15,1 C 24,2 C 6,4 km/h (2 Bft) 97,87 %
16.09.2019 12:56 24,2 C 16,1 C 36,1 C 57 % 1017,5 hPa 0,0 l/m 3,3 km/h (1 Bft) N-NW 332 2 min 0,000 mm 4,1 UV-I 687 W/m 15,1 C 24,2 C 6,4 km/h (2 Bft) 97,37 %
16.09.2019 12:58 24,3 C 16,1 C 35,6 C 57 % 1017,4 hPa 0,0 l/m 5,1 km/h (1 Bft) W 266 2 min 0,000 mm 4,1 UV-I 685 W/m 15,2 C 24,3 C 11,3 km/h (2 Bft) 96,00 %
16.09.2019 13:00 24,4 C 16,1 C 35,6 C 58 % 1017,4 hPa 0,0 l/m 4,4 km/h (1 Bft) NW 305 2 min 0,407 mm 4,1 UV-I 667 W/m 15,6 C 24,4 C 9,7 km/h (2 Bft) 97,92 %
16.09.2019 13:02 24,5 C 16,1 C 35,6 C 56 % 1017,4 hPa 0,0 l/m 6,2 km/h (2 Bft) N-NO 16 2 min 0,000 mm 4,1 UV-I 685 W/m 15,1 C 24,5 C 14,5 km/h (3 Bft) 98,00 %
16.09.2019 13:04 24,4 C 16,1 C 35,6 C 55 % 1017,4 hPa 0,0 l/m 8,0 km/h (2 Bft) W-NW 286 2 min 0,000 mm 4,1 UV-I 677 W/m 14,8 C 24,0 C 12,9 km/h (3 Bft) 96,00 %
16.09.2019 13:06 24,4 C 16,1 C 35,0 C 55 % 1017,3 hPa 0,0 l/m 6,6 km/h (2 Bft) N-NW 331 2 min 0,000 mm 4,2 UV-I 710 W/m 14,8 C 24,4 C 11,3 km/h (2 Bft) 97,87 %
16.09.2019 13:08 24,4 C 16,1 C 36,1 C 56 % 1017,4 hPa 0,0 l/m 2,2 km/h (1 Bft) N-NW 332 2 min 0,000 mm 4,3 UV-I 727 W/m 15,0 C 24,4 C 6,4 km/h (2 Bft) 91,49 %
16.09.2019 13:10 24,5 C 16,1 C 36,1 C 54 % 1017,3 hPa 0,0 l/m 5,0 km/h (1 Bft) N-NW 329 2 min 0,000 mm 4,4 UV-I 748 W/m 14,6 C 24,5 C 12,9 km/h (3 Bft) 95,74 %
16.09.2019 13:12 24,6 C 16,1 C 36,7 C 57 % 1017,2 hPa 0,0 l/m 3,8 km/h (1 Bft) SW 231 2 min 0,000 mm 4,4 UV-I 751 W/m 15,5 C 24,6 C 8,0 km/h (2 Bft) 97,87 %
16.09.2019 13:14 24,8 C 16,1 C 36,7 C 56 % 1017,2 hPa 0,0 l/m 11,0 km/h (2 Bft) W-SW 254 2 min 0,000 mm 4,5 UV-I 776 W/m 15,4 C 23,7 C 20,9 km/h (4 Bft) 95,74 %
16.09.2019 13:16 24,8 C 16,1 C 36,7 C 55 % 1017,2 hPa 0,0 l/m 15,0 km/h (3 Bft) W-SW 248 2 min 0,000 mm 4,5 UV-I 787 W/m 15,1 C 23,1 C 19,3 km/h (3 Bft) 95,74 %
16.09.2019 13:18 24,8 C 16,1 C 36,7 C 54 % 1017,1 hPa 0,0 l/m 12,1 km/h (2 Bft) W-NW 298 2 min 0,000 mm 4,4 UV-I 756 W/m 14,8 C 23,5 C 16,1 km/h (3 Bft) 93,62 %
16.09.2019 13:20 24,8 C 16,1 C 36,7 C 54 % 1017,1 hPa 0,0 l/m 6,7 km/h (2 Bft) W-SW 249 2 min 0,000 mm 4,3 UV-I 745 W/m 14,8 C 24,7 C 16,1 km/h (3 Bft) 95,74 %
16.09.2019 13:22 24,9 C 16,1 C 36,1 C 54 % 1017,0 hPa 0,0 l/m 9,6 km/h (2 Bft) W 264 2 min 0,000 mm 4,1 UV-I 691 W/m 14,9 C 24,1 C 16,1 km/h (3 Bft) 95,12 %
16.09.2019 13:24 24,9 C 16,1 C 36,1 C 54 % 1017,0 hPa 0,0 l/m 9,0 km/h (2 Bft) W 269 2 min 0,000 mm 4,3 UV-I 711 W/m 14,9 C 24,3 C 14,5 km/h (3 Bft) 96,00 %
16.09.2019 13:26 25,0 C 16,1 C 36,7 C 55 % 1017,0 hPa 0,0 l/m 5,7 km/h (1 Bft) W-NW 300 2 min 0,000 mm 4,5 UV-I 814 W/m 15,3 C 25,0 C 11,3 km/h (2 Bft) 94,74 %
16.09.2019 13:28 25,1 C 16,1 C 35,6 C 53 % 1017,1 hPa 0,0 l/m 4,6 km/h (1 Bft) NW 323 2 min 0,000 mm 3,8 UV-I 830 W/m 14,8 C 25,1 C 9,7 km/h (2 Bft) 95,74 %
16.09.2019 13:30 25,1 C 16,1 C 33,9 C 54 % 1017,0 hPa 0,0 l/m 5,1 km/h (1 Bft) W-NW 299 2 min 0,000 mm 3,1 UV-I 556 W/m 15,1 C 25,1 C 9,7 km/h (2 Bft) 97,92 %
16.09.2019 13:32 25,0 C 16,1 C 34,4 C 57 % 1017,0 hPa 0,0 l/m 6,0 km/h (2 Bft) NW 311 2 min 0,000 mm 4,0 UV-I 531 W/m 15,9 C 25,0 C 12,9 km/h (3 Bft) 95,92 %
16.09.2019 13:34 25,0 C 16,1 C 35,0 C 54 % 1017,0 hPa 0,0 l/m 8,2 km/h (2 Bft) NW 307 2 min 0,000 mm 4,2 UV-I 531 W/m 15,0 C 24,6 C 16,1 km/h (3 Bft) 95,83 %
16.09.2019 13:36 25,1 C 16,1 C 33,9 C 54 % 1016,9 hPa 0,0 l/m 9,3 km/h (2 Bft) W-SW 247 2 min 0,000 mm 3,7 UV-I 531 W/m 15,1 C 24,4 C 17,7 km/h (3 Bft) 93,62 %
16.09.2019 13:38 24,9 C 16,1 C 31,7 C 53 % 1016,9 hPa 0,0 l/m 9,2 km/h (2 Bft) W-SW 254 0 min 0,000 mm 2,8 UV-I 374 W/m 14,6 C 24,2 C 16,1 km/h (3 Bft) 100,00 %
16.09.2019 13:40 24,8 C 16,1 C 31,1 C 55 % 1016,9 hPa 0,0 l/m 5,1 km/h (1 Bft) W-NW 285 2 min 0,000 mm 3,3 UV-I 468 W/m 15,1 C 24,8 C 11,3 km/h (2 Bft) 97,87 %
16.09.2019 13:42 24,8 C 16,1 C 31,7 C 54 % 1016,9 hPa 0,0 l/m 5,7 km/h (1 Bft) NW 314 2 min 0,000 mm 3,3 UV-I 547 W/m 14,8 C 24,8 C 9,7 km/h (2 Bft) 98,00 %
16.09.2019 13:44 24,8 C 16,1 C 32,8 C 55 % 1016,8 hPa 0,0 l/m 5,6 km/h (1 Bft) N-NW 338 2 min 0,000 mm 3,3 UV-I 547 W/m 15,1 C 24,8 C 12,9 km/h (3 Bft) 100,00 %
16.09.2019 13:46 24,8 C 16,1 C 30,6 C 54 % 1016,8 hPa 0,0 l/m 5,3 km/h (1 Bft) SW 228 0 min 0,000 mm 2,8 UV-I 330 W/m 14,8 C 24,8 C 11,3 km/h (2 Bft) 100,00 %
16.09.2019 13:48 24,7 C 16,1 C 31,1 C 56 % 1016,7 hPa 0,0 l/m 4,0 km/h (1 Bft) O 90 2 min 0,000 mm 3,3 UV-I 428 W/m 15,3 C 24,7 C 6,4 km/h (2 Bft) 97,87 %
16.09.2019 13:50 24,6 C 16,1 C 29,4 C 57 % 1016,8 hPa 0,0 l/m 5,2 km/h (1 Bft) N-NW 333 0 min 0,000 mm 2,6 UV-I 365 W/m 15,5 C 24,6 C 12,9 km/h (3 Bft) 100,00 %
16.09.2019 13:52 24,3 C 16,1 C 29,4 C 55 % 1016,7 hPa 0,0 l/m 4,7 km/h (1 Bft) NW 309 0 min 0,000 mm 3,0 UV-I 212 W/m 14,7 C 24,3 C 6,4 km/h (2 Bft) 100,00 %
16.09.2019 13:54 24,3 C 16,1 C 31,7 C 59 % 1016,8 hPa 0,0 l/m 7,7 km/h (2 Bft) W-SW 257 2 min 0,000 mm 3,7 UV-I 687 W/m 15,8 C 23,9 C 16,1 km/h (3 Bft) 100,00 %
16.09.2019 13:56 24,4 C 16,1 C 31,7 C 55 % 1016,8 hPa 0,0 l/m 9,2 km/h (2 Bft) W-SW 257 2 min 0,000 mm 3,7 UV-I 657 W/m 14,8 C 23,7 C 16,1 km/h (3 Bft) 100,00 %
16.09.2019 13:58 24,4 C 16,1 C 32,2 C 55 % 1016,7 hPa 0,0 l/m 5,9 km/h (2 Bft) N-NW 329 2 min 0,000 mm 3,5 UV-I 435 W/m 14,8 C 24,4 C 11,3 km/h (2 Bft) 98,00 %
16.09.2019 14:00 24,6 C 16,1 C 32,8 C 58 % 1016,7 hPa 0,0 l/m 4,0 km/h (1 Bft) N 5 2 min 0,431 mm 3,4 UV-I 478 W/m 15,8 C 24,6 C 8,0 km/h (2 Bft) 100,00 %
16.09.2019 14:02 24,7 C 16,1 C 33,9 C 57 % 1016,6 hPa 0,0 l/m 2,9 km/h (1 Bft) NW 315 2 min 0,000 mm 3,7 UV-I 660 W/m 15,6 C 24,7 C 6,4 km/h (2 Bft) 97,87 %
16.09.2019 14:04 24,9 C 16,1 C 35,0 C 58 % 1016,6 hPa 0,0 l/m 7,6 km/h (2 Bft) NW 306 2 min 0,000 mm 3,9 UV-I 731 W/m 16,1 C 24,6 C 14,5 km/h (3 Bft) 97,87 %
16.09.2019 14:06 25,1 C 16,1 C 34,4 C 53 % 1016,6 hPa 0,0 l/m 8,3 km/h (2 Bft) W-SW 253 2 min 0,000 mm 3,7 UV-I 630 W/m 14,8 C 24,6 C 12,9 km/h (3 Bft) 96,00 %
16.09.2019 14:08 25,1 C 16,1 C 33,9 C 55 % 1016,6 hPa 0,0 l/m 5,5 km/h (1 Bft) NW 321 2 min 0,000 mm 3,3 UV-I 580 W/m 15,4 C 25,1 C 9,7 km/h (2 Bft) 95,83 %
16.09.2019 14:10 25,1 C 16,1 C 34,4 C 56 % 1016,6 hPa 0,0 l/m 4,3 km/h (1 Bft) W 273 2 min 0,000 mm 3,6 UV-I 602 W/m 15,7 C 25,1 C 11,3 km/h (2 Bft) 97,87 %
16.09.2019 14:12 25,1 C 16,1 C 35,0 C 54 % 1016,6 hPa 0,0 l/m 5,6 km/h (1 Bft) W-SW 252 2 min 0,000 mm 3,8 UV-I 693 W/m 15,1 C 25,1 C 14,5 km/h (3 Bft) 97,37 %
16.09.2019 14:14 25,1 C 16,1 C 35,0 C 53 % 1016,6 hPa 0,0 l/m 7,7 km/h (2 Bft) W 276 2 min 0,000 mm 3,8 UV-I 677 W/m 14,8 C 24,8 C 12,9 km/h (3 Bft) 96,00 %
16.09.2019 14:16 25,1 C 16,1 C 35,6 C 55 % 1016,6 hPa 0,0 l/m 4,7 km/h (1 Bft) W 265 2 min 0,000 mm 3,8 UV-I 730 W/m 15,4 C 25,1 C 12,9 km/h (3 Bft) 95,74 %
16.09.2019 14:18 25,2 C 16,1 C 36,1 C 56 % 1016,5 hPa 0,0 l/m 7,6 km/h (2 Bft) N 355 2 min 0,000 mm 3,7 UV-I 749 W/m 15,8 C 24,9 C 12,9 km/h (3 Bft) 95,74 %
16.09.2019 14:20 25,3 C 16,1 C 35,6 C 55 % 1016,6 hPa 0,0 l/m 6,3 km/h (2 Bft) N-NW 331 2 min 0,000 mm 3,6 UV-I 711 W/m 15,6 C 25,3 C 12,9 km/h (3 Bft) 97,87 %
16.09.2019 14:22 25,3 C 16,1 C 35,6 C 54 % 1016,5 hPa 0,0 l/m 5,8 km/h (2 Bft) W-NW 292 2 min 0,000 mm 3,7 UV-I 730 W/m 15,3 C 25,3 C 14,5 km/h (3 Bft) 97,87 %
16.09.2019 14:24 25,4 C 16,1 C 35,0 C 52 % 1016,4 hPa 0,0 l/m 4,7 km/h (1 Bft) N 360 2 min 0,000 mm 3,5 UV-I 739 W/m 14,8 C 25,4 C 9,7 km/h (2 Bft) 97,87 %
16.09.2019 14:26 25,3 C 16,1 C 32,8 C 53 % 1016,4 hPa 0,0 l/m 4,3 km/h (1 Bft) S-SW 202 2 min 0,000 mm 2,4 UV-I 382 W/m 15,0 C 25,3 C 9,7 km/h (2 Bft) 98,00 %
16.09.2019 14:28 25,2 C 16,1 C 31,1 C 53 % 1016,4 hPa 0,0 l/m 4,8 km/h (1 Bft) N-NO 32 0 min 0,000 mm 2,3 UV-I 275 W/m 14,9 C 25,2 C 8,0 km/h (2 Bft) 96,00 %
16.09.2019 14:30 25,0 C 16,1 C 30,0 C 53 % 1016,3 hPa 0,0 l/m 4,7 km/h (1 Bft) W-NW 299 0 min 0,000 mm 2,7 UV-I 339 W/m 14,7 C 25,0 C 12,9 km/h (3 Bft) 97,22 %
16.09.2019 14:32 24,9 C 16,1 C 32,2 C 54 % 1016,3 hPa 0,0 l/m 5,7 km/h (1 Bft) SO 142 2 min 0,000 mm 3,6 UV-I 497 W/m 14,9 C 24,9 C 12,9 km/h (3 Bft) 94,00 %
16.09.2019 14:34 25,0 C 16,1 C 33,3 C 56 % 1016,2 hPa 0,0 l/m 7,3 km/h (2 Bft) W 266 2 min 0,000 mm 3,4 UV-I 845 W/m 15,6 C 24,8 C 12,9 km/h (3 Bft) 96,00 %
16.09.2019 14:36 25,1 C 16,1 C 31,1 C 53 % 1016,2 hPa 0,0 l/m 6,4 km/h (2 Bft) N-NW 342 2 min 0,000 mm 2,5 UV-I 538 W/m 14,8 C 25,1 C 11,3 km/h (2 Bft) 97,87 %
16.09.2019 14:38 25,1 C 16,1 C 30,0 C 55 % 1016,2 hPa 0,0 l/m 3,4 km/h (1 Bft) W-NW 301 0 min 0,000 mm 2,3 UV-I 317 W/m 15,4 C 25,1 C 6,4 km/h (2 Bft) 100,00 %
16.09.2019 14:40 24,9 C 16,1 C 28,9 C 54 % 1016,1 hPa 0,0 l/m 4,3 km/h (1 Bft) W 275 0 min 0,000 mm 2,2 UV-I 300 W/m 14,9 C 24,9 C 11,3 km/h (2 Bft) 97,87 %
16.09.2019 14:42 24,8 C 16,1 C 28,3 C 57 % 1016,0 hPa 0,0 l/m 7,0 km/h (2 Bft) NW 321 0 min 0,000 mm 2,2 UV-I 317 W/m 15,7 C 24,6 C 12,9 km/h (3 Bft) 100,00 %
16.09.2019 14:44 24,6 C 16,1 C 27,2 C 56 % 1016,0 hPa 0,0 l/m 5,9 km/h (2 Bft) N 5 0 min 0,000 mm 2,1 UV-I 267 W/m 15,2 C 24,6 C 9,7 km/h (2 Bft) 97,87 %
16.09.2019 14:46 24,4 C 16,1 C 27,2 C 57 % 1016,1 hPa 0,0 l/m 4,4 km/h (1 Bft) N 355 0 min 0,000 mm 2,0 UV-I 238 W/m 15,3 C 24,4 C 6,4 km/h (2 Bft) 100,00 %
16.09.2019 14:48 24,3 C 16,1 C 26,7 C 58 % 1016,0 hPa 0,0 l/m 2,7 km/h (1 Bft) W-NW 288 0 min 0,000 mm 1,9 UV-I 222 W/m 15,5 C 24,3 C 4,8 km/h (1 Bft) 100,00 %
16.09.2019 14:50 24,2 C 16,1 C 26,7 C 59 % 1016,0 hPa 0,0 l/m 2,3 km/h (1 Bft) N-NW 331 0 min 0,000 mm 1,9 UV-I 216 W/m 15,7 C 24,2 C 4,8 km/h (1 Bft) 100,00 %
16.09.2019 14:52 24,2 C 16,1 C 26,7 C 60 % 1015,9 hPa 0,0 l/m 3,0 km/h (1 Bft) NW 315 0 min 0,000 mm 1,9 UV-I 225 W/m 15,9 C 24,2 C 8,0 km/h (2 Bft) 100,00 %
16.09.2019 14:54 24,1 C 16,1 C 26,1 C 59 % 1015,9 hPa 0,0 l/m 3,5 km/h (1 Bft) W-NW 287 0 min 0,000 mm 1,9 UV-I 237 W/m 15,6 C 24,1 C 6,4 km/h (2 Bft) 95,74 %
16.09.2019 14:56 24,1 C 16,1 C 26,7 C 60 % 1015,9 hPa 0,0 l/m 2,2 km/h (1 Bft) W-NW 299 0 min 0,000 mm 2,1 UV-I 266 W/m 15,8 C 24,1 C 4,8 km/h (1 Bft) 98,00 %
16.09.2019 14:58 24,1 C 16,1 C 27,8 C 60 % 1015,9 hPa 0,0 l/m 3,3 km/h (1 Bft) W-NW 286 0 min 0,000 mm 2,5 UV-I 257 W/m 15,8 C 24,1 C 4,8 km/h (1 Bft) 97,87 %
16.09.2019 15:00 24,3 C 16,1 C 27,8 C 58 % 1015,9 hPa 0,0 l/m 4,9 km/h (1 Bft) W 259 2 min 0,356 mm 3,0 UV-I 514 W/m 15,5 C 24,3 C 12,9 km/h (3 Bft) 97,87 %
16.09.2019 15:02 24,6 C 16,1 C 28,9 C 60 % 1015,9 hPa 0,0 l/m 2,9 km/h (1 Bft) W-NW 303 2 min 0,000 mm 2,9 UV-I 642 W/m 16,3 C 24,6 C 6,4 km/h (2 Bft) 95,83 %
16.09.2019 15:04 24,8 C 16,1 C 30,0 C 59 % 1015,9 hPa 0,0 l/m 4,2 km/h (1 Bft) N-NW 346 2 min 0,000 mm 2,9 UV-I 606 W/m 16,2 C 24,8 C 8,0 km/h (2 Bft) 92,11 %
16.09.2019 15:06 25,1 C 16,1 C 30,0 C 57 % 1015,9 hPa 0,0 l/m 4,8 km/h (1 Bft) NW 311 2 min 0,000 mm 2,1 UV-I 540 W/m 16,0 C 25,1 C 12,9 km/h (3 Bft) 98,00 %
16.09.2019 15:08 25,1 C 16,1 C 29,4 C 56 % 1015,8 hPa 0,0 l/m 5,9 km/h (2 Bft) NO 34 2 min 0,000 mm 2,0 UV-I 450 W/m 15,7 C 25,1 C 12,9 km/h (3 Bft) 95,74 %
16.09.2019 15:10 25,1 C 16,1 C 28,9 C 55 % 1015,8 hPa 0,0 l/m 4,8 km/h (1 Bft) W-SW 246 2 min 0,000 mm 2,4 UV-I 382 W/m 15,4 C 25,1 C 14,5 km/h (3 Bft) 91,49 %
16.09.2019 15:12 25,2 C 16,1 C 29,4 C 56 % 1015,8 hPa 0,0 l/m 2,5 km/h (1 Bft) N-NO 27 2 min 0,000 mm 2,7 UV-I 635 W/m 15,8 C 25,2 C 9,7 km/h (2 Bft) 95,74 %
16.09.2019 15:14 25,3 C 16,1 C 30,0 C 57 % 1015,8 hPa 0,0 l/m 4,1 km/h (1 Bft) W-NW 290 2 min 0,000 mm 2,8 UV-I 587 W/m 16,2 C 25,3 C 6,4 km/h (2 Bft) 92,00 %
16.09.2019 15:16 25,3 C 16,1 C 29,4 C 56 % 1015,8 hPa 0,0 l/m 4,8 km/h (1 Bft) N 355 2 min 0,000 mm 2,3 UV-I 465 W/m 15,9 C 25,3 C 8,0 km/h (2 Bft) 98,00 %
16.09.2019 15:18 25,3 C 16,1 C 28,9 C 55 % 1015,8 hPa 0,0 l/m 5,1 km/h (1 Bft) N-NW 335 2 min 0,000 mm 2,2 UV-I 358 W/m 15,6 C 25,3 C 9,7 km/h (2 Bft) 97,87 %
16.09.2019 15:20 25,1 C 16,1 C 28,3 C 56 % 1015,8 hPa 0,0 l/m 3,3 km/h (1 Bft) N 5 0 min 0,000 mm 1,9 UV-I 269 W/m 15,7 C 25,1 C 6,4 km/h (2 Bft) 100,00 %
16.09.2019 15:22 24,9 C 16,1 C 27,8 C 57 % 1015,8 hPa 0,0 l/m 4,2 km/h (1 Bft) NW 315 0 min 0,000 mm 1,8 UV-I 245 W/m 15,8 C 24,9 C 11,3 km/h (2 Bft) 97,87 %
16.09.2019 15:24 24,7 C 16,1 C 27,2 C 55 % 1015,7 hPa 0,0 l/m 3,7 km/h (1 Bft) N 351 0 min 0,000 mm 1,7 UV-I 238 W/m 15,0 C 24,7 C 8,0 km/h (2 Bft) 97,87 %
16.09.2019 15:26 24,6 C 16,1 C 27,2 C 56 % 1015,7 hPa 0,0 l/m 2,2 km/h (1 Bft) N 355 0 min 0,000 mm 1,7 UV-I 249 W/m 15,2 C 24,6 C 6,4 km/h (2 Bft) 100,00 %
16.09.2019 15:28 24,4 C 16,1 C 26,7 C 56 % 1015,7 hPa 0,0 l/m 5,0 km/h (1 Bft) N-NW 340 0 min 0,000 mm 1,8 UV-I 264 W/m 15,0 C 24,4 C 11,3 km/h (2 Bft) 95,74 %
16.09.2019 15:30 24,4 C 16,1 C 26,7 C 57 % 1015,7 hPa 0,0 l/m 3,3 km/h (1 Bft) N-NW 329 0 min 0,000 mm 1,9 UV-I 289 W/m 15,3 C 24,4 C 6,4 km/h (2 Bft) 100,00 %
16.09.2019 15:32 24,3 C 16,1 C 26,7 C 60 % 1015,6 hPa 0,0 l/m 4,0 km/h (1 Bft) NW 310 0 min 0,000 mm 1,9 UV-I 302 W/m 16,0 C 24,3 C 9,7 km/h (2 Bft) 97,87 %
16.09.2019 15:34 24,4 C 16,1 C 27,2 C 58 % 1015,6 hPa 0,0 l/m 2,8 km/h (1 Bft) N-NW 335 2 min 0,000 mm 2,1 UV-I 328 W/m 15,6 C 24,4 C 8,0 km/h (2 Bft) 97,87 %
16.09.2019 15:36 24,4 C 16,1 C 27,2 C 58 % 1015,6 hPa 0,0 l/m 4,2 km/h (1 Bft) S-SW 212 2 min 0,000 mm 1,9 UV-I 335 W/m 15,6 C 24,4 C 9,7 km/h (2 Bft) 100,00 %
16.09.2019 15:38 24,6 C 16,1 C 27,2 C 58 % 1015,6 hPa 0,0 l/m 3,3 km/h (1 Bft) W-NW 284 2 min 0,000 mm 1,9 UV-I 370 W/m 15,8 C 24,6 C 8,0 km/h (2 Bft) 97,87 %
16.09.2019 15:40 24,7 C 16,1 C 27,2 C 59 % 1015,6 hPa 0,0 l/m 3,1 km/h (1 Bft) N-NW 341 2 min 0,000 mm 2,1 UV-I 440 W/m 16,1 C 24,7 C 4,8 km/h (1 Bft) 97,87 %
16.09.2019 15:42 24,8 C 16,1 C 27,8 C 56 % 1015,5 hPa 0,0 l/m 3,5 km/h (1 Bft) NW 312 2 min 0,000 mm 2,2 UV-I 411 W/m 15,4 C 24,8 C 6,4 km/h (2 Bft) 100,00 %
16.09.2019 15:44 24,9 C 16,1 C 27,2 C 57 % 1015,5 hPa 0,0 l/m 5,2 km/h (1 Bft) N-NW 348 2 min 0,000 mm 2,1 UV-I 462 W/m 15,8 C 24,9 C 11,3 km/h (2 Bft) 100,00 %
16.09.2019 15:46 25,0 C 16,1 C 27,2 C 56 % 1015,5 hPa 0,0 l/m 6,9 km/h (2 Bft) N-NW 342 2 min 0,000 mm 1,8 UV-I 424 W/m 15,6 C 24,9 C 12,9 km/h (3 Bft) 100,00 %
16.09.2019 15:48 25,1 C 16,1 C 26,7 C 58 % 1015,5 hPa 0,0 l/m 4,5 km/h (1 Bft) N 10 2 min 0,000 mm 1,8 UV-I 413 W/m 16,2 C 25,1 C 8,0 km/h (2 Bft) 100,00 %
16.09.2019 15:50 25,1 C 16,1 C 26,7 C 57 % 1015,5 hPa 0,0 l/m 7,0 km/h (2 Bft) NW 323 2 min 0,000 mm 1,9 UV-I 523 W/m 16,0 C 25,0 C 12,9 km/h (3 Bft) 97,87 %
16.09.2019 15:52 25,1 C 16,1 C 26,7 C 55 % 1015,5 hPa 0,0 l/m 4,8 km/h (1 Bft) W-NW 303 2 min 0,000 mm 2,0 UV-I 525 W/m 15,4 C 25,1 C 11,3 km/h (2 Bft) 100,00 %
16.09.2019 15:54 25,2 C 16,1 C 26,7 C 57 % 1015,5 hPa 0,0 l/m 4,7 km/h (1 Bft) NW 321 2 min 0,000 mm 2,0 UV-I 516 W/m 16,1 C 25,2 C 8,0 km/h (2 Bft) 100,00 %
16.09.2019 15:56 25,3 C 16,1 C 26,7 C 56 % 1015,5 hPa 0,0 l/m 6,4 km/h (2 Bft) NW 316 2 min 0,000 mm 1,9 UV-I 519 W/m 15,9 C 25,3 C 14,5 km/h (3 Bft) 100,00 %
16.09.2019 15:58 25,3 C 16,1 C 26,7 C 55 % 1015,4 hPa 0,0 l/m 5,9 km/h (2 Bft) SW 235 2 min 0,000 mm 1,9 UV-I 519 W/m 15,6 C 25,3 C 11,3 km/h (2 Bft) 98,00 %
16.09.2019 16:00 25,4 C 16,1 C 26,7 C 57 % 1015,5 hPa 0,0 l/m 7,2 km/h (2 Bft) N-NO 30 2 min 0,305 mm 1,9 UV-I 521 W/m 16,2 C 25,2 C 12,9 km/h (3 Bft) 98,00 %
16.09.2019 16:02 25,4 C 16,1 C 26,7 C 57 % 1015,5 hPa 0,0 l/m 5,4 km/h (1 Bft) W-SW 238 2 min 0,000 mm 1,8 UV-I 528 W/m 16,2 C 25,4 C 12,9 km/h (3 Bft) 98,00 %
16.09.2019 16:04 25,5 C 16,1 C 27,2 C 57 % 1015,4 hPa 0,0 l/m 8,5 km/h (2 Bft) N-NO 27 2 min 0,000 mm 1,8 UV-I 487 W/m 16,3 C 25,0 C 16,1 km/h (3 Bft) 95,83 %
16.09.2019 16:06 25,5 C 16,1 C 26,7 C 57 % 1015,4 hPa 0,0 l/m 9,5 km/h (2 Bft) W-NW 301 2 min 0,000 mm 1,7 UV-I 448 W/m 16,3 C 24,8 C 14,5 km/h (3 Bft) 95,74 %
16.09.2019 16:08 25,4 C 16,1 C 27,2 C 57 % 1015,5 hPa 0,0 l/m 6,0 km/h (2 Bft) NW 304 2 min 0,000 mm 1,7 UV-I 395 W/m 16,2 C 25,4 C 12,9 km/h (3 Bft) 97,87 %
16.09.2019 16:10 25,4 C 16,1 C 27,2 C 57 % 1015,4 hPa 0,0 l/m 5,2 km/h (1 Bft) NW 315 2 min 0,000 mm 1,6 UV-I 373 W/m 16,2 C 25,4 C 9,7 km/h (2 Bft) 97,87 %
16.09.2019 16:12 25,3 C 16,1 C 26,7 C 56 % 1015,4 hPa 0,0 l/m 4,8 km/h (1 Bft) NW 314 2 min 0,000 mm 1,5 UV-I 337 W/m 15,9 C 25,3 C 11,3 km/h (2 Bft) 95,74 %
16.09.2019 16:14 25,3 C 16,1 C 26,7 C 58 % 1015,4 hPa 0,0 l/m 3,7 km/h (1 Bft) NO 53 2 min 0,000 mm 1,5 UV-I 386 W/m 16,4 C 25,3 C 6,4 km/h (2 Bft) 97,87 %
16.09.2019 16:16 25,4 C 16,1 C 26,7 C 57 % 1015,4 hPa 0,0 l/m 4,4 km/h (1 Bft) N-NO 12 2 min 0,000 mm 1,5 UV-I 499 W/m 16,2 C 25,4 C 6,4 km/h (2 Bft) 94,74 %
16.09.2019 16:18 25,4 C 16,1 C 26,7 C 57 % 1015,4 hPa 0,0 l/m 5,3 km/h (1 Bft) NW 322 2 min 0,000 mm 1,6 UV-I 491 W/m 16,2 C 25,4 C 9,7 km/h (2 Bft) 93,62 %
16.09.2019 16:20 25,5 C 16,1 C 26,7 C 57 % 1015,4 hPa 0,0 l/m 4,1 km/h (1 Bft) N 9 2 min 0,000 mm 1,6 UV-I 471 W/m 16,3 C 25,5 C 8,0 km/h (2 Bft) 95,74 %
16.09.2019 16:22 25,6 C 16,1 C 26,7 C 57 % 1015,3 hPa 0,0 l/m 4,3 km/h (1 Bft) N-NO 12 2 min 0,000 mm 1,5 UV-I 447 W/m 16,4 C 25,6 C 8,0 km/h (2 Bft) 95,74 %
16.09.2019 16:24 25,6 C 16,1 C 26,7 C 59 % 1015,3 hPa 0,0 l/m 5,0 km/h (1 Bft) N 360 2 min 0,000 mm 1,5 UV-I 436 W/m 17,0 C 25,6 C 11,3 km/h (2 Bft) 95,74 %
16.09.2019 16:26 25,6 C 16,1 C 26,1 C 56 % 1015,3 hPa 0,0 l/m 9,3 km/h (2 Bft) N 10 2 min 0,000 mm 1,4 UV-I 427 W/m 16,2 C 25,0 C 14,5 km/h (3 Bft) 92,00 %
16.09.2019 16:28 25,6 C 16,1 C 26,1 C 56 % 1015,3 hPa 0,0 l/m 4,9 km/h (1 Bft) NW 310 2 min 0,000 mm 1,3 UV-I 418 W/m 16,2 C 25,6 C 8,0 km/h (2 Bft) 94,00 %
16.09.2019 16:30 25,6 C 16,1 C 26,1 C 55 % 1015,3 hPa 0,0 l/m 6,4 km/h (2 Bft) N-NW 327 2 min 0,000 mm 1,3 UV-I 407 W/m 15,9 C 25,6 C 12,9 km/h (3 Bft) 91,49 %
16.09.2019 16:32 25,6 C 16,1 C 26,1 C 56 % 1015,3 hPa 0,0 l/m 5,1 km/h (1 Bft) SW 232 2 min 0,000 mm 1,3 UV-I 369 W/m 16,2 C 25,6 C 8,0 km/h (2 Bft) 95,74 %
16.09.2019 16:34 25,6 C 16,1 C 26,1 C 56 % 1015,3 hPa 0,0 l/m 2,9 km/h (1 Bft) W 262 2 min 0,000 mm 1,3 UV-I 432 W/m 16,2 C 25,6 C 9,7 km/h (2 Bft) 95,74 %
16.09.2019 16:36 25,7 C 16,1 C 26,7 C 56 % 1015,3 hPa 0,0 l/m 6,7 km/h (2 Bft) N-NW 333 2 min 0,000 mm 1,3 UV-I 455 W/m 16,2 C 25,6 C 12,9 km/h (3 Bft) 93,62 %
16.09.2019 16:38 25,8 C 16,1 C 26,7 C 56 % 1015,2 hPa 0,0 l/m 3,8 km/h (1 Bft) NW 309 2 min 0,000 mm 1,3 UV-I 465 W/m 16,3 C 25,8 C 6,4 km/h (2 Bft) 94,87 %
16.09.2019 16:40 25,8 C 16,1 C 26,7 C 54 % 1015,2 hPa 0,0 l/m 6,7 km/h (2 Bft) N-NO 15 2 min 0,000 mm 1,2 UV-I 449 W/m 15,8 C 25,7 C 16,1 km/h (3 Bft) 94,00 %
16.09.2019 16:42 25,8 C 16,1 C 26,7 C 56 % 1015,2 hPa 0,0 l/m 7,4 km/h (2 Bft) N-NO 23 2 min 0,000 mm 1,1 UV-I 428 W/m 16,3 C 25,6 C 12,9 km/h (3 Bft) 96,00 %
16.09.2019 16:44 25,7 C 16,1 C 26,7 C 55 % 1015,2 hPa 0,0 l/m 6,8 km/h (2 Bft) N-NO 21 2 min 0,000 mm 1,1 UV-I 393 W/m 16,0 C 25,6 C 14,5 km/h (3 Bft) 93,62 %
16.09.2019 16:46 25,6 C 16,1 C 26,7 C 55 % 1015,1 hPa 0,0 l/m 7,0 km/h (2 Bft) N-NW 336 2 min 0,000 mm 0,9 UV-I 248 W/m 15,9 C 25,5 C 12,9 km/h (3 Bft) 93,62 %
16.09.2019 16:48 25,3 C 16,1 C 26,1 C 56 % 1015,1 hPa 0,0 l/m 4,4 km/h (1 Bft) N 355 0 min 0,000 mm 0,8 UV-I 189 W/m 15,9 C 25,3 C 12,9 km/h (3 Bft) 91,49 %
16.09.2019 16:50 25,1 C 16,1 C 25,6 C 57 % 1015,1 hPa 0,0 l/m 5,6 km/h (1 Bft) W-NW 298 0 min 0,000 mm 0,7 UV-I 176 W/m 16,0 C 25,1 C 12,9 km/h (3 Bft) 95,74 %
16.09.2019 16:52 24,8 C 16,1 C 25,6 C 58 % 1015,2 hPa 0,0 l/m 3,7 km/h (1 Bft) N 355 0 min 0,000 mm 0,6 UV-I 164 W/m 16,0 C 24,8 C 6,4 km/h (2 Bft) 94,74 %
16.09.2019 16:54 24,7 C 16,1 C 25,6 C 59 % 1015,2 hPa 0,0 l/m 3,1 km/h (1 Bft) N 355 0 min 0,000 mm 0,6 UV-I 158 W/m 16,1 C 24,7 C 4,8 km/h (1 Bft) 95,74 %
16.09.2019 16:56 24,6 C 16,1 C 25,6 C 59 % 1015,1 hPa 0,0 l/m 1,8 km/h (1 Bft) N 355 0 min 0,000 mm 0,6 UV-I 158 W/m 16,0 C 24,6 C 3,2 km/h (1 Bft) 95,74 %
16.09.2019 16:58 24,5 C 16,1 C 25,6 C 59 % 1015,1 hPa 0,0 l/m 3,8 km/h (1 Bft) N 351 0 min 0,000 mm 0,6 UV-I 155 W/m 15,9 C 24,5 C 8,0 km/h (2 Bft) 97,87 %
16.09.2019 17:00 24,4 C 16,1 C 25,0 C 61 % 1015,1 hPa 0,0 l/m 4,5 km/h (1 Bft) N 360 0 min 0,254 mm 0,5 UV-I 153 W/m 16,4 C 24,4 C 12,9 km/h (3 Bft) 95,83 %
16.09.2019 17:02 24,3 C 16,1 C 25,0 C 61 % 1015,2 hPa 0,0 l/m 3,3 km/h (1 Bft) N 360 0 min 0,000 mm 0,5 UV-I 151 W/m 16,3 C 24,3 C 6,4 km/h (2 Bft) 97,87 %
16.09.2019 17:04 24,2 C 16,1 C 25,0 C 61 % 1015,1 hPa 0,0 l/m 2,4 km/h (1 Bft) N-NO 16 0 min 0,000 mm 0,5 UV-I 147 W/m 16,2 C 24,2 C 4,8 km/h (1 Bft) 95,74 %
16.09.2019 17:06 24,2 C 16,1 C 25,0 C 61 % 1015,2 hPa 0,0 l/m 3,8 km/h (1 Bft) N 11 0 min 0,000 mm 0,5 UV-I 145 W/m 16,2 C 24,2 C 8,0 km/h (2 Bft) 95,74 %
16.09.2019 17:08 24,1 C 16,1 C 25,0 C 61 % 1015,1 hPa 0,0 l/m 5,2 km/h (1 Bft) N-NO 13 0 min 0,000 mm 0,5 UV-I 143 W/m 16,1 C 24,1 C 8,0 km/h (2 Bft) 95,74 %
16.09.2019 17:10 24,1 C 16,1 C 24,4 C 61 % 1015,1 hPa 0,0 l/m 4,9 km/h (1 Bft) N 350 0 min 0,000 mm 0,2 UV-I 141 W/m 16,1 C 24,1 C 6,4 km/h (2 Bft) 95,74 %
16.09.2019 17:12 24,1 C 16,1 C 24,4 C 62 % 1015,1 hPa 0,0 l/m 3,1 km/h (1 Bft) N 355 0 min 0,000 mm 0,0 UV-I 137 W/m 16,4 C 24,1 C 6,4 km/h (2 Bft) 95,74 %
16.09.2019 17:14 24,0 C 16,1 C 24,4 C 62 % 1015,1 hPa 0,0 l/m 3,0 km/h (1 Bft) N-NO 19 0 min 0,000 mm 0,0 UV-I 137 W/m 16,3 C 24,0 C 6,4 km/h (2 Bft) 97,87 %
16.09.2019 17:16 23,9 C 16,1 C 24,4 C 62 % 1015,1 hPa 0,0 l/m 4,5 km/h (1 Bft) N-NO 22 0 min 0,000 mm 0,0 UV-I 140 W/m 16,2 C 23,9 C 6,4 km/h (2 Bft) 98,00 %
16.09.2019 17:18 23,9 C 16,1 C 24,4 C 62 % 1015,0 hPa 0,0 l/m 4,3 km/h (1 Bft) N-NO 15 0 min 0,000 mm 0,0 UV-I 141 W/m 16,2 C 23,9 C 6,4 km/h (2 Bft) 100,00 %
16.09.2019 17:20 23,9 C 16,1 C 24,4 C 62 % 1015,1 hPa 0,0 l/m 3,2 km/h (1 Bft) N 350 0 min 0,000 mm 0,0 UV-I 141 W/m 16,2 C 23,9 C 4,8 km/h (1 Bft) 100,00 %
16.09.2019 17:22 23,9 C 16,1 C 24,4 C 62 % 1015,0 hPa 0,0 l/m 3,5 km/h (1 Bft) N 9 0 min 0,000 mm 0,0 UV-I 138 W/m 16,2 C 23,9 C 6,4 km/h (2 Bft) 97,87 %
16.09.2019 17:24 23,8 C 16,1 C 24,4 C 62 % 1015,0 hPa 0,0 l/m 4,0 km/h (1 Bft) N 5 0 min 0,000 mm 0,0 UV-I 134 W/m 16,1 C 23,8 C 6,4 km/h (2 Bft) 100,00 %
16.09.2019 17:26 23,8 C 16,1 C 24,4 C 62 % 1015,0 hPa 0,0 l/m 2,0 km/h (1 Bft) N 5 0 min 0,000 mm 0,0 UV-I 129 W/m 16,1 C 23,8 C 3,2 km/h (1 Bft) 100,00 %
16.09.2019 17:28 23,8 C 16,1 C 24,4 C 64 % 1015,0 hPa 0,0 l/m 1,6 km/h (1 Bft) N 5 0 min 0,000 mm 0,0 UV-I 124 W/m 16,6 C 23,8 C 3,2 km/h (1 Bft) 100,00 %
16.09.2019 17:30 23,8 C 16,1 C 24,4 C 63 % 1015,0 hPa 0,0 l/m 1,6 km/h (1 Bft) N 5 0 min 0,000 mm 0,0 UV-I 121 W/m 16,3 C 23,8 C 3,2 km/h (1 Bft) 100,00 %
16.09.2019 17:32 23,8 C 16,1 C 24,4 C 64 % 1015,0 hPa 0,0 l/m 1,0 km/h (0 Bft) N 5 0 min 0,000 mm 0,0 UV-I 120 W/m 16,6 C 23,8 C 1,6 km/h (1 Bft) 100,00 %
16.09.2019 17:34 23,8 C 16,1 C 24,4 C 63 % 1014,9 hPa 0,0 l/m 1,1 km/h (1 Bft) N 5 0 min 0,000 mm 0,0 UV-I 117 W/m 16,3 C 23,8 C 3,2 km/h (1 Bft) 98,11 %
16.09.2019 17:36 23,8 C 16,1 C 24,4 C 66 % 1014,9 hPa 0,0 l/m 1,7 km/h (1 Bft) N 5 0 min 0,000 mm 0,0 UV-I 114 W/m 17,1 C 23,8 C 3,2 km/h (1 Bft) 100,00 %
16.09.2019 17:39 23,7 C 16,1 C 24,4 C 66 % 1014,9 hPa 0,0 l/m 2,5 km/h (1 Bft) N 5 0 min 0,000 mm 0,0 UV-I 114 W/m 17,0 C 23,7 C 4,8 km/h (1 Bft) 97,26 %
16.09.2019 17:40 23,7 C 16,1 C 24,4 C 67 % 1014,9 hPa 0,0 l/m 2,6 km/h (1 Bft) N 5 0 min 0,000 mm 0,0 UV-I 111 W/m 17,2 C 23,7 C 4,8 km/h (1 Bft) 95,83 %
16.09.2019 17:42 23,6 C 16,1 C 24,4 C 65 % 1014,9 hPa 0,0 l/m 6,2 km/h (2 Bft) N-NO 30 0 min 0,000 mm 0,0 UV-I 108 W/m 16,6 C 23,6 C 8,0 km/h (2 Bft) 100,00 %
16.09.2019 17:44 23,6 C 16,1 C 23,9 C 65 % 1014,9 hPa 0,0 l/m 4,7 km/h (1 Bft) N-NO 31 0 min 0,000 mm 0,0 UV-I 105 W/m 16,6 C 23,6 C 6,4 km/h (2 Bft) 100,00 %
16.09.2019 17:46 23,4 C 16,1 C 23,9 C 65 % 1014,9 hPa 0,0 l/m 3,2 km/h (1 Bft) N-NO 31 0 min 0,000 mm 0,0 UV-I 102 W/m 16,4 C 23,4 C 4,8 km/h (1 Bft) 100,00 %
16.09.2019 17:48 23,4 C 16,1 C 23,9 C 66 % 1014,9 hPa 0,0 l/m 1,6 km/h (1 Bft) N-NO 31 0 min 0,000 mm 0,0 UV-I 98 W/m 16,7 C 23,4 C 3,2 km/h (1 Bft) 97,87 %
16.09.2019 17:50 23,4 C 16,1 C 23,9 C 66 % 1014,9 hPa 0,0 l/m 1,7 km/h (1 Bft) N-NO 31 0 min 0,000 mm 0,0 UV-I 98 W/m 16,7 C 23,4 C 3,2 km/h (1 Bft) 97,87 %
16.09.2019 17:52 23,4 C 16,1 C 23,9 C 67 % 1014,9 hPa 0,0 l/m 2,4 km/h (1 Bft) N-NO 32 0 min 0,000 mm 0,0 UV-I 96 W/m 16,9 C 23,4 C 4,8 km/h (1 Bft) 95,74 %
16.09.2019 17:54 23,3 C 16,1 C 23,3 C 66 % 1014,9 hPa 0,0 l/m 4,8 km/h (1 Bft) NO 35 0 min 0,000 mm 0,0 UV-I 89 W/m 16,6 C 23,3 C 6,4 km/h (2 Bft) 100,00 %
16.09.2019 17:56 23,2 C 16,1 C 23,3 C 66 % 1014,9 hPa 0,0 l/m 5,4 km/h (1 Bft) NO 38 0 min 0,000 mm 0,0 UV-I 83 W/m 16,5 C 23,2 C 8,0 km/h (2 Bft) 93,62 %
16.09.2019 17:58 23,1 C 16,1 C 23,3 C 66 % 1014,9 hPa 0,0 l/m 5,5 km/h (1 Bft) N 5 0 min 0,000 mm 0,0 UV-I 77 W/m 16,4 C 23,1 C 8,0 km/h (2 Bft) 91,49 %
16.09.2019 18:00 23,1 C 16,1 C 22,8 C 66 % 1014,9 hPa 0,0 l/m 4,1 km/h (1 Bft) N 10 0 min 0,000 mm 0,0 UV-I 71 W/m 16,4 C 23,1 C 6,4 km/h (2 Bft) 97,92 %
16.09.2019 18:02 23,0 C 16,1 C 22,8 C 67 % 1014,9 hPa 0,0 l/m 2,8 km/h (1 Bft) N 10 0 min 0,101 mm 0,0 UV-I 70 W/m 16,5 C 23,0 C 4,8 km/h (1 Bft) 97,87 %
16.09.2019 18:04 22,9 C 16,1 C 22,8 C 67 % 1014,9 hPa 0,0 l/m 3,3 km/h (1 Bft) N 11 0 min 0,000 mm 0,0 UV-I 69 W/m 16,4 C 22,9 C 6,4 km/h (2 Bft) 95,74 %
16.09.2019 18:06 22,9 C 16,1 C 22,8 C 66 % 1014,9 hPa 0,0 l/m 2,8 km/h (1 Bft) N 11 0 min 0,000 mm 0,0 UV-I 66 W/m 16,2 C 22,9 C 4,8 km/h (1 Bft) 93,62 %
16.09.2019 18:08 22,9 C 16,1 C 22,8 C 67 % 1014,8 hPa 0,0 l/m 3,4 km/h (1 Bft) N-NO 21 0 min 0,000 mm 0,0 UV-I 63 W/m 16,4 C 22,9 C 4,8 km/h (1 Bft) 95,74 %
16.09.2019 18:10 22,9 C 16,1 C 22,8 C 67 % 1014,8 hPa 0,0 l/m 5,2 km/h (1 Bft) N 5 0 min 0,000 mm 0,0 UV-I 61 W/m 16,4 C 22,9 C 6,4 km/h (2 Bft) 95,74 %
16.09.2019 18:12 22,8 C 16,1 C 22,2 C 67 % 1014,8 hPa 0,0 l/m 2,7 km/h (1 Bft) N 5 0 min 0,000 mm 0,0 UV-I 60 W/m 16,3 C 22,8 C 4,8 km/h (1 Bft) 96,00 %
16.09.2019 18:14 22,7 C 16,1 C 22,2 C 68 % 1014,7 hPa 0,0 l/m 3,0 km/h (1 Bft) N 5 0 min 0,000 mm 0,0 UV-I 57 W/m 16,5 C 22,7 C 4,8 km/h (1 Bft) 93,62 %
16.09.2019 18:16 22,7 C 16,1 C 22,2 C 68 % 1014,8 hPa 0,0 l/m 2,9 km/h (1 Bft) N 5 0 min 0,000 mm 0,0 UV-I 54 W/m 16,5 C 22,7 C 4,8 km/h (1 Bft) 89,47 %
16.09.2019 18:18 22,6 C 16,1 C 22,2 C 67 % 1014,8 hPa 0,0 l/m 2,4 km/h (1 Bft) N 5 0 min 0,000 mm 0,0 UV-I 50 W/m 16,2 C 22,6 C 4,8 km/h (1 Bft) 95,74 %
16.09.2019 18:20 22,6 C 16,1 C 22,2 C 68 % 1014,8 hPa 0,0 l/m 3,3 km/h (1 Bft) N 5 0 min 0,000 mm 0,0 UV-I 47 W/m 16,4 C 22,6 C 4,8 km/h (1 Bft) 93,62 %
16.09.2019 18:22 22,6 C 16,1 C 21,7 C 68 % 1014,7 hPa 0,0 l/m 2,7 km/h (1 Bft) N 5 0 min 0,000 mm 0,0 UV-I 44 W/m 16,4 C 22,6 C 4,8 km/h (1 Bft) 95,74 %
16.09.2019 18:24 22,5 C 16,1 C 21,7 C 68 % 1014,8 hPa 0,0 l/m 3,2 km/h (1 Bft) N 5 0 min 0,000 mm 0,0 UV-I 44 W/m 16,3 C 22,5 C 4,8 km/h (1 Bft) 95,74 %
16.09.2019 18:26 22,5 C 16,1 C 21,7 C 67 % 1014,7 hPa 0,0 l/m 3,4 km/h (1 Bft) N 5 0 min 0,000 mm 0,0 UV-I 44 W/m 16,1 C 22,5 C 4,8 km/h (1 Bft) 93,62 %
16.09.2019 18:28 22,4 C 16,1 C 21,7 C 68 % 1014,7 hPa 0,0 l/m 3,0 km/h (1 Bft) N 5 0 min 0,000 mm 0,0 UV-I 44 W/m 16,2 C 22,4 C 4,8 km/h (1 Bft) 95,74 %
16.09.2019 18:30 22,4 C 16,1 C 21,7 C 68 % 1014,7 hPa 0,0 l/m 2,8 km/h (1 Bft) N 5 0 min 0,000 mm 0,0 UV-I 43 W/m 16,2 C 22,4 C 3,2 km/h (1 Bft) 100,00 %
16.09.2019 18:32 22,3 C 16,1 C 21,1 C 69 % 1014,7 hPa 0,0 l/m 2,5 km/h (1 Bft) N 5 0 min 0,000 mm 0,0 UV-I 41 W/m 16,3 C 22,3 C 4,8 km/h (1 Bft) 97,87 %
16.09.2019 18:34 22,2 C 16,1 C 21,1 C 69 % 1014,7 hPa 0,0 l/m 2,4 km/h (1 Bft) N 5 0 min 0,000 mm 0,0 UV-I 40 W/m 16,2 C 22,2 C 3,2 km/h (1 Bft) 97,87 %
16.09.2019 18:36 22,2 C 16,1 C 21,1 C 69 % 1014,6 hPa 0,0 l/m 2,2 km/h (1 Bft) N 5 0 min 0,000 mm 0,0 UV-I 38 W/m 16,2 C 22,2 C 3,2 km/h (1 Bft) 97,87 %
16.09.2019 18:38 22,2 C 16,1 C 21,1 C 69 % 1014,6 hPa 0,0 l/m 1,6 km/h (1 Bft) N 5 0 min 0,000 mm 0,0 UV-I 34 W/m 16,2 C 22,2 C 3,2 km/h (1 Bft) 97,87 %
16.09.2019 18:40 22,2 C 16,1 C 20,6 C 69 % 1014,6 hPa 0,0 l/m 1,4 km/h (1 Bft) N 5 0 min 0,000 mm 0,0 UV-I 31 W/m 16,2 C 22,2 C 1,6 km/h (1 Bft) 97,87 %
16.09.2019 18:42 22,1 C 16,1 C 20,6 C 69 % 1014,6 hPa 0,0 l/m 0,1 km/h (0 Bft) N 5 0 min 0,000 mm 0,0 UV-I 27 W/m 16,1 C 22,1 C 1,6 km/h (1 Bft) 100,00 %
16.09.2019 18:44 22,2 C 16,1 C 20,6 C 68 % 1014,6 hPa 0,0 l/m 0,6 km/h (0 Bft) N 5 0 min 0,000 mm 0,0 UV-I 24 W/m 16,0 C 22,2 C 1,6 km/h (1 Bft) 97,87 %
16.09.2019 18:46 22,2 C 16,1 C 20,6 C 70 % 1014,6 hPa 0,0 l/m 0,2 km/h (0 Bft) N 5 0 min 0,000 mm 0,0 UV-I 21 W/m 16,5 C 22,2 C 1,6 km/h (1 Bft) 97,87 %
16.09.2019 18:48 21,9 C 16,1 C 20,0 C 74 % 1014,6 hPa 0,0 l/m 1,4 km/h (1 Bft) N 5 0 min 0,000 mm 0,0 UV-I 20 W/m 17,0 C 21,9 C 3,2 km/h (1 Bft) 97,87 %
16.09.2019 18:50 21,7 C 16,1 C 20,0 C 75 % 1014,6 hPa 0,0 l/m 2,0 km/h (1 Bft) N 5 0 min 0,000 mm 0,0 UV-I 19 W/m 17,1 C 21,7 C 3,2 km/h (1 Bft) 100,00 %
16.09.2019 18:52 21,6 C 16,1 C 20,6 C 77 % 1014,6 hPa 0,0 l/m 2,0 km/h (1 Bft) N 5 0 min 0,000 mm 0,0 UV-I 18 W/m 17,4 C 21,6 C 3,2 km/h (1 Bft) 100,00 %
16.09.2019 18:54 21,4 C 16,1 C 20,6 C 76 % 1014,6 hPa 0,0 l/m 3,1 km/h (1 Bft) N-NO 26 0 min 0,000 mm 0,0 UV-I 16 W/m 17,0 C 21,4 C 3,2 km/h (1 Bft) 100,00 %
16.09.2019 18:56 21,3 C 16,1 C 20,6 C 77 % 1014,6 hPa 0,0 l/m 3,1 km/h (1 Bft) N-NO 28 0 min 0,000 mm 0,0 UV-I 13 W/m 17,1 C 21,3 C 3,2 km/h (1 Bft) 100,00 %
16.09.2019 18:58 21,2 C 16,1 C 20,0 C 77 % 1014,6 hPa 0,0 l/m 2,1 km/h (1 Bft) N-NO 28 0 min 0,000 mm 0,0 UV-I 12 W/m 17,0 C 21,2 C 3,2 km/h (1 Bft) 97,87 %
16.09.2019 19:00 21,1 C 16,1 C 20,0 C 77 % 1014,6 hPa 0,0 l/m 2,2 km/h (1 Bft) N-NO 28 0 min 0,000 mm 0,0 UV-I 11 W/m 16,9 C 21,1 C 3,2 km/h (1 Bft) 100,00 %
16.09.2019 19:02 21,1 C 16,1 C 20,0 C 77 % 1014,6 hPa 0,0 l/m 1,7 km/h (1 Bft) N-NO 28 0 min 0,051 mm 0,0 UV-I 9 W/m 16,9 C 21,1 C 3,2 km/h (1 Bft) 100,00 %
16.09.2019 19:04 21,0 C 16,1 C 20,0 C 78 % 1014,5 hPa 0,0 l/m 2,3 km/h (1 Bft) N-NO 28 0 min 0,000 mm 0,0 UV-I 9 W/m 17,0 C 21,0 C 3,2 km/h (1 Bft) 100,00 %
16.09.2019 19:06 20,9 C 16,1 C 20,0 C 78 % 1014,5 hPa 0,0 l/m 1,6 km/h (1 Bft) N-NO 28 0 min 0,000 mm 0,0 UV-I 7 W/m 16,9 C 20,9 C 3,2 km/h (1 Bft) 100,00 %
16.09.2019 19:08 20,9 C 16,1 C 20,0 C 78 % 1014,6 hPa 0,0 l/m 0,9 km/h (0 Bft) N-NO 28 0 min 0,000 mm 0,0 UV-I 7 W/m 16,9 C 20,9 C 1,6 km/h (1 Bft) 100,00 %
16.09.2019 19:10 20,9 C 16,1 C 20,0 C 79 % 1014,6 hPa 0,0 l/m 0,0 km/h (0 Bft) N-NO 28 0 min 0,000 mm 0,0 UV-I 7 W/m 17,1 C 20,9 C 0,0 km/h (0 Bft) 100,00 %
16.09.2019 19:12 20,8 C 16,1 C 20,0 C 79 % 1014,6 hPa 0,0 l/m 0,5 km/h (0 Bft) N-NO 28 0 min 0,000 mm 0,0 UV-I 5 W/m 17,0 C 20,8 C 1,6 km/h (1 Bft) 100,00 %
16.09.2019 19:14 20,8 C 16,1 C 19,4 C 79 % 1014,6 hPa 0,0 l/m 1,0 km/h (0 Bft) N-NO 28 0 min 0,000 mm 0,0 UV-I 5 W/m 17,0 C 20,8 C 1,6 km/h (1 Bft) 100,00 %
16.09.2019 19:16 20,8 C 16,1 C 19,4 C 78 % 1014,6 hPa 0,0 l/m 0,4 km/h (0 Bft) N-NO 28 0 min 0,000 mm 0,0 UV-I 5 W/m 16,8 C 20,8 C 1,6 km/h (1 Bft) 100,00 %
16.09.2019 19:18 20,9 C 16,1 C 19,4 C 78 % 1014,6 hPa 0,0 l/m 0,3 km/h (0 Bft) N-NO 28 0 min 0,000 mm 0,0 UV-I 5 W/m 16,9 C 20,9 C 1,6 km/h (1 Bft) 100,00 %
16.09.2019 19:20 20,9 C 16,1 C 19,4 C 77 % 1014,6 hPa 0,0 l/m 0,0 km/h (0 Bft) N-NO 28 0 min 0,000 mm 0,0 UV-I 3 W/m 16,7 C 20,9 C 0,0 km/h (0 Bft) 97,87 %
16.09.2019 19:22 20,9 C 16,1 C 19,4 C 79 % 1014,7 hPa 0,0 l/m 0,0 km/h (0 Bft) N-NO 28 0 min 0,000 mm 0,0 UV-I 0 W/m 17,1 C 20,9 C 0,0 km/h (0 Bft) 97,87 %
16.09.2019 19:24 20,8 C 16,1 C 18,9 C 80 % 1014,6 hPa 0,0 l/m 0,3 km/h (0 Bft) N-NO 28 0 min 0,000 mm 0,0 UV-I 0 W/m 17,2 C 20,8 C 1,6 km/h (1 Bft) 97,87 %
16.09.2019 19:26 20,6 C 16,1 C 18,9 C 79 % 1014,6 hPa 0,0 l/m 2,0 km/h (1 Bft) N-NO 28 0 min 0,000 mm 0,0 UV-I 0 W/m 16,8 C 20,6 C 3,2 km/h (1 Bft) 97,87 %
16.09.2019 19:28 20,4 C 16,1 C 18,9 C 79 % 1014,6 hPa 0,0 l/m 3,1 km/h (1 Bft) N-NO 28 0 min 0,000 mm 0,0 UV-I 0 W/m 16,6 C 20,4 C 4,8 km/h (1 Bft) 94,74 %
16.09.2019 19:30 20,3 C 16,1 C 18,9 C 80 % 1014,6 hPa 0,0 l/m 2,6 km/h (1 Bft) N-NO 28 0 min 0,000 mm 0,0 UV-I 0 W/m 16,7 C 20,3 C 4,8 km/h (1 Bft) 100,00 %
16.09.2019 19:32 20,2 C 16,1 C 18,9 C 80 % 1014,6 hPa 0,0 l/m 1,8 km/h (1 Bft) N-NO 28 0 min 0,000 mm 0,0 UV-I 0 W/m 16,6 C 20,2 C 3,2 km/h (1 Bft) 100,00 %
16.09.2019 19:34 20,1 C 16,1 C 18,9 C 80 % 1014,7 hPa 0,0 l/m 1,8 km/h (1 Bft) N-NO 28 0 min 0,000 mm 0,0 UV-I 0 W/m 16,5 C 20,1 C 3,2 km/h (1 Bft) 100,00 %
16.09.2019 19:36 20,1 C 16,1 C 18,3 C 80 % 1014,6 hPa 0,0 l/m 2,3 km/h (1 Bft) N-NO 28 0 min 0,000 mm 0,0 UV-I 0 W/m 16,5 C 20,1 C 3,2 km/h (1 Bft) 95,74 %
16.09.2019 19:38 20,2 C 16,1 C 18,9 C 80 % 1014,6 hPa 0,0 l/m 2,6 km/h (1 Bft) N-NO 28 0 min 0,000 mm 0,0 UV-I 0 W/m 16,6 C 20,2 C 3,2 km/h (1 Bft) 96,23 %
16.09.2019 19:40 20,3 C 16,1 C 18,9 C 79 % 1014,6 hPa 0,0 l/m 2,6 km/h (1 Bft) N-NO 29 0 min 0,000 mm 0,0 UV-I 0 W/m 16,5 C 20,3 C 4,8 km/h (1 Bft) 93,62 %
16.09.2019 19:42 20,2 C 16,1 C 18,9 C 78 % 1014,7 hPa 0,0 l/m 2,0 km/h (1 Bft) NO 38 0 min 0,000 mm 0,0 UV-I 0 W/m 16,2 C 20,2 C 3,2 km/h (1 Bft) 92,00 %
16.09.2019 19:44 20,2 C 16,1 C 18,9 C 79 % 1014,7 hPa 0,0 l/m 1,4 km/h (1 Bft) NO 38 0 min 0,000 mm 0,0 UV-I 0 W/m 16,4 C 20,2 C 3,2 km/h (1 Bft) 95,74 %
16.09.2019 19:46 20,0 C 16,1 C 18,9 C 80 % 1014,7 hPa 0,0 l/m 0,3 km/h (0 Bft) NO 37 0 min 0,000 mm 0,0 UV-I 0 W/m 16,4 C 20,0 C 1,6 km/h (1 Bft) 100,00 %
16.09.2019 19:48 19,9 C 16,1 C 18,9 C 80 % 1014,7 hPa 0,0 l/m 0,0 km/h (0 Bft) NO 37 0 min 0,000 mm 0,0 UV-I 0 W/m 16,3 C 19,9 C 0,0 km/h (0 Bft) 95,74 %
16.09.2019 19:50 19,9 C 16,1 C 18,3 C 80 % 1014,7 hPa 0,0 l/m 0,0 km/h (0 Bft) NO 37 0 min 0,000 mm 0,0 UV-I 0 W/m 16,3 C 19,9 C 0,0 km/h (0 Bft) 97,87 %
16.09.2019 19:52 19,9 C 16,1 C 18,3 C 80 % 1014,7 hPa 0,0 l/m 0,0 km/h (0 Bft) NO 37 0 min 0,000 mm 0,0 UV-I 0 W/m 16,3 C 19,9 C 0,0 km/h (0 Bft) 97,87 %
16.09.2019 19:54 19,9 C 16,1 C 18,3 C 81 % 1014,8 hPa 0,0 l/m 0,0 km/h (0 Bft) NO 37 0 min 0,000 mm 0,0 UV-I 0 W/m 16,5 C 19,9 C 0,0 km/h (0 Bft) 93,62 %
16.09.2019 19:56 19,9 C 16,1 C 18,3 C 81 % 1014,8 hPa 0,0 l/m 0,0 km/h (0 Bft) NO 37 0 min 0,000 mm 0,0 UV-I 0 W/m 16,5 C 19,9 C 0,0 km/h (0 Bft) 95,74 %
16.09.2019 19:58 20,0 C 16,1 C 18,3 C 81 % 1014,8 hPa 0,0 l/m 0,0 km/h (0 Bft) NO 37 0 min 0,000 mm 0,0 UV-I 0 W/m 16,6 C 20,0 C 0,0 km/h (0 Bft) 93,75 %
16.09.2019 20:00 20,1 C 16,1 C 18,3 C 80 % 1014,9 hPa 0,0 l/m 0,0 km/h (0 Bft) NO 37 0 min 0,000 mm 0,0 UV-I 0 W/m 16,5 C 20,1 C 0,0 km/h (0 Bft) 95,74 %
16.09.2019 20:02 20,1 C 16,1 C 18,3 C 80 % 1014,8 hPa 0,0 l/m 0,8 km/h (0 Bft) NO 37 0 min 0,000 mm 0,0 UV-I 0 W/m 16,5 C 20,1 C 1,6 km/h (1 Bft) 97,87 %
16.09.2019 20:04 20,0 C 16,1 C 18,3 C 79 % 1014,9 hPa 0,0 l/m 0,3 km/h (0 Bft) NO 37 0 min 0,000 mm 0,0 UV-I 0 W/m 16,2 C 20,0 C 1,6 km/h (1 Bft) 95,74 %
16.09.2019 20:06 20,0 C 16,1 C 18,3 C 79 % 1014,9 hPa 0,0 l/m 0,0 km/h (0 Bft) NO 37 0 min 0,000 mm 0,0 UV-I 0 W/m 16,2 C 20,0 C 0,0 km/h (0 Bft) 97,87 %
16.09.2019 20:08 20,1 C 16,1 C 18,3 C 78 % 1014,9 hPa 0,0 l/m 0,0 km/h (0 Bft) NO 37 0 min 0,000 mm 0,0 UV-I 0 W/m 16,1 C 20,1 C 0,0 km/h (0 Bft) 95,74 %
16.09.2019 20:10 20,2 C 16,1 C 18,3 C 80 % 1014,9 hPa 0,0 l/m 0,4 km/h (0 Bft) NO 37 0 min 0,000 mm 0,0 UV-I 0 W/m 16,6 C 20,2 C 1,6 km/h (1 Bft) 95,74 %
16.09.2019 20:12 20,1 C 16,1 C 18,3 C 81 % 1014,9 hPa 0,0 l/m 1,1 km/h (1 Bft) NO 37 0 min 0,000 mm 0,0 UV-I 0 W/m 16,7 C 20,1 C 3,2 km/h (1 Bft) 95,12 %
16.09.2019 20:14 19,9 C 16,1 C 18,3 C 81 % 1014,9 hPa 0,0 l/m 3,3 km/h (1 Bft) O-NO 75 0 min 0,000 mm 0,0 UV-I 0 W/m 16,5 C 19,9 C 4,8 km/h (1 Bft) 96,00 %
16.09.2019 20:16 19,9 C 16,1 C 18,9 C 81 % 1014,9 hPa 0,0 l/m 3,7 km/h (1 Bft) O-NO 78 0 min 0,000 mm 0,0 UV-I 0 W/m 16,5 C 19,9 C 4,8 km/h (1 Bft) 93,62 %
16.09.2019 20:18 19,8 C 16,1 C 18,9 C 81 % 1014,8 hPa 0,0 l/m 4,4 km/h (1 Bft) O 82 0 min 0,000 mm 0,0 UV-I 0 W/m 16,4 C 19,8 C 4,8 km/h (1 Bft) 94,00 %
16.09.2019 20:20 19,6 C 16,1 C 18,3 C 81 % 1014,8 hPa 0,0 l/m 3,0 km/h (1 Bft) O 94 0 min 0,000 mm 0,0 UV-I 0 W/m 16,2 C 19,6 C 4,8 km/h (1 Bft) 95,74 %
16.09.2019 20:22 19,3 C 16,1 C 18,3 C 82 % 1014,8 hPa 0,0 l/m 2,3 km/h (1 Bft) O 94 0 min 0,000 mm 0,0 UV-I 0 W/m 16,1 C 19,3 C 3,2 km/h (1 Bft) 95,74 %
16.09.2019 20:24 19,2 C 16,1 C 18,3 C 82 % 1014,8 hPa 0,0 l/m 1,8 km/h (1 Bft) O 94 0 min 0,000 mm 0,0 UV-I 0 W/m 16,0 C 19,2 C 3,2 km/h (1 Bft) 95,74 %
16.09.2019 20:26 19,2 C 16,1 C 18,3 C 81 % 1014,8 hPa 0,0 l/m 1,8 km/h (1 Bft) O 94 0 min 0,000 mm 0,0 UV-I 0 W/m 15,9 C 19,2 C 3,2 km/h (1 Bft) 91,49 %
16.09.2019 20:28 19,4 C 16,1 C 18,3 C 81 % 1014,8 hPa 0,0 l/m 2,6 km/h (1 Bft) O 94 0 min 0,000 mm 0,0 UV-I 0 W/m 16,1 C 19,4 C 3,2 km/h (1 Bft) 95,74 %
16.09.2019 20:30 19,5 C 16,1 C 18,3 C 80 % 1014,7 hPa 0,0 l/m 2,5 km/h (1 Bft) O 94 0 min 0,000 mm 0,0 UV-I 0 W/m 16,0 C 19,5 C 3,2 km/h (1 Bft) 97,92 %
16.09.2019 20:32 19,6 C 16,1 C 18,9 C 80 % 1014,7 hPa 0,0 l/m 3,2 km/h (1 Bft) O 94 0 min 0,000 mm 0,0 UV-I 0 W/m 16,1 C 19,6 C 4,8 km/h (1 Bft) 97,96 %
16.09.2019 20:34 19,6 C 16,1 C 18,9 C 79 % 1014,8 hPa 0,0 l/m 2,5 km/h (1 Bft) O 94 0 min 0,000 mm 0,0 UV-I 0 W/m 15,9 C 19,6 C 3,2 km/h (1 Bft) 97,44 %
16.09.2019 20:36 19,5 C 16,1 C 18,9 C 79 % 1014,8 hPa 0,0 l/m 1,9 km/h (1 Bft) O 94 0 min 0,000 mm 0,0 UV-I 0 W/m 15,8 C 19,5 C 3,2 km/h (1 Bft) 97,87 %
16.09.2019 20:38 19,6 C 16,1 C 18,9 C 79 % 1014,8 hPa 0,0 l/m 2,3 km/h (1 Bft) O 94 0 min 0,000 mm 0,0 UV-I 0 W/m 15,9 C 19,6 C 3,2 km/h (1 Bft) 97,87 %
16.09.2019 20:40 19,6 C 16,1 C 18,9 C 80 % 1014,7 hPa 0,0 l/m 2,9 km/h (1 Bft) O 94 0 min 0,000 mm 0,0 UV-I 0 W/m 16,1 C 19,6 C 4,8 km/h (1 Bft) 94,29 %
16.09.2019 20:42 19,4 C 16,1 C 18,9 C 81 % 1014,8 hPa 0,0 l/m 2,9 km/h (1 Bft) O 94 0 min 0,000 mm 0,0 UV-I 0 W/m 16,1 C 19,4 C 3,2 km/h (1 Bft) 93,55 %
16.09.2019 20:44 19,4 C 16,1 C 18,9 C 80 % 1014,9 hPa 0,0 l/m 3,0 km/h (1 Bft) O 94 0 min 0,000 mm 0,0 UV-I 0 W/m 15,9 C 19,4 C 3,2 km/h (1 Bft) 97,87 %
16.09.2019 20:46 19,4 C 16,1 C 18,9 C 80 % 1014,9 hPa 0,0 l/m 2,2 km/h (1 Bft) O 94 0 min 0,000 mm 0,0 UV-I 0 W/m 15,9 C 19,4 C 3,2 km/h (1 Bft) 97,87 %
16.09.2019 20:48 19,5 C 16,1 C 18,9 C 80 % 1014,9 hPa 0,0 l/m 1,6 km/h (1 Bft) O 94 0 min 0,000 mm 0,0 UV-I 0 W/m 16,0 C 19,5 C 1,6 km/h (1 Bft) 97,87 %
16.09.2019 20:50 19,5 C 16,1 C 18,3 C 81 % 1014,9 hPa 0,0 l/m 1,2 km/h (1 Bft) O 94 0 min 0,000 mm 0,0 UV-I 0 W/m 16,1 C 19,5 C 1,6 km/h (1 Bft) 96,00 %
16.09.2019 20:52 19,4 C 16,1 C 18,3 C 81 % 1015,0 hPa 0,0 l/m 0,6 km/h (0 Bft) O 94 0 min 0,000 mm 0,0 UV-I 0 W/m 16,1 C 19,4 C 1,6 km/h (1 Bft) 97,87 %
16.09.2019 20:54 19,4 C 16,1 C 18,3 C 81 % 1015,0 hPa 0,0 l/m 0,3 km/h (0 Bft) O 94 0 min 0,000 mm 0,0 UV-I 0 W/m 16,1 C 19,4 C 1,6 km/h (1 Bft) 97,87 %
16.09.2019 20:56 19,4 C 16,1 C 18,3 C 81 % 1015,0 hPa 0,0 l/m 0,6 km/h (0 Bft) O 94 0 min 0,000 mm 0,0 UV-I 0 W/m 16,1 C 19,4 C 1,6 km/h (1 Bft) 97,87 %
16.09.2019 20:58 19,4 C 16,1 C 18,3 C 81 % 1015,0 hPa 0,0 l/m 1,4 km/h (1 Bft) O 94 0 min 0,000 mm 0,0 UV-I 0 W/m 16,1 C 19,4 C 3,2 km/h (1 Bft) 100,00 %
16.09.2019 21:00 19,4 C 16,1 C 18,3 C 81 % 1014,9 hPa 0,0 l/m 2,3 km/h (1 Bft) O 94 0 min 0,000 mm 0,0 UV-I 0 W/m 16,1 C 19,4 C 3,2 km/h (1 Bft) 97,44 %
16.09.2019 21:02 19,4 C 16,1 C 18,3 C 81 % 1015,0 hPa 0,0 l/m 2,2 km/h (1 Bft) O 94 0 min 0,000 mm 0,0 UV-I 0 W/m 16,1 C 19,4 C 3,2 km/h (1 Bft) 93,62 %
16.09.2019 21:04 19,4 C 16,1 C 18,3 C 81 % 1015,0 hPa 0,0 l/m 1,6 km/h (1 Bft) O 94 0 min 0,000 mm 0,0 UV-I 0 W/m 16,1 C 19,4 C 3,2 km/h (1 Bft) 97,87 %
16.09.2019 21:06 19,4 C 16,1 C 18,3 C 81 % 1015,0 hPa 0,0 l/m 0,9 km/h (0 Bft) O 94 0 min 0,000 mm 0,0 UV-I 0 W/m 16,1 C 19,4 C 1,6 km/h (1 Bft) 93,62 %
16.09.2019 21:08 19,4 C 16,1 C 18,3 C 80 % 1015,0 hPa 0,0 l/m 1,4 km/h (1 Bft) O 94 0 min 0,000 mm 0,0 UV-I 0 W/m 15,9 C 19,4 C 3,2 km/h (1 Bft) 95,74 %
16.09.2019 21:10 19,4 C 16,1 C 18,3 C 81 % 1015,0 hPa 0,0 l/m 2,1 km/h (1 Bft) O 94 0 min 0,000 mm 0,0 UV-I 0 W/m 16,1 C 19,4 C 3,2 km/h (1 Bft) 93,62 %
16.09.2019 21:12 19,4 C 16,1 C 18,3 C 81 % 1015,0 hPa 0,0 l/m 1,9 km/h (1 Bft) O 94 0 min 0,000 mm 0,0 UV-I 0 W/m 16,1 C 19,4 C 3,2 km/h (1 Bft) 96,00 %
16.09.2019 21:14 19,4 C 16,1 C 18,3 C 81 % 1014,9 hPa 0,0 l/m 1,6 km/h (1 Bft) O 94 0 min 0,000 mm 0,0 UV-I 0 W/m 16,1 C 19,4 C 3,2 km/h (1 Bft) 97,87 %
16.09.2019 21:16 19,3 C 16,1 C 18,3 C 81 % 1014,9 hPa 0,0 l/m 2,0 km/h (1 Bft) O 94 0 min 0,000 mm 0,0 UV-I 0 W/m 16,0 C 19,3 C 3,2 km/h (1 Bft) 97,87 %
16.09.2019 21:18 19,2 C 16,1 C 18,3 C 81 % 1014,9 hPa 0,0 l/m 1,4 km/h (1 Bft) O 94 0 min 0,000 mm 0,0 UV-I 0 W/m 15,9 C 19,2 C 1,6 km/h (1 Bft) 97,87 %
16.09.2019 21:20 19,1 C 16,1 C 18,3 C 82 % 1014,8 hPa 0,0 l/m 1,9 km/h (1 Bft) O 94 0 min 0,000 mm 0,0 UV-I 0 W/m 16,0 C 19,1 C 3,2 km/h (1 Bft) 97,87 %
16.09.2019 21:22 19,1 C 16,1 C 17,8 C 81 % 1014,8 hPa 0,0 l/m 2,3 km/h (1 Bft) O 94 0 min 0,000 mm 0,0 UV-I 0 W/m 15,8 C 19,1 C 3,2 km/h (1 Bft) 97,87 %
16.09.2019 21:24 19,1 C 16,1 C 17,8 C 82 % 1014,9 hPa 0,0 l/m 3,0 km/h (1 Bft) O 96 0 min 0,000 mm 0,0 UV-I 0 W/m 16,0 C 19,1 C 4,8 km/h (1 Bft) 95,74 %
16.09.2019 21:26 19,1 C 16,1 C 17,8 C 82 % 1015,0 hPa 0,0 l/m 1,0 km/h (0 Bft) O 96 0 min 0,000 mm 0,0 UV-I 0 W/m 16,0 C 19,1 C 3,2 km/h (1 Bft) 96,00 %
16.09.2019 21:28 19,2 C 16,1 C 17,8 C 82 % 1015,0 hPa 0,0 l/m 1,9 km/h (1 Bft) O 96 0 min 0,000 mm 0,0 UV-I 0 W/m 16,0 C 19,2 C 3,2 km/h (1 Bft) 97,22 %
16.09.2019 21:30 19,3 C 16,1 C 18,3 C 81 % 1015,0 hPa 0,0 l/m 2,5 km/h (1 Bft) O 96 0 min 0,000 mm 0,0 UV-I 0 W/m 16,0 C 19,3 C 3,2 km/h (1 Bft) 97,87 %
16.09.2019 21:32 19,3 C 16,1 C 18,3 C 81 % 1015,0 hPa 0,0 l/m 3,1 km/h (1 Bft) S 173 0 min 0,000 mm 0,0 UV-I 0 W/m 16,0 C 19,3 C 4,8 km/h (1 Bft) 97,87 %
16.09.2019 21:34 19,3 C 16,1 C 18,3 C 81 % 1015,0 hPa 0,0 l/m 4,0 km/h (1 Bft) S-SW 194 0 min 0,000 mm 0,0 UV-I 0 W/m 16,0 C 19,3 C 4,8 km/h (1 Bft) 100,00 %
16.09.2019 21:36 19,3 C 16,1 C 18,9 C 81 % 1014,9 hPa 0,0 l/m 4,0 km/h (1 Bft) S-SW 194 0 min 0,000 mm 0,0 UV-I 0 W/m 16,0 C 19,3 C 4,8 km/h (1 Bft) 100,00 %
16.09.2019 21:38 19,2 C 16,1 C 18,9 C 82 % 1014,8 hPa 0,0 l/m 2,7 km/h (1 Bft) S-SW 194 0 min 0,000 mm 0,0 UV-I 0 W/m 16,0 C 19,2 C 4,8 km/h (1 Bft) 97,87 %
16.09.2019 21:40 19,2 C 16,1 C 18,9 C 82 % 1014,8 hPa 0,0 l/m 2,8 km/h (1 Bft) S-SW 194 0 min 0,000 mm 0,0 UV-I 0 W/m 16,0 C 19,2 C 3,2 km/h (1 Bft) 97,87 %
16.09.2019 21:42 19,2 C 16,1 C 18,9 C 82 % 1014,8 hPa 0,0 l/m 3,6 km/h (1 Bft) S-SW 194 0 min 0,000 mm 0,0 UV-I 0 W/m 16,0 C 19,2 C 4,8 km/h (1 Bft) 97,87 %
16.09.2019 21:44 19,2 C 16,1 C 18,9 C 83 % 1014,8 hPa 0,0 l/m 5,1 km/h (1 Bft) S-SW 194 0 min 0,000 mm 0,0 UV-I 0 W/m 16,2 C 19,2 C 6,4 km/h (2 Bft) 100,00 %
16.09.2019 21:46 19,1 C 16,1 C 18,9 C 83 % 1014,8 hPa 0,0 l/m 3,7 km/h (1 Bft) S-SW 194 0 min 0,000 mm 0,0 UV-I 0 W/m 16,1 C 19,1 C 6,4 km/h (2 Bft) 97,87 %
16.09.2019 21:48 19,1 C 16,1 C 18,9 C 83 % 1014,7 hPa 0,0 l/m 2,2 km/h (1 Bft) S-SW 194 0 min 0,000 mm 0,0 UV-I 0 W/m 16,1 C 19,1 C 3,2 km/h (1 Bft) 98,00 %
16.09.2019 21:50 19,0 C 16,1 C 18,9 C 83 % 1014,8 hPa 0,0 l/m 2,4 km/h (1 Bft) S-SW 194 0 min 0,000 mm 0,0 UV-I 0 W/m 16,0 C 19,0 C 4,8 km/h (1 Bft) 98,00 %
16.09.2019 21:52 19,1 C 16,1 C 18,9 C 83 % 1014,8 hPa 0,0 l/m 2,7 km/h (1 Bft) S-SW 194 0 min 0,000 mm 0,0 UV-I 0 W/m 16,1 C 19,1 C 4,8 km/h (1 Bft) 100,00 %
16.09.2019 21:54 19,3 C 16,1 C 18,9 C 82 % 1014,8 hPa 0,0 l/m 2,2 km/h (1 Bft) S-SW 194 0 min 0,000 mm 0,0 UV-I 0 W/m 16,1 C 19,3 C 3,2 km/h (1 Bft) 100,00 %
16.09.2019 21:56 19,4 C 16,1 C 18,9 C 82 % 1015,0 hPa 0,0 l/m 3,1 km/h (1 Bft) S-SW 195 0 min 0,000 mm 0,0 UV-I 0 W/m 16,2 C 19,4 C 3,2 km/h (1 Bft) 98,08 %
16.09.2019 21:58 19,4 C 16,1 C 18,9 C 83 % 1015,1 hPa 0,0 l/m 2,8 km/h (1 Bft) SW 232 0 min 0,000 mm 0,0 UV-I 0 W/m 16,4 C 19,4 C 4,8 km/h (1 Bft) 97,87 %
16.09.2019 22:00 19,3 C 16,1 C 18,3 C 83 % 1015,2 hPa 0,0 l/m 3,5 km/h (1 Bft) SW 234 0 min 0,000 mm 0,0 UV-I 0 W/m 16,3 C 19,3 C 4,8 km/h (1 Bft) 91,49 %
16.09.2019 22:02 19,1 C 16,1 C 17,8 C 84 % 1015,3 hPa 0,4 l/m 1,8 km/h (1 Bft) W-SW 250 0 min 0,000 mm 0,0 UV-I 0 W/m 16,3 C 19,1 C 3,2 km/h (1 Bft) 97,87 %
16.09.2019 22:04 18,8 C 16,1 C 17,8 C 86 % 1015,2 hPa 0,4 l/m 2,4 km/h (1 Bft) NW 316 0 min 0,000 mm 0,0 UV-I 0 W/m 16,4 C 18,8 C 4,8 km/h (1 Bft) 97,87 %
16.09.2019 22:06 18,7 C 16,1 C 17,8 C 87 % 1015,2 hPa 0,0 l/m 3,0 km/h (1 Bft) O-NO 67 0 min 0,000 mm 0,0 UV-I 0 W/m 16,5 C 18,7 C 4,8 km/h (1 Bft) 97,22 %
16.09.2019 22:08 18,5 C 16,1 C 17,8 C 87 % 1015,1 hPa 0,0 l/m 1,7 km/h (1 Bft) O 84 0 min 0,000 mm 0,0 UV-I 0 W/m 16,3 C 18,5 C 3,2 km/h (1 Bft) 96,77 %
16.09.2019 22:10 18,5 C 16,1 C 17,8 C 88 % 1015,1 hPa 0,0 l/m 2,9 km/h (1 Bft) S 184 0 min 0,000 mm 0,0 UV-I 0 W/m 16,5 C 18,5 C 4,8 km/h (1 Bft) 95,74 %
16.09.2019 22:12 18,4 C 16,1 C 17,8 C 88 % 1015,0 hPa 0,0 l/m 1,1 km/h (1 Bft) S 183 0 min 0,000 mm 0,0 UV-I 0 W/m 16,4 C 18,4 C 3,2 km/h (1 Bft) 97,87 %
16.09.2019 22:14 18,4 C 16,1 C 17,8 C 88 % 1015,0 hPa 0,0 l/m 2,7 km/h (1 Bft) S 183 0 min 0,000 mm 0,0 UV-I 0 W/m 16,4 C 18,4 C 3,2 km/h (1 Bft) 95,74 %
16.09.2019 22:16 18,3 C 16,1 C 17,2 C 88 % 1015,0 hPa 0,0 l/m 0,7 km/h (0 Bft) S 183 0 min 0,000 mm 0,0 UV-I 0 W/m 16,3 C 18,3 C 1,6 km/h (1 Bft) 93,62 %
16.09.2019 22:18 18,4 C 16,1 C 17,2 C 88 % 1015,0 hPa 0,0 l/m 2,9 km/h (1 Bft) NW 306 0 min 0,000 mm 0,0 UV-I 0 W/m 16,4 C 18,4 C 4,8 km/h (1 Bft) 100,00 %
16.09.2019 22:20 18,5 C 16,1 C 17,2 C 87 % 1015,0 hPa 0,0 l/m 2,0 km/h (1 Bft) NW 307 0 min 0,000 mm 0,0 UV-I 0 W/m 16,3 C 18,5 C 4,8 km/h (1 Bft) 96,00 %
16.09.2019 22:22 18,5 C 16,1 C 17,2 C 88 % 1014,9 hPa 0,0 l/m 1,3 km/h (1 Bft) NW 307 0 min 0,000 mm 0,0 UV-I 0 W/m 16,5 C 18,5 C 3,2 km/h (1 Bft) 97,87 %
16.09.2019 22:24 18,4 C 16,1 C 17,8 C 89 % 1014,8 hPa 0,0 l/m 2,8 km/h (1 Bft) S 188 0 min 0,000 mm 0,0 UV-I 0 W/m 16,6 C 18,4 C 4,8 km/h (1 Bft) 97,87 %
16.09.2019 22:26 18,2 C 16,1 C 17,8 C 90 % 1014,9 hPa 0,0 l/m 1,8 km/h (1 Bft) S 188 0 min 0,000 mm 0,0 UV-I 0 W/m 16,5 C 18,2 C 3,2 km/h (1 Bft) 97,87 %
16.09.2019 22:28 18,1 C 16,1 C 17,8 C 91 % 1014,9 hPa 0,0 l/m 1,9 km/h (1 Bft) S 188 0 min 0,000 mm 0,0 UV-I 0 W/m 16,6 C 18,1 C 3,2 km/h (1 Bft) 98,00 %
16.09.2019 22:30 17,9 C 16,1 C 17,8 C 91 % 1014,9 hPa 0,0 l/m 2,5 km/h (1 Bft) S 188 0 min 0,000 mm 0,0 UV-I 0 W/m 16,4 C 17,9 C 3,2 km/h (1 Bft) 98,00 %
16.09.2019 22:32 17,9 C 16,1 C 17,8 C 92 % 1014,9 hPa 0,0 l/m 2,7 km/h (1 Bft) S 188 0 min 0,000 mm 0,0 UV-I 0 W/m 16,6 C 17,9 C 3,2 km/h (1 Bft) 100,00 %
16.09.2019 22:34 17,9 C 16,1 C 17,8 C 92 % 1015,0 hPa 0,0 l/m 1,7 km/h (1 Bft) S 188 0 min 0,000 mm 0,0 UV-I 0 W/m 16,6 C 17,9 C 3,2 km/h (1 Bft) 95,74 %
16.09.2019 22:36 17,8 C 16,1 C 17,8 C 93 % 1015,0 hPa 0,0 l/m 3,3 km/h (1 Bft) S 188 0 min 0,000 mm 0,0 UV-I 0 W/m 16,7 C 17,8 C 4,8 km/h (1 Bft) 95,83 %
16.09.2019 22:38 17,8 C 16,1 C 17,8 C 93 % 1015,0 hPa 0,0 l/m 3,5 km/h (1 Bft) S 188 0 min 0,000 mm 0,0 UV-I 0 W/m 16,7 C 17,8 C 4,8 km/h (1 Bft) 98,00 %
16.09.2019 22:40 17,8 C 16,1 C 17,8 C 93 % 1014,9 hPa 0,0 l/m 2,9 km/h (1 Bft) S 187 0 min 0,000 mm 0,0 UV-I 0 W/m 16,7 C 17,8 C 4,8 km/h (1 Bft) 97,87 %
16.09.2019 22:42 17,8 C 16,1 C 17,8 C 93 % 1014,8 hPa 0,0 l/m 3,8 km/h (1 Bft) S 187 0 min 0,000 mm 0,0 UV-I 0 W/m 16,7 C 17,8 C 4,8 km/h (1 Bft) 95,74 %
16.09.2019 22:44 17,7 C 16,1 C 17,8 C 93 % 1014,8 hPa 0,0 l/m 3,0 km/h (1 Bft) S 187 0 min 0,000 mm 0,0 UV-I 0 W/m 16,6 C 17,7 C 4,8 km/h (1 Bft) 95,74 %
16.09.2019 22:46 17,7 C 16,1 C 17,8 C 93 % 1014,8 hPa 0,0 l/m 3,5 km/h (1 Bft) S 187 0 min 0,000 mm 0,0 UV-I 0 W/m 16,6 C 17,7 C 4,8 km/h (1 Bft) 97,87 %
16.09.2019 22:48 17,8 C 16,1 C 17,8 C 94 % 1014,8 hPa 0,0 l/m 2,9 km/h (1 Bft) W-SW 256 0 min 0,000 mm 0,0 UV-I 0 W/m 16,8 C 17,8 C 4,8 km/h (1 Bft) 95,74 %
16.09.2019 22:50 17,8 C 16,1 C 17,8 C 93 % 1014,8 hPa 0,0 l/m 1,4 km/h (1 Bft) W-SW 256 0 min 0,000 mm 0,0 UV-I 0 W/m 16,7 C 17,8 C 3,2 km/h (1 Bft) 95,74 %
16.09.2019 22:52 17,8 C 16,1 C 17,8 C 94 % 1014,8 hPa 0,0 l/m 2,6 km/h (1 Bft) W-SW 256 0 min 0,000 mm 0,0 UV-I 0 W/m 16,8 C 17,8 C 3,2 km/h (1 Bft) 95,74 %
16.09.2019 22:54 17,8 C 16,1 C 17,8 C 94 % 1014,8 hPa 0,0 l/m 1,8 km/h (1 Bft) W-SW 256 0 min 0,000 mm 0,0 UV-I 0 W/m 16,8 C 17,8 C 3,2 km/h (1 Bft) 97,87 %
16.09.2019 22:56 17,8 C 16,1 C 17,8 C 94 % 1014,7 hPa 0,0 l/m 1,2 km/h (1 Bft) W-SW 256 0 min 0,000 mm 0,0 UV-I 0 W/m 16,8 C 17,8 C 1,6 km/h (1 Bft) 98,00 %
16.09.2019 22:58 17,9 C 16,1 C 17,8 C 94 % 1014,7 hPa 0,0 l/m 2,6 km/h (1 Bft) SW 230 0 min 0,000 mm 0,0 UV-I 0 W/m 16,9 C 17,9 C 4,8 km/h (1 Bft) 97,87 %
16.09.2019 23:00 17,9 C 16,1 C 17,8 C 94 % 1014,7 hPa 0,0 l/m 2,0 km/h (1 Bft) SW 230 0 min 0,000 mm 0,0 UV-I 0 W/m 16,9 C 17,9 C 3,2 km/h (1 Bft) 100,00 %
16.09.2019 23:02 17,8 C 16,1 C 17,8 C 94 % 1014,8 hPa 0,0 l/m 2,0 km/h (1 Bft) SW 230 0 min 0,000 mm 0,0 UV-I 0 W/m 16,8 C 17,8 C 3,2 km/h (1 Bft) 100,00 %
16.09.2019 23:04 17,8 C 16,1 C 17,8 C 94 % 1014,8 hPa 0,0 l/m 2,6 km/h (1 Bft) SW 230 0 min 0,000 mm 0,0 UV-I 0 W/m 16,8 C 17,8 C 4,8 km/h (1 Bft) 97,87 %
16.09.2019 23:06 17,7 C 16,1 C 17,8 C 94 % 1014,8 hPa 0,0 l/m 2,6 km/h (1 Bft) S-SW 205 0 min 0,000 mm 0,0 UV-I 0 W/m 16,7 C 17,7 C 4,8 km/h (1 Bft) 100,00 %
16.09.2019 23:08 17,7 C 16,1 C 17,8 C 94 % 1014,7 hPa 0,0 l/m 4,7 km/h (1 Bft) S 183 0 min 0,000 mm 0,0 UV-I 0 W/m 16,7 C 17,7 C 6,4 km/h (2 Bft) 100,00 %
16.09.2019 23:10 17,7 C 16,1 C 17,8 C 94 % 1014,7 hPa 0,0 l/m 5,1 km/h (1 Bft) S-SW 201 0 min 0,000 mm 0,0 UV-I 0 W/m 16,7 C 17,7 C 8,0 km/h (2 Bft) 100,00 %
16.09.2019 23:12 17,7 C 16,1 C 17,8 C 94 % 1014,9 hPa 0,0 l/m 5,3 km/h (1 Bft) S 189 0 min 0,000 mm 0,0 UV-I 0 W/m 16,7 C 17,7 C 6,4 km/h (2 Bft) 100,00 %
16.09.2019 23:14 17,7 C 16,1 C 17,8 C 94 % 1014,9 hPa 0,0 l/m 6,4 km/h (2 Bft) S-SW 211 0 min 0,000 mm 0,0 UV-I 0 W/m 16,7 C 17,7 C 8,0 km/h (2 Bft) 100,00 %
16.09.2019 23:16 17,7 C 16,1 C 17,8 C 94 % 1014,9 hPa 0,0 l/m 6,4 km/h (2 Bft) S 184 0 min 0,000 mm 0,0 UV-I 0 W/m 16,7 C 17,7 C 11,3 km/h (2 Bft) 100,00 %
16.09.2019 23:18 17,8 C 16,1 C 17,8 C 93 % 1014,9 hPa 0,0 l/m 7,1 km/h (2 Bft) S 191 0 min 0,000 mm 0,0 UV-I 0 W/m 16,7 C 17,5 C 9,7 km/h (2 Bft) 97,87 %
16.09.2019 23:20 17,8 C 16,1 C 17,8 C 93 % 1015,0 hPa 0,0 l/m 6,0 km/h (2 Bft) S-SW 207 0 min 0,000 mm 0,0 UV-I 0 W/m 16,7 C 17,8 C 9,7 km/h (2 Bft) 100,00 %
16.09.2019 23:22 17,9 C 16,1 C 17,8 C 93 % 1015,1 hPa 0,0 l/m 6,4 km/h (2 Bft) S-SW 203 0 min 0,000 mm 0,0 UV-I 0 W/m 16,8 C 17,9 C 8,0 km/h (2 Bft) 100,00 %
16.09.2019 23:24 18,0 C 16,1 C 17,8 C 93 % 1015,1 hPa 0,0 l/m 4,9 km/h (1 Bft) S 188 0 min 0,000 mm 0,0 UV-I 0 W/m 16,8 C 18,0 C 8,0 km/h (2 Bft) 98,00 %
16.09.2019 23:26 18,1 C 16,1 C 17,8 C 92 % 1015,2 hPa 0,0 l/m 4,5 km/h (1 Bft) SW 214 0 min 0,000 mm 0,0 UV-I 0 W/m 16,8 C 18,1 C 6,4 km/h (2 Bft) 97,87 %
16.09.2019 23:28 18,1 C 16,1 C 17,8 C 92 % 1015,2 hPa 0,0 l/m 4,2 km/h (1 Bft) S-SW 213 0 min 0,000 mm 0,0 UV-I 0 W/m 16,8 C 18,1 C 6,4 km/h (2 Bft) 100,00 %
16.09.2019 23:30 18,1 C 16,1 C 17,8 C 92 % 1015,2 hPa 0,0 l/m 4,3 km/h (1 Bft) S-SW 203 0 min 0,000 mm 0,0 UV-I 0 W/m 16,8 C 18,1 C 6,4 km/h (2 Bft) 100,00 %
16.09.2019 23:32 18,2 C 16,1 C 17,8 C 91 % 1015,2 hPa 0,0 l/m 4,5 km/h (1 Bft) S-SW 193 0 min 0,000 mm 0,0 UV-I 0 W/m 16,7 C 18,2 C 6,4 km/h (2 Bft) 100,00 %
16.09.2019 23:34 18,2 C 16,1 C 17,8 C 91 % 1015,2 hPa 0,0 l/m 5,6 km/h (1 Bft) S 185 0 min 0,000 mm 0,0 UV-I 0 W/m 16,7 C 18,2 C 8,0 km/h (2 Bft) 97,92 %
16.09.2019 23:36 18,2 C 16,1 C 17,8 C 91 % 1015,1 hPa 0,0 l/m 7,1 km/h (2 Bft) S-SW 192 0 min 0,000 mm 0,0 UV-I 0 W/m 16,7 C 17,9 C 11,3 km/h (2 Bft) 100,00 %
16.09.2019 23:38 18,2 C 16,1 C 17,8 C 91 % 1015,1 hPa 0,0 l/m 5,4 km/h (1 Bft) S-SW 208 0 min 0,000 mm 0,0 UV-I 0 W/m 16,7 C 18,2 C 9,7 km/h (2 Bft) 96,00 %
16.09.2019 23:40 18,3 C 16,1 C 17,8 C 91 % 1015,2 hPa 0,0 l/m 5,0 km/h (1 Bft) S-SW 200 0 min 0,000 mm 0,0 UV-I 0 W/m 16,8 C 18,3 C 8,0 km/h (2 Bft) 100,00 %
16.09.2019 23:42 18,3 C 16,1 C 17,8 C 91 % 1015,2 hPa 0,0 l/m 5,7 km/h (1 Bft) S 181 0 min 0,000 mm 0,0 UV-I 0 W/m 16,8 C 18,3 C 8,0 km/h (2 Bft) 100,00 %
16.09.2019 23:44 18,3 C 16,1 C 17,8 C 91 % 1015,1 hPa 0,0 l/m 5,6 km/h (1 Bft) S-SW 203 0 min 0,000 mm 0,0 UV-I 0 W/m 16,8 C 18,3 C 8,0 km/h (2 Bft) 95,74 %
16.09.2019 23:46 18,3 C 16,1 C 17,8 C 91 % 1015,1 hPa 0,0 l/m 5,6 km/h (1 Bft) S 184 0 min 0,000 mm 0,0 UV-I 0 W/m 16,8 C 18,3 C 8,0 km/h (2 Bft) 97,87 %
16.09.2019 23:48 18,3 C 16,1 C 17,8 C 91 % 1015,0 hPa 0,0 l/m 5,9 km/h (2 Bft) S 185 0 min 0,000 mm 0,0 UV-I 0 W/m 16,8 C 18,3 C 9,7 km/h (2 Bft) 100,00 %
16.09.2019 23:50 18,3 C 16,1 C 17,8 C 91 % 1015,0 hPa 0,0 l/m 7,0 km/h (2 Bft) S 190 0 min 0,000 mm 0,0 UV-I 0 W/m 16,8 C 18,0 C 11,3 km/h (2 Bft) 93,62 %
16.09.2019 23:52 18,3 C 16,1 C 17,8 C 92 % 1014,9 hPa 0,0 l/m 7,2 km/h (2 Bft) S-SO 165 0 min 0,000 mm 0,0 UV-I 0 W/m 17,0 C 17,9 C 12,9 km/h (3 Bft) 100,00 %
16.09.2019 23:54 18,3 C 16,1 C 17,8 C 91 % 1015,0 hPa 0,0 l/m 7,0 km/h (2 Bft) S-SW 200 0 min 0,000 mm 0,0 UV-I 0 W/m 16,8 C 18,0 C 9,7 km/h (2 Bft) 97,87 %
16.09.2019 23:56 18,3 C 16,1 C 17,8 C 91 % 1015,0 hPa 0,0 l/m 6,4 km/h (2 Bft) S-SW 207 0 min 0,000 mm 0,0 UV-I 0 W/m 16,8 C 18,3 C 9,7 km/h (2 Bft) 100,00 %
16.09.2019 23:58 18,3 C 16,1 C 17,8 C 91 % 1015,0 hPa 0,0 l/m 6,0 km/h (2 Bft) S-SW 213 0 min 0,000 mm 0,0 UV-I 0 W/m 16,8 C 18,3 C 9,7 km/h (2 Bft) 97,87 %
_ Min-Zeit 04:04 00:00 02:52 14:24 19:04 - 03:04 - - - - - - 04:04 04:04 03:04 04:36
Minimum _ 12,6 C 16,1 C 11,7 C 52 % 1014,5 hPa - 0,0 km/h (0 Bft) - - - - - - 11,7 C 12,6 C 0,0 km/h (0 Bft) 89,36 %
_ Max-Zeit 16:38 00:00 13:12 06:02 00:16 22:02 13:16 - - 08:38 14:00 13:14 14:34 18:52 16:38 13:14 00:46
Maximum _ 25,8 C 16,1 C 36,7 C 96 % 1020,1 hPa 0,4 l/m 15,0 km/h
W-SW (3 Bft)
- - 3 min 0,431 mm 4,5 UV-I 845 W/m 17,4 C 25,8 C 20,9 km/h
W-SW (4 Bft)
100,00 %
Durchschnitt _ 19,0 C 16,1 C 20,6 C 80 % 1017,3 hPa #0,8 l/m 3,6 km/h (1 Bft) SW - #8:09 h #2,997 mm 2,5 UV-I 346 W/m 15,1 C 19,0 C 6,2 km/h (2 Bft) 97,24 %